Wetterdaten: Donnerstag, 23.02.2017
Datum Zeit Temp. A. Feuchte A. Luftdruck Regen Wind Richtung Richtung Sonnenschein ET UV Solar Taupunkt Windchill Windben Empfang
23.02.2017 00:00 10,6 C 72 % 1008,8 hPa 0,0 l/m 21,3 km/h (4 Bft) W-SW 250 0 min 0,000 mm 0,0 UV-I 0 W/m 5,8 C 3,7 C 32,2 km/h (5 Bft) 100,00 %
23.02.2017 00:02 10,6 C 72 % 1008,8 hPa 0,0 l/m 17,4 km/h (3 Bft) SW 232 0 min 0,000 mm 0,0 UV-I 0 W/m 5,8 C 4,9 C 22,5 km/h (4 Bft) 97,78 %
23.02.2017 00:04 10,6 C 73 % 1008,8 hPa 0,0 l/m 19,8 km/h (3 Bft) W-SW 252 0 min 0,000 mm 0,0 UV-I 0 W/m 6,0 C 4,1 C 33,8 km/h (5 Bft) 97,56 %
23.02.2017 00:06 10,6 C 72 % 1008,8 hPa 0,0 l/m 19,1 km/h (3 Bft) W-SW 250 0 min 0,000 mm 0,0 UV-I 0 W/m 5,8 C 4,4 C 30,6 km/h (5 Bft) 96,00 %
23.02.2017 00:08 10,6 C 72 % 1008,7 hPa 0,0 l/m 16,3 km/h (3 Bft) SW 232 0 min 0,000 mm 0,0 UV-I 0 W/m 5,8 C 5,3 C 24,1 km/h (4 Bft) 97,73 %
23.02.2017 00:10 10,6 C 73 % 1008,8 hPa 0,0 l/m 22,8 km/h (4 Bft) W-SW 247 0 min 0,000 mm 0,0 UV-I 0 W/m 6,0 C 3,2 C 32,2 km/h (5 Bft) 96,23 %
23.02.2017 00:12 10,6 C 73 % 1008,7 hPa 0,0 l/m 21,5 km/h (4 Bft) SW 225 0 min 0,000 mm 0,0 UV-I 0 W/m 6,0 C 3,6 C 30,6 km/h (5 Bft) 97,37 %
23.02.2017 00:14 10,6 C 73 % 1008,8 hPa 0,0 l/m 18,6 km/h (3 Bft) W-SW 240 0 min 0,000 mm 0,0 UV-I 0 W/m 6,0 C 4,5 C 24,1 km/h (4 Bft) 95,56 %
23.02.2017 00:16 10,5 C 73 % 1008,8 hPa 0,0 l/m 16,8 km/h (3 Bft) W 259 0 min 0,000 mm 0,0 UV-I 0 W/m 5,9 C 5,0 C 24,1 km/h (4 Bft) 98,00 %
23.02.2017 00:18 10,5 C 73 % 1008,7 hPa 0,0 l/m 16,2 km/h (3 Bft) W-SW 255 0 min 0,000 mm 0,0 UV-I 0 W/m 5,9 C 5,3 C 22,5 km/h (4 Bft) 98,08 %
23.02.2017 00:20 10,4 C 73 % 1008,8 hPa 0,0 l/m 17,3 km/h (3 Bft) W-SW 242 0 min 0,000 mm 0,0 UV-I 0 W/m 5,8 C 4,7 C 25,7 km/h (4 Bft) 97,62 %
23.02.2017 00:22 10,5 C 73 % 1008,8 hPa 0,0 l/m 13,7 km/h (3 Bft) SW 225 0 min 0,000 mm 0,0 UV-I 0 W/m 5,9 C 6,3 C 20,9 km/h (4 Bft) 94,34 %
23.02.2017 00:24 10,5 C 74 % 1008,9 hPa 0,0 l/m 19,8 km/h (3 Bft) W 265 0 min 0,000 mm 0,0 UV-I 0 W/m 6,1 C 4,0 C 25,7 km/h (4 Bft) 95,74 %
23.02.2017 00:26 10,4 C 74 % 1008,8 hPa 0,0 l/m 16,8 km/h (3 Bft) W-SW 242 0 min 0,000 mm 0,0 UV-I 0 W/m 6,0 C 4,9 C 25,7 km/h (4 Bft) 93,10 %
23.02.2017 00:28 10,4 C 74 % 1008,8 hPa 0,0 l/m 12,0 km/h (2 Bft) W-SW 238 0 min 0,000 mm 0,0 UV-I 0 W/m 6,0 C 7,0 C 19,3 km/h (3 Bft) 93,22 %
23.02.2017 00:30 10,4 C 74 % 1008,8 hPa 0,0 l/m 18,0 km/h (3 Bft) W-SW 252 0 min 0,000 mm 0,0 UV-I 0 W/m 6,0 C 4,5 C 29,0 km/h (5 Bft) 92,45 %
23.02.2017 00:32 10,4 C 74 % 1008,8 hPa 0,0 l/m 19,7 km/h (3 Bft) W-SW 252 0 min 0,000 mm 0,0 UV-I 0 W/m 6,0 C 3,9 C 27,4 km/h (4 Bft) 92,68 %
23.02.2017 00:34 10,5 C 74 % 1008,8 hPa 0,0 l/m 16,1 km/h (3 Bft) W-SW 248 0 min 0,000 mm 0,0 UV-I 0 W/m 6,1 C 5,3 C 24,1 km/h (4 Bft) 96,23 %
23.02.2017 00:36 10,5 C 74 % 1008,8 hPa 0,0 l/m 15,7 km/h (3 Bft) W-SW 244 0 min 0,000 mm 0,0 UV-I 0 W/m 6,1 C 5,5 C 22,5 km/h (4 Bft) 92,68 %
23.02.2017 00:38 10,5 C 74 % 1008,7 hPa 0,0 l/m 12,8 km/h (3 Bft) W-SW 245 0 min 0,000 mm 0,0 UV-I 0 W/m 6,1 C 6,7 C 17,7 km/h (3 Bft) 94,00 %
23.02.2017 00:40 10,4 C 74 % 1008,7 hPa 0,0 l/m 16,5 km/h (3 Bft) W-SW 252 0 min 0,000 mm 0,0 UV-I 0 W/m 6,0 C 5,0 C 25,7 km/h (4 Bft) 92,68 %
23.02.2017 00:42 10,4 C 74 % 1008,6 hPa 0,0 l/m 14,7 km/h (3 Bft) S-SW 208 0 min 0,000 mm 0,0 UV-I 0 W/m 6,0 C 5,7 C 24,1 km/h (4 Bft) 94,34 %
23.02.2017 00:44 10,4 C 74 % 1008,6 hPa 0,0 l/m 17,6 km/h (3 Bft) W 264 0 min 0,000 mm 0,0 UV-I 0 W/m 6,0 C 4,6 C 27,4 km/h (4 Bft) 94,74 %
23.02.2017 00:46 10,4 C 74 % 1008,6 hPa 0,0 l/m 14,7 km/h (3 Bft) W-SW 257 0 min 0,000 mm 0,0 UV-I 0 W/m 6,0 C 5,7 C 19,3 km/h (3 Bft) 94,34 %
23.02.2017 00:48 10,4 C 74 % 1008,6 hPa 0,0 l/m 18,8 km/h (3 Bft) W 263 0 min 0,000 mm 0,0 UV-I 0 W/m 6,0 C 4,2 C 29,0 km/h (5 Bft) 92,68 %
23.02.2017 00:50 10,4 C 74 % 1008,6 hPa 0,0 l/m 12,8 km/h (3 Bft) W 263 0 min 0,000 mm 0,0 UV-I 0 W/m 6,0 C 6,6 C 17,7 km/h (3 Bft) 96,23 %
23.02.2017 00:52 10,4 C 74 % 1008,6 hPa 0,0 l/m 12,9 km/h (3 Bft) SW 226 0 min 0,000 mm 0,0 UV-I 0 W/m 6,0 C 6,5 C 19,3 km/h (3 Bft) 96,00 %
23.02.2017 00:54 10,4 C 74 % 1008,6 hPa 0,0 l/m 11,7 km/h (2 Bft) W 269 0 min 0,000 mm 0,0 UV-I 0 W/m 6,0 C 7,1 C 19,3 km/h (3 Bft) 94,74 %
23.02.2017 00:56 10,4 C 75 % 1008,6 hPa 0,0 l/m 10,6 km/h (2 Bft) W-SW 245 0 min 0,000 mm 0,0 UV-I 0 W/m 6,2 C 7,7 C 16,1 km/h (3 Bft) 92,00 %
23.02.2017 00:58 10,4 C 74 % 1008,6 hPa 0,0 l/m 15,1 km/h (3 Bft) W 265 0 min 0,000 mm 0,0 UV-I 0 W/m 6,0 C 5,6 C 24,1 km/h (4 Bft) 95,24 %
23.02.2017 01:00 10,4 C 75 % 1008,6 hPa 0,0 l/m 15,7 km/h (3 Bft) W 261 0 min 0,000 mm 0,0 UV-I 0 W/m 6,2 C 5,3 C 22,5 km/h (4 Bft) 96,43 %
23.02.2017 01:02 10,4 C 75 % 1008,6 hPa 0,0 l/m 10,2 km/h (2 Bft) SW 231 0 min 0,051 mm 0,0 UV-I 0 W/m 6,2 C 7,9 C 16,1 km/h (3 Bft) 95,12 %
23.02.2017 01:04 10,4 C 75 % 1008,6 hPa 0,0 l/m 14,1 km/h (3 Bft) W 265 0 min 0,000 mm 0,0 UV-I 0 W/m 6,2 C 6,0 C 24,1 km/h (4 Bft) 98,21 %
23.02.2017 01:06 10,4 C 75 % 1008,6 hPa 0,0 l/m 15,5 km/h (3 Bft) W-SW 247 0 min 0,000 mm 0,0 UV-I 0 W/m 6,2 C 5,4 C 19,3 km/h (3 Bft) 94,74 %
23.02.2017 01:08 10,4 C 75 % 1008,6 hPa 0,0 l/m 15,3 km/h (3 Bft) W-SW 250 0 min 0,000 mm 0,0 UV-I 0 W/m 6,2 C 5,5 C 24,1 km/h (4 Bft) 95,74 %
23.02.2017 01:10 10,4 C 75 % 1008,6 hPa 0,0 l/m 13,3 km/h (3 Bft) W-SW 257 0 min 0,000 mm 0,0 UV-I 0 W/m 6,2 C 6,4 C 19,3 km/h (3 Bft) 97,87 %
23.02.2017 01:12 10,4 C 75 % 1008,6 hPa 0,0 l/m 13,6 km/h (3 Bft) W 261 0 min 0,000 mm 0,0 UV-I 0 W/m 6,2 C 6,2 C 22,5 km/h (4 Bft) 95,74 %
23.02.2017 01:14 10,4 C 75 % 1008,6 hPa 0,0 l/m 12,9 km/h (3 Bft) W-SW 241 0 min 0,000 mm 0,0 UV-I 0 W/m 6,2 C 6,5 C 20,9 km/h (4 Bft) 96,23 %
23.02.2017 01:16 10,4 C 75 % 1008,7 hPa 0,0 l/m 13,3 km/h (3 Bft) W-SW 256 0 min 0,000 mm 0,0 UV-I 0 W/m 6,2 C 6,4 C 19,3 km/h (3 Bft) 97,37 %
23.02.2017 01:18 10,4 C 74 % 1008,7 hPa 0,0 l/m 10,6 km/h (2 Bft) W 263 0 min 0,000 mm 0,0 UV-I 0 W/m 6,0 C 7,7 C 16,1 km/h (3 Bft) 96,23 %
23.02.2017 01:20 10,4 C 75 % 1008,7 hPa 0,0 l/m 11,9 km/h (2 Bft) W-SW 252 0 min 0,000 mm 0,0 UV-I 0 W/m 6,2 C 7,0 C 17,7 km/h (3 Bft) 96,00 %
23.02.2017 01:22 10,4 C 75 % 1008,7 hPa 0,0 l/m 14,6 km/h (3 Bft) W 266 0 min 0,000 mm 0,0 UV-I 0 W/m 6,2 C 5,8 C 19,3 km/h (3 Bft) 95,12 %
23.02.2017 01:24 10,4 C 75 % 1008,7 hPa 0,0 l/m 12,1 km/h (2 Bft) W 267 0 min 0,000 mm 0,0 UV-I 0 W/m 6,2 C 6,9 C 20,9 km/h (4 Bft) 97,87 %
23.02.2017 01:26 10,4 C 75 % 1008,8 hPa 0,0 l/m 12,6 km/h (3 Bft) W 266 0 min 0,000 mm 0,0 UV-I 0 W/m 6,2 C 6,7 C 19,3 km/h (3 Bft) 95,12 %
23.02.2017 01:28 10,4 C 75 % 1008,7 hPa 0,0 l/m 15,0 km/h (3 Bft) W-SW 242 0 min 0,000 mm 0,0 UV-I 0 W/m 6,2 C 5,6 C 24,1 km/h (4 Bft) 98,21 %
23.02.2017 01:30 10,4 C 75 % 1008,6 hPa 0,0 l/m 11,4 km/h (2 Bft) W 259 0 min 0,000 mm 0,0 UV-I 0 W/m 6,2 C 7,3 C 17,7 km/h (3 Bft) 98,00 %
23.02.2017 01:32 10,4 C 75 % 1008,7 hPa 0,0 l/m 11,5 km/h (2 Bft) W-SW 242 0 min 0,000 mm 0,0 UV-I 0 W/m 6,2 C 7,2 C 20,9 km/h (4 Bft) 94,74 %
23.02.2017 01:34 10,4 C 75 % 1008,7 hPa 0,0 l/m 12,2 km/h (2 Bft) W-SW 257 0 min 0,000 mm 0,0 UV-I 0 W/m 6,2 C 6,9 C 22,5 km/h (4 Bft) 96,23 %
23.02.2017 01:36 10,4 C 74 % 1008,7 hPa 0,0 l/m 15,3 km/h (3 Bft) W-SW 238 0 min 0,000 mm 0,0 UV-I 0 W/m 6,0 C 5,5 C 32,2 km/h (5 Bft) 97,62 %
23.02.2017 01:38 10,4 C 75 % 1008,7 hPa 0,0 l/m 14,8 km/h (3 Bft) W-SW 255 0 min 0,000 mm 0,0 UV-I 0 W/m 6,2 C 5,7 C 24,1 km/h (4 Bft) 97,87 %
23.02.2017 01:40 10,4 C 75 % 1008,7 hPa 0,0 l/m 11,5 km/h (2 Bft) W-SW 243 0 min 0,000 mm 0,0 UV-I 0 W/m 6,2 C 7,2 C 20,9 km/h (4 Bft) 92,45 %
23.02.2017 01:42 10,4 C 75 % 1008,7 hPa 0,0 l/m 15,0 km/h (3 Bft) W 261 0 min 0,000 mm 0,0 UV-I 0 W/m 6,2 C 5,6 C 20,9 km/h (4 Bft) 92,68 %
23.02.2017 01:44 10,4 C 75 % 1008,7 hPa 0,0 l/m 13,8 km/h (3 Bft) W 263 0 min 0,000 mm 0,0 UV-I 0 W/m 6,2 C 6,1 C 17,7 km/h (3 Bft) 96,00 %
23.02.2017 01:46 10,4 C 75 % 1008,7 hPa 0,0 l/m 12,1 km/h (2 Bft) W-SW 258 0 min 0,000 mm 0,0 UV-I 0 W/m 6,2 C 6,9 C 16,1 km/h (3 Bft) 95,45 %
23.02.2017 01:48 10,4 C 75 % 1008,6 hPa 0,0 l/m 14,6 km/h (3 Bft) W-SW 250 0 min 0,000 mm 0,0 UV-I 0 W/m 6,2 C 5,8 C 24,1 km/h (4 Bft) 96,00 %
23.02.2017 01:50 10,3 C 75 % 1008,6 hPa 0,0 l/m 14,6 km/h (3 Bft) W-SW 248 0 min 0,000 mm 0,0 UV-I 0 W/m 6,1 C 5,7 C 24,1 km/h (4 Bft) 96,00 %
23.02.2017 01:52 10,4 C 75 % 1008,6 hPa 0,0 l/m 18,1 km/h (3 Bft) SW 224 0 min 0,000 mm 0,0 UV-I 0 W/m 6,2 C 4,4 C 27,4 km/h (4 Bft) 97,37 %
23.02.2017 01:54 10,4 C 74 % 1008,6 hPa 0,0 l/m 17,8 km/h (3 Bft) W-SW 244 0 min 0,000 mm 0,0 UV-I 0 W/m 6,0 C 4,5 C 24,1 km/h (4 Bft) 94,34 %
23.02.2017 01:56 10,5 C 74 % 1008,6 hPa 0,0 l/m 18,1 km/h (3 Bft) W-SW 240 0 min 0,000 mm 0,0 UV-I 0 W/m 6,1 C 4,6 C 27,4 km/h (4 Bft) 98,00 %
23.02.2017 01:58 10,5 C 74 % 1008,6 hPa 0,0 l/m 18,5 km/h (3 Bft) W 259 0 min 0,000 mm 0,0 UV-I 0 W/m 6,1 C 4,4 C 25,7 km/h (4 Bft) 100,00 %
23.02.2017 02:00 10,6 C 74 % 1008,5 hPa 0,0 l/m 20,2 km/h (4 Bft) W-SW 238 0 min 0,051 mm 0,0 UV-I 0 W/m 6,2 C 4,0 C 33,8 km/h (5 Bft) 96,23 %
23.02.2017 02:02 10,6 C 74 % 1008,4 hPa 0,0 l/m 23,2 km/h (4 Bft) W-SW 244 0 min 0,000 mm 0,0 UV-I 0 W/m 6,2 C 3,1 C 33,8 km/h (5 Bft) 100,00 %
23.02.2017 02:04 10,6 C 73 % 1008,5 hPa 0,0 l/m 17,9 km/h (3 Bft) W 274 0 min 0,000 mm 0,0 UV-I 0 W/m 6,0 C 4,8 C 25,7 km/h (4 Bft) 98,44 %
23.02.2017 02:06 10,7 C 73 % 1008,5 hPa 0,0 l/m 16,9 km/h (3 Bft) W-SW 255 0 min 0,000 mm 0,0 UV-I 0 W/m 6,1 C 5,2 C 25,7 km/h (4 Bft) 98,00 %
23.02.2017 02:08 10,7 C 73 % 1008,5 hPa 0,0 l/m 17,7 km/h (3 Bft) W-SW 255 0 min 0,000 mm 0,0 UV-I 0 W/m 6,1 C 5,0 C 22,5 km/h (4 Bft) 92,11 %
23.02.2017 02:10 10,7 C 73 % 1008,5 hPa 0,0 l/m 17,1 km/h (3 Bft) W 265 0 min 0,000 mm 0,0 UV-I 0 W/m 6,1 C 5,2 C 22,5 km/h (4 Bft) 100,00 %
23.02.2017 02:12 10,7 C 73 % 1008,5 hPa 0,0 l/m 19,4 km/h (3 Bft) SW 223 0 min 0,000 mm 0,0 UV-I 0 W/m 6,1 C 4,4 C 27,4 km/h (4 Bft) 100,00 %
23.02.2017 02:14 10,7 C 73 % 1008,5 hPa 0,0 l/m 21,1 km/h (4 Bft) SW 231 0 min 0,000 mm 0,0 UV-I 0 W/m 6,1 C 3,9 C 33,8 km/h (5 Bft) 98,11 %
23.02.2017 02:16 10,7 C 73 % 1008,5 hPa 0,0 l/m 16,0 km/h (3 Bft) SW 221 0 min 0,000 mm 0,0 UV-I 0 W/m 6,1 C 5,6 C 22,5 km/h (4 Bft) 97,62 %
23.02.2017 02:18 10,7 C 72 % 1008,5 hPa 0,0 l/m 17,8 km/h (3 Bft) W-SW 244 0 min 0,000 mm 0,0 UV-I 0 W/m 5,9 C 4,9 C 25,7 km/h (4 Bft) 100,00 %
23.02.2017 02:20 10,7 C 73 % 1008,4 hPa 0,0 l/m 17,0 km/h (3 Bft) W-SW 238 0 min 0,000 mm 0,0 UV-I 0 W/m 6,1 C 5,2 C 24,1 km/h (4 Bft) 98,11 %
23.02.2017 02:22 10,7 C 73 % 1008,4 hPa 0,0 l/m 13,5 km/h (3 Bft) SW 220 0 min 0,000 mm 0,0 UV-I 0 W/m 6,1 C 6,6 C 19,3 km/h (3 Bft) 95,12 %
23.02.2017 02:24 10,7 C 72 % 1008,5 hPa 0,0 l/m 17,4 km/h (3 Bft) W 277 0 min 0,000 mm 0,0 UV-I 0 W/m 5,9 C 5,1 C 24,1 km/h (4 Bft) 100,00 %
23.02.2017 02:26 10,7 C 73 % 1008,5 hPa 0,0 l/m 16,9 km/h (3 Bft) W-SW 246 0 min 0,000 mm 0,0 UV-I 0 W/m 6,1 C 5,2 C 25,7 km/h (4 Bft) 96,43 %
23.02.2017 02:28 10,7 C 72 % 1008,4 hPa 0,0 l/m 21,6 km/h (4 Bft) W-NW 289 0 min 0,000 mm 0,0 UV-I 0 W/m 5,9 C 3,7 C 30,6 km/h (5 Bft) 98,00 %
23.02.2017 02:30 10,7 C 72 % 1008,4 hPa 0,0 l/m 15,4 km/h (3 Bft) W 268 0 min 0,000 mm 0,0 UV-I 0 W/m 5,9 C 5,8 C 27,4 km/h (4 Bft) 97,37 %
23.02.2017 02:32 10,7 C 72 % 1008,4 hPa 0,0 l/m 17,5 km/h (3 Bft) W 263 0 min 0,000 mm 0,0 UV-I 0 W/m 5,9 C 5,0 C 29,0 km/h (5 Bft) 98,21 %
23.02.2017 02:34 10,7 C 72 % 1008,4 hPa 0,0 l/m 18,5 km/h (3 Bft) W-SW 252 0 min 0,000 mm 0,0 UV-I 0 W/m 5,9 C 4,7 C 24,1 km/h (4 Bft) 97,37 %
23.02.2017 02:36 10,7 C 72 % 1008,5 hPa 0,0 l/m 11,9 km/h (2 Bft) W 267 0 min 0,000 mm 0,0 UV-I 0 W/m 5,9 C 7,4 C 17,7 km/h (3 Bft) 97,87 %
23.02.2017 02:38 10,7 C 72 % 1008,4 hPa 0,0 l/m 15,1 km/h (3 Bft) W 277 0 min 0,000 mm 0,0 UV-I 0 W/m 5,9 C 5,9 C 24,1 km/h (4 Bft) 96,00 %
23.02.2017 02:40 10,7 C 72 % 1008,4 hPa 0,0 l/m 17,1 km/h (3 Bft) W-SW 237 0 min 0,000 mm 0,0 UV-I 0 W/m 5,9 C 5,2 C 27,4 km/h (4 Bft) 92,68 %
23.02.2017 02:42 10,7 C 72 % 1008,4 hPa 0,0 l/m 17,0 km/h (3 Bft) SW 236 0 min 0,000 mm 0,0 UV-I 0 W/m 5,9 C 5,2 C 25,7 km/h (4 Bft) 96,00 %
23.02.2017 02:44 10,7 C 72 % 1008,3 hPa 0,0 l/m 16,3 km/h (3 Bft) W-SW 249 0 min 0,000 mm 0,0 UV-I 0 W/m 5,9 C 5,5 C 27,4 km/h (4 Bft) 96,23 %
23.02.2017 02:46 10,7 C 72 % 1008,3 hPa 0,0 l/m 16,7 km/h (3 Bft) W-SW 247 0 min 0,000 mm 0,0 UV-I 0 W/m 5,9 C 5,3 C 27,4 km/h (4 Bft) 92,68 %
23.02.2017 02:48 10,7 C 72 % 1008,2 hPa 0,0 l/m 16,5 km/h (3 Bft) W-SW 256 0 min 0,000 mm 0,0 UV-I 0 W/m 5,9 C 5,4 C 25,7 km/h (4 Bft) 92,45 %
23.02.2017 02:50 10,7 C 72 % 1008,2 hPa 0,0 l/m 15,3 km/h (3 Bft) SW 236 0 min 0,000 mm 0,0 UV-I 0 W/m 5,9 C 5,9 C 27,4 km/h (4 Bft) 97,87 %
23.02.2017 02:52 10,7 C 72 % 1008,3 hPa 0,0 l/m 17,4 km/h (3 Bft) W 274 0 min 0,000 mm 0,0 UV-I 0 W/m 5,9 C 5,1 C 25,7 km/h (4 Bft) 95,74 %
23.02.2017 02:54 10,7 C 72 % 1008,2 hPa 0,0 l/m 16,0 km/h (3 Bft) W 265 0 min 0,000 mm 0,0 UV-I 0 W/m 5,9 C 5,6 C 30,6 km/h (5 Bft) 97,22 %
23.02.2017 02:56 10,7 C 72 % 1008,1 hPa 0,0 l/m 17,2 km/h (3 Bft) SW 225 0 min 0,000 mm 0,0 UV-I 0 W/m 5,9 C 5,1 C 27,4 km/h (4 Bft) 96,55 %
23.02.2017 02:58 10,7 C 72 % 1008,2 hPa 0,0 l/m 19,0 km/h (3 Bft) W-SW 249 0 min 0,000 mm 0,0 UV-I 0 W/m 5,9 C 4,5 C 32,2 km/h (5 Bft) 97,44 %
23.02.2017 03:00 10,7 C 72 % 1008,2 hPa 0,0 l/m 11,6 km/h (2 Bft) SW 236 0 min 0,050 mm 0,0 UV-I 0 W/m 5,9 C 7,5 C 17,7 km/h (3 Bft) 98,11 %
23.02.2017 03:02 10,7 C 72 % 1008,2 hPa 0,0 l/m 15,5 km/h (3 Bft) W-SW 245 0 min 0,000 mm 0,0 UV-I 0 W/m 5,9 C 5,8 C 24,1 km/h (4 Bft) 100,00 %
23.02.2017 03:04 10,7 C 72 % 1008,2 hPa 0,0 l/m 17,8 km/h (3 Bft) W 261 0 min 0,000 mm 0,0 UV-I 0 W/m 5,9 C 4,9 C 25,7 km/h (4 Bft) 100,00 %
23.02.2017 03:06 10,7 C 72 % 1008,1 hPa 0,0 l/m 18,7 km/h (3 Bft) W 267 0 min 0,000 mm 0,0 UV-I 0 W/m 5,9 C 4,6 C 24,1 km/h (4 Bft) 100,00 %
23.02.2017 03:08 10,7 C 72 % 1008,1 hPa 0,0 l/m 14,8 km/h (3 Bft) W-SW 252 0 min 0,000 mm 0,0 UV-I 0 W/m 5,9 C 6,1 C 20,9 km/h (4 Bft) 98,31 %
23.02.2017 03:10 10,6 C 72 % 1008,1 hPa 0,0 l/m 15,2 km/h (3 Bft) W 259 0 min 0,000 mm 0,0 UV-I 0 W/m 5,8 C 5,8 C 20,9 km/h (4 Bft) 97,56 %
23.02.2017 03:12 10,6 C 72 % 1008,1 hPa 0,0 l/m 15,8 km/h (3 Bft) W-NW 294 0 min 0,000 mm 0,0 UV-I 0 W/m 5,8 C 5,5 C 22,5 km/h (4 Bft) 97,73 %
23.02.2017 03:14 10,6 C 72 % 1008,0 hPa 0,0 l/m 14,3 km/h (3 Bft) W 266 0 min 0,000 mm 0,0 UV-I 0 W/m 5,8 C 6,2 C 22,5 km/h (4 Bft) 98,21 %
23.02.2017 03:16 10,6 C 72 % 1008,0 hPa 0,0 l/m 14,1 km/h (3 Bft) W 266 0 min 0,000 mm 0,0 UV-I 0 W/m 5,8 C 6,2 C 24,1 km/h (4 Bft) 95,45 %
23.02.2017 03:18 10,6 C 72 % 1008,0 hPa 0,0 l/m 20,5 km/h (4 Bft) W-SW 238 0 min 0,000 mm 0,0 UV-I 0 W/m 5,8 C 3,9 C 30,6 km/h (5 Bft) 97,56 %
23.02.2017 03:20 10,6 C 72 % 1008,0 hPa 0,0 l/m 21,1 km/h (4 Bft) W 277 0 min 0,000 mm 0,0 UV-I 0 W/m 5,8 C 3,7 C 27,4 km/h (4 Bft) 98,11 %
23.02.2017 03:22 10,7 C 72 % 1007,9 hPa 0,0 l/m 16,0 km/h (3 Bft) W-SW 238 0 min 0,000 mm 0,0 UV-I 0 W/m 5,9 C 5,6 C 29,0 km/h (5 Bft) 100,00 %
23.02.2017 03:24 10,7 C 72 % 1007,9 hPa 0,0 l/m 17,6 km/h (3 Bft) W-NW 299 0 min 0,000 mm 0,0 UV-I 0 W/m 5,9 C 5,0 C 20,9 km/h (4 Bft) 98,31 %
23.02.2017 03:26 10,7 C 72 % 1007,9 hPa 0,0 l/m 15,2 km/h (3 Bft) W 269 0 min 0,000 mm 0,0 UV-I 0 W/m 5,9 C 5,9 C 25,7 km/h (4 Bft) 100,00 %
23.02.2017 03:28 10,7 C 72 % 1007,9 hPa 0,0 l/m 14,4 km/h (3 Bft) W-NW 286 0 min 0,000 mm 0,0 UV-I 0 W/m 5,9 C 6,2 C 22,5 km/h (4 Bft) 97,56 %
23.02.2017 03:30 10,7 C 72 % 1007,9 hPa 0,0 l/m 14,8 km/h (3 Bft) W-SW 240 0 min 0,000 mm 0,0 UV-I 0 W/m 5,9 C 6,1 C 29,0 km/h (5 Bft) 96,61 %
23.02.2017 03:32 10,7 C 71 % 1007,9 hPa 0,0 l/m 24,3 km/h (4 Bft) W 260 0 min 0,000 mm 0,0 UV-I 0 W/m 5,7 C 3,0 C 32,2 km/h (5 Bft) 100,00 %
23.02.2017 03:34 10,7 C 71 % 1007,9 hPa 0,0 l/m 15,8 km/h (3 Bft) W-SW 251 0 min 0,000 mm 0,0 UV-I 0 W/m 5,7 C 5,7 C 22,5 km/h (4 Bft) 97,87 %
23.02.2017 03:36 10,7 C 71 % 1007,9 hPa 0,0 l/m 18,6 km/h (3 Bft) W 275 0 min 0,000 mm 0,0 UV-I 0 W/m 5,7 C 4,6 C 29,0 km/h (5 Bft) 100,00 %
23.02.2017 03:38 10,8 C 71 % 1007,9 hPa 0,0 l/m 16,5 km/h (3 Bft) W-SW 257 0 min 0,000 mm 0,0 UV-I 0 W/m 5,8 C 5,5 C 24,1 km/h (4 Bft) 98,31 %
23.02.2017 03:40 10,8 C 70 % 1008,0 hPa 0,0 l/m 19,3 km/h (3 Bft) SW 232 0 min 0,000 mm 0,0 UV-I 0 W/m 5,6 C 4,5 C 30,6 km/h (5 Bft) 97,73 %
23.02.2017 03:42 10,8 C 70 % 1008,0 hPa 0,0 l/m 17,7 km/h (3 Bft) W-SW 250 0 min 0,000 mm 0,0 UV-I 0 W/m 5,6 C 5,1 C 29,0 km/h (5 Bft) 98,11 %
23.02.2017 03:44 10,8 C 70 % 1007,9 hPa 0,0 l/m 16,2 km/h (3 Bft) W-SW 248 0 min 0,000 mm 0,0 UV-I 0 W/m 5,6 C 5,6 C 25,7 km/h (4 Bft) 97,56 %
23.02.2017 03:46 10,8 C 70 % 1007,9 hPa 0,0 l/m 14,3 km/h (3 Bft) W 265 0 min 0,000 mm 0,0 UV-I 0 W/m 5,6 C 6,4 C 19,3 km/h (3 Bft) 100,00 %
23.02.2017 03:48 10,8 C 70 % 1008,0 hPa 0,0 l/m 17,0 km/h (3 Bft) W 275 0 min 0,000 mm 0,0 UV-I 0 W/m 5,6 C 5,3 C 27,4 km/h (4 Bft) 94,34 %
23.02.2017 03:50 10,8 C 70 % 1007,9 hPa 0,0 l/m 19,4 km/h (3 Bft) W-SW 258 0 min 0,000 mm 0,0 UV-I 0 W/m 5,6 C 4,5 C 30,6 km/h (5 Bft) 100,00 %
23.02.2017 03:52 10,8 C 70 % 1008,0 hPa 0,0 l/m 17,6 km/h (3 Bft) W-SW 250 0 min 0,000 mm 0,0 UV-I 0 W/m 5,6 C 5,1 C 29,0 km/h (5 Bft) 100,00 %
23.02.2017 03:54 10,8 C 69 % 1007,9 hPa 0,0 l/m 14,9 km/h (3 Bft) W 264 0 min 0,000 mm 0,0 UV-I 0 W/m 5,3 C 6,1 C 22,5 km/h (4 Bft) 96,43 %
23.02.2017 03:56 10,8 C 69 % 1008,0 hPa 0,0 l/m 14,4 km/h (3 Bft) W-SW 255 0 min 0,000 mm 0,0 UV-I 0 W/m 5,3 C 6,4 C 25,7 km/h (4 Bft) 100,00 %
23.02.2017 03:58 10,8 C 69 % 1008,0 hPa 0,0 l/m 16,5 km/h (3 Bft) W 272 0 min 0,000 mm 0,0 UV-I 0 W/m 5,3 C 5,5 C 25,7 km/h (4 Bft) 98,21 %
23.02.2017 04:00 10,8 C 69 % 1008,0 hPa 0,0 l/m 15,0 km/h (3 Bft) W 280 0 min 0,051 mm 0,0 UV-I 0 W/m 5,3 C 6,1 C 25,7 km/h (4 Bft) 100,00 %
23.02.2017 04:02 10,8 C 69 % 1008,0 hPa 0,0 l/m 13,6 km/h (3 Bft) W-SW 246 0 min 0,000 mm 0,0 UV-I 0 W/m 5,3 C 6,7 C 16,1 km/h (3 Bft) 94,29 %
23.02.2017 04:04 10,8 C 69 % 1008,0 hPa 0,0 l/m 15,7 km/h (3 Bft) W-SW 241 0 min 0,000 mm 0,0 UV-I 0 W/m 5,3 C 5,8 C 24,1 km/h (4 Bft) 97,87 %
23.02.2017 04:06 10,8 C 69 % 1008,0 hPa 0,0 l/m 15,5 km/h (3 Bft) W 276 0 min 0,000 mm 0,0 UV-I 0 W/m 5,3 C 5,9 C 25,7 km/h (4 Bft) 97,87 %
23.02.2017 04:08 10,8 C 69 % 1007,9 hPa 0,0 l/m 14,6 km/h (3 Bft) W-SW 254 0 min 0,000 mm 0,0 UV-I 0 W/m 5,3 C 6,3 C 22,5 km/h (4 Bft) 100,00 %
23.02.2017 04:10 10,8 C 69 % 1008,0 hPa 0,0 l/m 15,4 km/h (3 Bft) W-SW 239 0 min 0,000 mm 0,0 UV-I 0 W/m 5,3 C 5,9 C 20,9 km/h (4 Bft) 100,00 %
23.02.2017 04:12 10,8 C 69 % 1007,9 hPa 0,0 l/m 16,3 km/h (3 Bft) W-SW 248 0 min 0,000 mm 0,0 UV-I 0 W/m 5,3 C 5,6 C 20,9 km/h (4 Bft) 97,78 %
23.02.2017 04:14 10,8 C 69 % 1007,9 hPa 0,0 l/m 18,3 km/h (3 Bft) W 265 0 min 0,000 mm 0,0 UV-I 0 W/m 5,3 C 4,9 C 29,0 km/h (5 Bft) 95,45 %
23.02.2017 04:16 10,8 C 69 % 1007,8 hPa 0,0 l/m 16,2 km/h (3 Bft) W 264 0 min 0,000 mm 0,0 UV-I 0 W/m 5,3 C 5,6 C 24,1 km/h (4 Bft) 100,00 %
23.02.2017 04:18 10,8 C 69 % 1007,8 hPa 0,0 l/m 19,9 km/h (4 Bft) S-SW 210 0 min 0,000 mm 0,0 UV-I 0 W/m 5,3 C 4,4 C 30,6 km/h (5 Bft) 97,44 %
23.02.2017 04:20 10,8 C 69 % 1007,8 hPa 0,0 l/m 14,6 km/h (3 Bft) W-SW 251 0 min 0,000 mm 0,0 UV-I 0 W/m 5,3 C 6,3 C 22,5 km/h (4 Bft) 98,11 %
23.02.2017 04:22 10,7 C 69 % 1007,8 hPa 0,0 l/m 15,4 km/h (3 Bft) S-SW 200 0 min 0,000 mm 0,0 UV-I 0 W/m 5,2 C 5,8 C 22,5 km/h (4 Bft) 97,44 %
23.02.2017 04:24 10,7 C 69 % 1007,9 hPa 0,0 l/m 15,1 km/h (3 Bft) W 263 0 min 0,000 mm 0,0 UV-I 0 W/m 5,2 C 5,9 C 20,9 km/h (4 Bft) 98,00 %
23.02.2017 04:26 10,7 C 69 % 1007,9 hPa 0,0 l/m 13,0 km/h (3 Bft) W 263 0 min 0,000 mm 0,0 UV-I 0 W/m 5,2 C 6,8 C 16,1 km/h (3 Bft) 97,56 %
23.02.2017 04:28 10,7 C 69 % 1007,8 hPa 0,0 l/m 12,3 km/h (3 Bft) W-SW 245 0 min 0,000 mm 0,0 UV-I 0 W/m 5,2 C 7,2 C 17,7 km/h (3 Bft) 98,11 %
23.02.2017 04:30 10,7 C 70 % 1007,9 hPa 0,0 l/m 13,9 km/h (3 Bft) W-SW 237 0 min 0,000 mm 0,0 UV-I 0 W/m 5,5 C 6,4 C 20,9 km/h (4 Bft) 100,00 %
23.02.2017 04:32 10,6 C 70 % 1007,9 hPa 0,0 l/m 14,3 km/h (3 Bft) W-SW 251 0 min 0,000 mm 0,0 UV-I 0 W/m 5,4 C 6,2 C 22,5 km/h (4 Bft) 96,00 %
23.02.2017 04:34 10,6 C 70 % 1007,9 hPa 0,0 l/m 13,5 km/h (3 Bft) W-SW 248 0 min 0,000 mm 0,0 UV-I 0 W/m 5,4 C 6,5 C 19,3 km/h (3 Bft) 96,00 %
23.02.2017 04:36 10,6 C 70 % 1007,9 hPa 0,0 l/m 16,7 km/h (3 Bft) W-SW 244 0 min 0,000 mm 0,0 UV-I 0 W/m 5,4 C 5,2 C 22,5 km/h (4 Bft) 95,74 %
23.02.2017 04:38 10,6 C 70 % 1007,8 hPa 0,0 l/m 13,2 km/h (3 Bft) SW 236 0 min 0,000 mm 0,0 UV-I 0 W/m 5,4 C 6,6 C 19,3 km/h (3 Bft) 97,56 %
23.02.2017 04:40 10,6 C 70 % 1007,9 hPa 0,0 l/m 12,8 km/h (3 Bft) W 264 0 min 0,000 mm 0,0 UV-I 0 W/m 5,4 C 6,8 C 17,7 km/h (3 Bft) 96,00 %
23.02.2017 04:42 10,6 C 70 % 1007,9 hPa 0,0 l/m 14,9 km/h (3 Bft) W-SW 248 0 min 0,000 mm 0,0 UV-I 0 W/m 5,4 C 5,9 C 22,5 km/h (4 Bft) 97,56 %
23.02.2017 04:44 10,6 C 70 % 1007,9 hPa 0,0 l/m 15,4 km/h (3 Bft) W-SW 246 0 min 0,000 mm 0,0 UV-I 0 W/m 5,4 C 5,7 C 19,3 km/h (3 Bft) 94,64 %
23.02.2017 04:46 10,6 C 70 % 1008,0 hPa 0,0 l/m 16,1 km/h (3 Bft) W-SW 241 0 min 0,000 mm 0,0 UV-I 0 W/m 5,4 C 5,4 C 20,9 km/h (4 Bft) 95,74 %
23.02.2017 04:48 10,6 C 70 % 1008,0 hPa 0,0 l/m 14,7 km/h (3 Bft) W-NW 285 0 min 0,000 mm 0,0 UV-I 0 W/m 5,4 C 6,0 C 22,5 km/h (4 Bft) 97,87 %
23.02.2017 04:50 10,6 C 70 % 1007,9 hPa 0,0 l/m 13,9 km/h (3 Bft) W-SW 242 0 min 0,000 mm 0,0 UV-I 0 W/m 5,4 C 6,3 C 20,9 km/h (4 Bft) 95,83 %
23.02.2017 04:52 10,6 C 70 % 1008,0 hPa 0,0 l/m 13,4 km/h (3 Bft) W-SW 254 0 min 0,000 mm 0,0 UV-I 0 W/m 5,4 C 6,5 C 17,7 km/h (3 Bft) 97,01 %
23.02.2017 04:54 10,5 C 71 % 1007,9 hPa 0,0 l/m 9,5 km/h (2 Bft) W-SW 258 0 min 0,000 mm 0,0 UV-I 0 W/m 5,5 C 8,4 C 16,1 km/h (3 Bft) 97,62 %
23.02.2017 04:56 10,5 C 71 % 1007,9 hPa 0,0 l/m 12,6 km/h (3 Bft) SW 220 0 min 0,000 mm 0,0 UV-I 0 W/m 5,5 C 6,8 C 16,1 km/h (3 Bft) 93,18 %
23.02.2017 04:58 10,5 C 71 % 1007,9 hPa 0,0 l/m 13,6 km/h (3 Bft) W 277 0 min 0,000 mm 0,0 UV-I 0 W/m 5,5 C 6,3 C 19,3 km/h (3 Bft) 96,43 %
23.02.2017 05:00 10,6 C 70 % 1007,9 hPa 0,0 l/m 15,8 km/h (3 Bft) W-SW 253 0 min 0,051 mm 0,0 UV-I 0 W/m 5,4 C 5,5 C 24,1 km/h (4 Bft) 94,87 %
23.02.2017 05:02 10,6 C 70 % 1007,9 hPa 0,0 l/m 18,4 km/h (3 Bft) W-SW 255 0 min 0,000 mm 0,0 UV-I 0 W/m 5,4 C 4,6 C 24,1 km/h (4 Bft) 96,43 %
23.02.2017 05:04 10,6 C 70 % 1007,9 hPa 0,0 l/m 11,8 km/h (2 Bft) W-SW 252 0 min 0,000 mm 0,0 UV-I 0 W/m 5,4 C 7,3 C 19,3 km/h (3 Bft) 94,74 %
23.02.2017 05:06 10,6 C 70 % 1007,9 hPa 0,0 l/m 14,0 km/h (3 Bft) SW 218 0 min 0,000 mm 0,0 UV-I 0 W/m 5,4 C 6,3 C 19,3 km/h (3 Bft) 100,00 %
23.02.2017 05:08 10,6 C 71 % 1007,8 hPa 0,0 l/m 12,0 km/h (2 Bft) W-SW 251 0 min 0,000 mm 0,0 UV-I 0 W/m 5,6 C 7,2 C 19,3 km/h (3 Bft) 94,29 %
23.02.2017 05:10 10,5 C 71 % 1007,8 hPa 0,0 l/m 10,3 km/h (2 Bft) SW 236 0 min 0,000 mm 0,0 UV-I 0 W/m 5,5 C 8,0 C 14,5 km/h (3 Bft) 98,00 %
23.02.2017 05:12 10,4 C 72 % 1007,8 hPa 0,0 l/m 9,8 km/h (2 Bft) SW 227 0 min 0,000 mm 0,0 UV-I 0 W/m 5,6 C 8,2 C 12,9 km/h (3 Bft) 98,11 %
23.02.2017 05:14 10,3 C 72 % 1007,8 hPa 0,0 l/m 9,8 km/h (2 Bft) SW 234 0 min 0,000 mm 0,0 UV-I 0 W/m 5,5 C 8,0 C 16,1 km/h (3 Bft) 96,00 %
23.02.2017 05:16 10,2 C 72 % 1007,8 hPa 0,0 l/m 9,6 km/h (2 Bft) W-SW 244 0 min 0,000 mm 0,0 UV-I 0 W/m 5,4 C 8,0 C 14,5 km/h (3 Bft) 97,56 %
23.02.2017 05:18 10,2 C 73 % 1007,8 hPa 0,0 l/m 8,6 km/h (2 Bft) SW 229 0 min 0,000 mm 0,0 UV-I 0 W/m 5,6 C 8,7 C 16,1 km/h (3 Bft) 100,00 %
23.02.2017 05:20 10,1 C 73 % 1007,8 hPa 0,0 l/m 11,3 km/h (2 Bft) SW 227 0 min 0,000 mm 0,0 UV-I 0 W/m 5,5 C 7,0 C 16,1 km/h (3 Bft) 97,37 %
23.02.2017 05:22 10,1 C 73 % 1007,8 hPa 0,0 l/m 14,1 km/h (3 Bft) SW 232 0 min 0,000 mm 0,0 UV-I 0 W/m 5,5 C 5,6 C 19,3 km/h (3 Bft) 100,00 %
23.02.2017 05:24 10,1 C 73 % 1007,8 hPa 0,0 l/m 15,4 km/h (3 Bft) W 281 0 min 0,000 mm 0,0 UV-I 0 W/m 5,5 C 5,1 C 29,0 km/h (5 Bft) 100,00 %
23.02.2017 05:26 10,1 C 73 % 1007,8 hPa 0,0 l/m 11,0 km/h (2 Bft) SW 221 0 min 0,000 mm 0,0 UV-I 0 W/m 5,5 C 7,1 C 16,1 km/h (3 Bft) 100,00 %
23.02.2017 05:28 10,1 C 73 % 1007,8 hPa 0,0 l/m 10,6 km/h (2 Bft) W-NW 290 0 min 0,000 mm 0,0 UV-I 0 W/m 5,5 C 7,4 C 16,1 km/h (3 Bft) 100,00 %
23.02.2017 05:30 10,2 C 73 % 1007,9 hPa 0,0 l/m 12,3 km/h (3 Bft) W-SW 258 0 min 0,000 mm 0,0 UV-I 0 W/m 5,6 C 6,6 C 19,3 km/h (3 Bft) 98,11 %
23.02.2017 05:32 10,2 C 73 % 1007,8 hPa 0,0 l/m 11,6 km/h (2 Bft) W-SW 240 0 min 0,000 mm 0,0 UV-I 0 W/m 5,6 C 6,9 C 16,1 km/h (3 Bft) 100,00 %
23.02.2017 05:34 10,2 C 73 % 1007,9 hPa 0,0 l/m 9,7 km/h (2 Bft) W-SW 252 0 min 0,000 mm 0,0 UV-I 0 W/m 5,6 C 8,0 C 12,9 km/h (3 Bft) 98,11 %
23.02.2017 05:36 10,2 C 73 % 1007,9 hPa 0,0 l/m 9,7 km/h (2 Bft) W-SW 238 0 min 0,000 mm 0,0 UV-I 0 W/m 5,6 C 8,0 C 14,5 km/h (3 Bft) 100,00 %
23.02.2017 05:38 10,2 C 73 % 1007,9 hPa 0,0 l/m 11,1 km/h (2 Bft) SW 232 0 min 0,000 mm 0,0 UV-I 0 W/m 5,6 C 7,2 C 16,1 km/h (3 Bft) 98,00 %
23.02.2017 05:40 10,1 C 73 % 1007,9 hPa 0,0 l/m 9,3 km/h (2 Bft) W-SW 242 0 min 0,000 mm 0,0 UV-I 0 W/m 5,5 C 8,1 C 14,5 km/h (3 Bft) 100,00 %
23.02.2017 05:42 10,1 C 73 % 1007,9 hPa 0,0 l/m 9,9 km/h (2 Bft) SW 235 0 min 0,000 mm 0,0 UV-I 0 W/m 5,5 C 7,8 C 14,5 km/h (3 Bft) 98,00 %
23.02.2017 05:44 10,0 C 74 % 1007,9 hPa 0,0 l/m 9,1 km/h (2 Bft) W-SW 237 0 min 0,000 mm 0,0 UV-I 0 W/m 5,6 C 8,1 C 14,5 km/h (3 Bft) 97,87 %
23.02.2017 05:46 10,0 C 74 % 1007,9 hPa 0,0 l/m 7,8 km/h (2 Bft) W-SW 244 0 min 0,000 mm 0,0 UV-I 0 W/m 5,6 C 9,0 C 12,9 km/h (3 Bft) 100,00 %
23.02.2017 05:48 9,9 C 74 % 1007,9 hPa 0,0 l/m 7,6 km/h (2 Bft) W-SW 249 0 min 0,000 mm 0,0 UV-I 0 W/m 5,5 C 9,0 C 11,3 km/h (2 Bft) 100,00 %
23.02.2017 05:50 9,9 C 74 % 1007,8 hPa 0,0 l/m 9,4 km/h (2 Bft) SW 223 0 min 0,000 mm 0,0 UV-I 0 W/m 5,5 C 7,8 C 16,1 km/h (3 Bft) 97,37 %
23.02.2017 05:52 9,9 C 74 % 1007,9 hPa 0,0 l/m 9,2 km/h (2 Bft) S-SW 192 0 min 0,000 mm 0,0 UV-I 0 W/m 5,5 C 8,0 C 14,5 km/h (3 Bft) 96,23 %
23.02.2017 05:54 9,9 C 74 % 1007,9 hPa 0,0 l/m 8,9 km/h (2 Bft) SW 215 0 min 0,000 mm 0,0 UV-I 0 W/m 5,5 C 8,2 C 12,9 km/h (3 Bft) 97,56 %
23.02.2017 05:56 9,9 C 74 % 1007,8 hPa 0,0 l/m 8,8 km/h (2 Bft) SW 215 0 min 0,000 mm 0,0 UV-I 0 W/m 5,5 C 8,2 C 12,9 km/h (3 Bft) 98,11 %
23.02.2017 05:58 9,9 C 74 % 1007,7 hPa 0,0 l/m 10,7 km/h (2 Bft) S-SW 203 0 min 0,000 mm 0,0 UV-I 0 W/m 5,5 C 7,1 C 16,1 km/h (3 Bft) 97,56 %
23.02.2017 06:00 9,9 C 74 % 1007,7 hPa 0,0 l/m 11,6 km/h (2 Bft) SW 223 0 min 0,025 mm 0,0 UV-I 0 W/m 5,5 C 6,6 C 19,3 km/h (3 Bft) 96,00 %
23.02.2017 06:02 9,9 C 73 % 1007,7 hPa 0,0 l/m 11,7 km/h (2 Bft) SW 232 0 min 0,000 mm 0,0 UV-I 0 W/m 5,3 C 6,6 C 20,9 km/h (4 Bft) 97,87 %
23.02.2017 06:04 9,9 C 73 % 1007,7 hPa 0,0 l/m 13,4 km/h (3 Bft) SW 234 0 min 0,000 mm 0,0 UV-I 0 W/m 5,3 C 5,7 C 22,5 km/h (4 Bft) 97,73 %
23.02.2017 06:06 10,0 C 73 % 1007,8 hPa 0,0 l/m 16,3 km/h (3 Bft) W-SW 240 0 min 0,000 mm 0,0 UV-I 0 W/m 5,4 C 4,6 C 25,7 km/h (4 Bft) 91,07 %
23.02.2017 06:08 10,1 C 73 % 1007,7 hPa 0,0 l/m 9,9 km/h (2 Bft) S-SW 213 0 min 0,000 mm 0,0 UV-I 0 W/m 5,5 C 7,8 C 17,7 km/h (3 Bft) 94,87 %
23.02.2017 06:10 10,1 C 72 % 1007,7 hPa 0,0 l/m 18,7 km/h (3 Bft) W-SW 244 0 min 0,000 mm 0,0 UV-I 0 W/m 5,3 C 3,9 C 29,0 km/h (5 Bft) 94,74 %
23.02.2017 06:12 10,2 C 72 % 1007,7 hPa 0,0 l/m 16,6 km/h (3 Bft) W-SW 239 0 min 0,000 mm 0,0 UV-I 0 W/m 5,4 C 4,7 C 24,1 km/h (4 Bft) 98,28 %
23.02.2017 06:14 10,2 C 72 % 1007,7 hPa 0,0 l/m 15,4 km/h (3 Bft) W-SW 242 0 min 0,000 mm 0,0 UV-I 0 W/m 5,4 C 5,2 C 19,3 km/h (3 Bft) 92,31 %
23.02.2017 06:16 10,1 C 72 % 1007,7 hPa 0,0 l/m 16,0 km/h (3 Bft) S-SW 213 0 min 0,000 mm 0,0 UV-I 0 W/m 5,3 C 4,8 C 24,1 km/h (4 Bft) 98,00 %
23.02.2017 06:18 10,1 C 72 % 1007,8 hPa 0,0 l/m 17,0 km/h (3 Bft) SW 219 0 min 0,000 mm 0,0 UV-I 0 W/m 5,3 C 4,5 C 24,1 km/h (4 Bft) 100,00 %
23.02.2017 06:20 10,2 C 72 % 1007,7 hPa 0,0 l/m 21,0 km/h (4 Bft) SW 236 0 min 0,000 mm 0,0 UV-I 0 W/m 5,4 C 3,2 C 33,8 km/h (5 Bft) 100,00 %
23.02.2017 06:22 10,2 C 71 % 1007,7 hPa 0,0 l/m 21,1 km/h (4 Bft) SW 225 0 min 0,000 mm 0,0 UV-I 0 W/m 5,2 C 3,2 C 32,2 km/h (5 Bft) 100,00 %
23.02.2017 06:24 10,3 C 70 % 1007,7 hPa 0,0 l/m 15,7 km/h (3 Bft) SW 236 0 min 0,000 mm 0,0 UV-I 0 W/m 5,1 C 5,2 C 20,9 km/h (4 Bft) 96,23 %
23.02.2017 06:26 10,3 C 70 % 1007,6 hPa 0,0 l/m 13,0 km/h (3 Bft) W-SW 245 0 min 0,000 mm 0,0 UV-I 0 W/m 5,1 C 6,4 C 17,7 km/h (3 Bft) 97,56 %
23.02.2017 06:28 10,3 C 70 % 1007,6 hPa 0,0 l/m 11,8 km/h (2 Bft) W 263 0 min 0,000 mm 0,0 UV-I 0 W/m 5,1 C 7,0 C 17,7 km/h (3 Bft) 100,00 %
23.02.2017 06:30 10,3 C 70 % 1007,7 hPa 0,0 l/m 14,9 km/h (3 Bft) SW 227 0 min 0,000 mm 0,0 UV-I 0 W/m 5,1 C 5,5 C 20,9 km/h (4 Bft) 97,56 %
23.02.2017 06:32 10,3 C 70 % 1007,7 hPa 0,0 l/m 12,3 km/h (3 Bft) S-SW 213 0 min 0,000 mm 0,0 UV-I 0 W/m 5,1 C 6,7 C 17,7 km/h (3 Bft) 96,23 %
23.02.2017 06:34 10,2 C 70 % 1007,7 hPa 0,0 l/m 13,9 km/h (3 Bft) W-SW 256 0 min 0,000 mm 0,0 UV-I 0 W/m 5,0 C 5,8 C 20,9 km/h (4 Bft) 97,73 %
23.02.2017 06:36 10,3 C 70 % 1007,8 hPa 0,0 l/m 17,9 km/h (3 Bft) SW 231 0 min 0,000 mm 0,0 UV-I 0 W/m 5,1 C 4,4 C 25,7 km/h (4 Bft) 100,00 %
23.02.2017 06:38 10,3 C 70 % 1007,8 hPa 0,0 l/m 13,8 km/h (3 Bft) W-SW 256 0 min 0,000 mm 0,0 UV-I 0 W/m 5,1 C 6,0 C 17,7 km/h (3 Bft) 96,43 %
23.02.2017 06:40 10,3 C 70 % 1007,9 hPa 0,0 l/m 16,1 km/h (3 Bft) W 265 0 min 0,000 mm 0,0 UV-I 0 W/m 5,1 C 5,1 C 22,5 km/h (4 Bft) 97,73 %
23.02.2017 06:42 10,3 C 70 % 1007,8 hPa 0,0 l/m 13,5 km/h (3 Bft) W-SW 248 0 min 0,000 mm 0,0 UV-I 0 W/m 5,1 C 6,1 C 20,9 km/h (4 Bft) 95,45 %
23.02.2017 06:44 10,3 C 70 % 1007,8 hPa 0,0 l/m 14,7 km/h (3 Bft) W-SW 246 0 min 0,000 mm 0,0 UV-I 0 W/m 5,1 C 5,6 C 22,5 km/h (4 Bft) 95,74 %
23.02.2017 06:46 10,3 C 70 % 1007,8 hPa 0,0 l/m 14,6 km/h (3 Bft) SW 221 0 min 0,000 mm 0,0 UV-I 0 W/m 5,1 C 5,7 C 20,9 km/h (4 Bft) 98,11 %
23.02.2017 06:48 10,3 C 70 % 1007,8 hPa 0,0 l/m 14,3 km/h (3 Bft) W-SW 237 0 min 0,000 mm 0,0 UV-I 0 W/m 5,1 C 5,8 C 19,3 km/h (3 Bft) 94,44 %
23.02.2017 06:50 10,3 C 70 % 1007,8 hPa 0,0 l/m 14,7 km/h (3 Bft) SW 225 0 min 0,000 mm 0,0 UV-I 0 W/m 5,1 C 5,6 C 22,5 km/h (4 Bft) 96,15 %
23.02.2017 06:52 10,3 C 70 % 1007,9 hPa 0,0 l/m 11,5 km/h (2 Bft) W-SW 251 0 min 0,000 mm 0,0 UV-I 5 W/m 5,1 C 7,1 C 17,7 km/h (3 Bft) 96,00 %
23.02.2017 06:54 10,3 C 70 % 1007,9 hPa 0,0 l/m 14,3 km/h (3 Bft) W-SW 240 0 min 0,000 mm 0,0 UV-I 5 W/m 5,1 C 5,8 C 19,3 km/h (3 Bft) 95,24 %
23.02.2017 06:56 10,3 C 70 % 1007,9 hPa 0,0 l/m 13,1 km/h (3 Bft) W 259 0 min 0,000 mm 0,0 UV-I 5 W/m 5,1 C 6,3 C 22,5 km/h (4 Bft) 95,45 %
23.02.2017 06:58 10,2 C 70 % 1007,9 hPa 0,0 l/m 13,0 km/h (3 Bft) W-SW 251 0 min 0,000 mm 0,0 UV-I 5 W/m 5,0 C 6,3 C 22,5 km/h (4 Bft) 94,34 %
23.02.2017 07:00 10,2 C 70 % 1007,9 hPa 0,0 l/m 17,8 km/h (3 Bft) SW 231 0 min 0,051 mm 0,0 UV-I 5 W/m 5,0 C 4,3 C 24,1 km/h (4 Bft) 93,62 %
23.02.2017 07:02 10,3 C 69 % 1007,9 hPa 0,0 l/m 16,4 km/h (3 Bft) W-SW 253 0 min 0,000 mm 0,0 UV-I 7 W/m 4,9 C 4,9 C 25,7 km/h (4 Bft) 94,00 %
23.02.2017 07:04 10,3 C 69 % 1007,9 hPa 0,0 l/m 14,1 km/h (3 Bft) W 263 0 min 0,000 mm 0,0 UV-I 7 W/m 4,9 C 5,9 C 19,3 km/h (3 Bft) 94,29 %
23.02.2017 07:06 10,3 C 69 % 1007,9 hPa 0,0 l/m 16,9 km/h (3 Bft) W 268 0 min 0,000 mm 0,0 UV-I 9 W/m 4,9 C 4,7 C 32,2 km/h (5 Bft) 94,34 %
23.02.2017 07:08 10,3 C 69 % 1007,9 hPa 0,0 l/m 13,4 km/h (3 Bft) W-SW 258 0 min 0,000 mm 0,0 UV-I 10 W/m 4,9 C 6,2 C 20,9 km/h (4 Bft) 95,12 %
23.02.2017 07:10 10,3 C 69 % 1007,9 hPa 0,0 l/m 14,2 km/h (3 Bft) W-SW 247 0 min 0,000 mm 0,0 UV-I 11 W/m 4,9 C 5,8 C 25,7 km/h (4 Bft) 94,74 %
23.02.2017 07:12 10,3 C 69 % 1007,9 hPa 0,0 l/m 17,3 km/h (3 Bft) SW 231 0 min 0,000 mm 0,0 UV-I 12 W/m 4,9 C 4,6 C 24,1 km/h (4 Bft) 95,38 %
23.02.2017 07:14 10,3 C 69 % 1007,9 hPa 0,0 l/m 17,4 km/h (3 Bft) W-SW 258 0 min 0,000 mm 0,0 UV-I 14 W/m 4,9 C 4,6 C 24,1 km/h (4 Bft) 97,37 %
23.02.2017 07:16 10,3 C 68 % 1007,9 hPa 0,0 l/m 14,7 km/h (3 Bft) W 267 0 min 0,000 mm 0,0 UV-I 15 W/m 4,7 C 5,6 C 24,1 km/h (4 Bft) 100,00 %
23.02.2017 07:18 10,3 C 68 % 1007,9 hPa 0,0 l/m 17,9 km/h (3 Bft) W 261 0 min 0,000 mm 0,0 UV-I 17 W/m 4,7 C 4,4 C 27,4 km/h (4 Bft) 97,73 %
23.02.2017 07:20 10,3 C 68 % 1007,9 hPa 0,0 l/m 16,9 km/h (3 Bft) W-SW 246 0 min 0,000 mm 0,0 UV-I 18 W/m 4,7 C 4,7 C 22,5 km/h (4 Bft) 92,00 %
23.02.2017 07:22 10,3 C 68 % 1007,9 hPa 0,0 l/m 20,7 km/h (4 Bft) W-SW 246 0 min 0,000 mm 0,0 UV-I 19 W/m 4,7 C 3,5 C 30,6 km/h (5 Bft) 98,00 %
23.02.2017 07:24 10,4 C 68 % 1007,9 hPa 0,0 l/m 16,4 km/h (3 Bft) SW 225 0 min 0,000 mm 0,0 UV-I 22 W/m 4,8 C 5,1 C 25,7 km/h (4 Bft) 97,56 %
23.02.2017 07:26 10,4 C 68 % 1007,9 hPa 0,0 l/m 12,7 km/h (3 Bft) W 270 0 min 0,000 mm 0,0 UV-I 24 W/m 4,8 C 6,6 C 17,7 km/h (3 Bft) 98,00 %
23.02.2017 07:28 10,3 C 68 % 1007,9 hPa 0,0 l/m 15,6 km/h (3 Bft) SW 235 0 min 0,000 mm 0,0 UV-I 26 W/m 4,7 C 5,3 C 25,7 km/h (4 Bft) 95,74 %
23.02.2017 07:30 10,3 C 68 % 1008,0 hPa 0,0 l/m 15,7 km/h (3 Bft) W-SW 245 0 min 0,000 mm 0,0 UV-I 30 W/m 4,7 C 5,2 C 20,9 km/h (4 Bft) 97,87 %
23.02.2017 07:32 10,3 C 68 % 1007,9 hPa 0,0 l/m 14,3 km/h (3 Bft) SW 227 0 min 0,000 mm 0,0 UV-I 34 W/m 4,7 C 5,8 C 19,3 km/h (3 Bft) 100,00 %
23.02.2017 07:34 10,3 C 68 % 1007,9 hPa 0,0 l/m 14,2 km/h (3 Bft) W-SW 256 0 min 0,000 mm 0,0 UV-I 38 W/m 4,7 C 5,8 C 20,9 km/h (4 Bft) 100,00 %
23.02.2017 07:36 10,2 C 68 % 1007,9 hPa 0,0 l/m 15,0 km/h (3 Bft) W-SW 244 0 min 0,000 mm 0,0 UV-I 43 W/m 4,6 C 5,4 C 25,7 km/h (4 Bft) 96,43 %
23.02.2017 07:38 10,2 C 68 % 1007,9 hPa 0,0 l/m 13,8 km/h (3 Bft) SW 215 0 min 0,000 mm 0,0 UV-I 48 W/m 4,6 C 5,9 C 19,3 km/h (3 Bft) 97,37 %
23.02.2017 07:40 10,2 C 68 % 1007,9 hPa 0,0 l/m 16,8 km/h (3 Bft) SW 229 0 min 0,000 mm 0,0 UV-I 50 W/m 4,6 C 4,7 C 22,5 km/h (4 Bft) 97,73 %
23.02.2017 07:42 10,2 C 68 % 1008,0 hPa 0,0 l/m 20,1 km/h (4 Bft) W-SW 249 0 min 0,000 mm 0,0 UV-I 52 W/m 4,6 C 3,5 C 35,4 km/h (5 Bft) 96,43 %
23.02.2017 07:44 10,2 C 67 % 1008,0 hPa 0,0 l/m 22,7 km/h (4 Bft) W-SW 237 0 min 0,000 mm 0,0 UV-I 51 W/m 4,4 C 2,7 C 38,6 km/h (5 Bft) 100,00 %
23.02.2017 07:46 10,3 C 67 % 1008,0 hPa 0,0 l/m 22,2 km/h (4 Bft) W 265 0 min 0,000 mm 0,0 UV-I 53 W/m 4,4 C 3,0 C 32,2 km/h (5 Bft) 98,00 %
23.02.2017 07:48 10,3 C 66 % 1008,0 hPa 0,0 l/m 18,5 km/h (3 Bft) W 263 0 min 0,000 mm 0,0 UV-I 53 W/m 4,2 C 4,2 C 30,6 km/h (5 Bft) 100,00 %
23.02.2017 07:50 10,3 C 67 % 1008,0 hPa 0,0 l/m 15,8 km/h (3 Bft) W-SW 257 0 min 0,000 mm 0,0 UV-I 51 W/m 4,4 C 5,2 C 25,7 km/h (4 Bft) 98,11 %
23.02.2017 07:52 10,3 C 66 % 1008,0 hPa 0,0 l/m 20,9 km/h (4 Bft) W 265 0 min 0,000 mm 0,0 UV-I 50 W/m 4,2 C 3,4 C 32,2 km/h (5 Bft) 97,56 %
23.02.2017 07:54 10,3 C 66 % 1008,1 hPa 0,0 l/m 17,2 km/h (3 Bft) W-SW 246 0 min 0,000 mm 0,0 UV-I 47 W/m 4,2 C 4,6 C 25,7 km/h (4 Bft) 94,34 %
23.02.2017 07:56 10,3 C 66 % 1008,1 hPa 0,0 l/m 14,0 km/h (3 Bft) S-SW 194 0 min 0,000 mm 0,0 UV-I 47 W/m 4,2 C 5,9 C 19,3 km/h (3 Bft) 100,00 %
23.02.2017 07:58 10,3 C 66 % 1008,1 hPa 0,0 l/m 19,3 km/h (3 Bft) W-SW 249 0 min 0,000 mm 0,0 UV-I 50 W/m 4,2 C 3,9 C 30,6 km/h (5 Bft) 100,00 %
23.02.2017 08:00 10,2 C 67 % 1008,2 hPa 0,0 l/m 17,8 km/h (3 Bft) W-SW 257 0 min 0,000 mm 0,0 UV-I 56 W/m 4,4 C 4,3 C 25,7 km/h (4 Bft) 97,56 %
23.02.2017 08:02 10,2 C 66 % 1008,1 hPa 0,0 l/m 17,7 km/h (3 Bft) W 279 0 min 0,076 mm 0,0 UV-I 67 W/m 4,1 C 4,3 C 24,1 km/h (4 Bft) 97,62 %
23.02.2017 08:04 10,2 C 67 % 1008,1 hPa 0,0 l/m 18,4 km/h (3 Bft) W 262 2 min 0,000 mm 0,0 UV-I 135 W/m 4,4 C 4,1 C 27,4 km/h (4 Bft) 98,18 %
23.02.2017 08:06 10,3 C 67 % 1008,2 hPa 0,0 l/m 19,8 km/h (3 Bft) W-SW 252 2 min 0,000 mm 0,0 UV-I 134 W/m 4,4 C 3,7 C 30,6 km/h (5 Bft) 92,86 %
23.02.2017 08:08 10,3 C 66 % 1008,1 hPa 0,0 l/m 22,2 km/h (4 Bft) W-SW 258 2 min 0,000 mm 0,0 UV-I 135 W/m 4,2 C 3,0 C 33,8 km/h (5 Bft) 94,55 %
23.02.2017 08:10 10,3 C 66 % 1008,1 hPa 0,0 l/m 18,4 km/h (3 Bft) W-SW 254 2 min 0,000 mm 0,0 UV-I 154 W/m 4,2 C 4,2 C 29,0 km/h (5 Bft) 94,87 %
23.02.2017 08:12 10,3 C 66 % 1008,0 hPa 0,0 l/m 16,1 km/h (3 Bft) W 259 2 min 0,000 mm 0,0 UV-I 166 W/m 4,2 C 5,1 C 24,1 km/h (4 Bft) 94,74 %
23.02.2017 08:14 10,4 C 66 % 1008,1 hPa 0,0 l/m 17,6 km/h (3 Bft) W-SW 248 2 min 0,000 mm 0,0 UV-I 161 W/m 4,3 C 4,6 C 22,5 km/h (4 Bft) 97,06 %
23.02.2017 08:16 10,4 C 66 % 1008,1 hPa 0,0 l/m 14,7 km/h (3 Bft) SW 219 2 min 0,000 mm 0,0 UV-I 120 W/m 4,3 C 5,7 C 19,3 km/h (3 Bft) 95,45 %
23.02.2017 08:18 10,4 C 66 % 1008,1 hPa 0,0 l/m 12,3 km/h (3 Bft) W-SW 254 0 min 0,000 mm 0,0 UV-I 110 W/m 4,3 C 6,8 C 20,9 km/h (4 Bft) 97,73 %
23.02.2017 08:20 10,4 C 66 % 1008,1 hPa 0,0 l/m 14,6 km/h (3 Bft) SW 228 0 min 0,000 mm 0,0 UV-I 106 W/m 4,3 C 5,8 C 22,5 km/h (4 Bft) 100,00 %
23.02.2017 08:22 10,4 C 66 % 1008,1 hPa 0,0 l/m 13,9 km/h (3 Bft) SW 231 0 min 0,000 mm 0,0 UV-I 102 W/m 4,3 C 6,1 C 24,1 km/h (4 Bft) 98,21 %
23.02.2017 08:24 10,4 C 65 % 1008,0 hPa 0,0 l/m 15,5 km/h (3 Bft) W-SW 238 0 min 0,000 mm 0,0 UV-I 98 W/m 4,1 C 5,4 C 24,1 km/h (4 Bft) 100,00 %
23.02.2017 08:26 10,4 C 66 % 1008,0 hPa 0,0 l/m 13,2 km/h (3 Bft) SW 219 0 min 0,000 mm 0,0 UV-I 91 W/m 4,3 C 6,4 C 19,3 km/h (3 Bft) 94,00 %
23.02.2017 08:28 10,3 C 66 % 1008,0 hPa 0,0 l/m 16,1 km/h (3 Bft) SW 232 0 min 0,000 mm 0,0 UV-I 88 W/m 4,2 C 5,1 C 29,0 km/h (5 Bft) 92,00 %
23.02.2017 08:30 10,3 C 65 % 1008,0 hPa 0,0 l/m 13,9 km/h (3 Bft) W-SW 258 0 min 0,000 mm 0,0 UV-I 84 W/m 4,0 C 6,0 C 25,7 km/h (4 Bft) 97,37 %
23.02.2017 08:32 10,3 C 65 % 1008,0 hPa 0,0 l/m 11,2 km/h (2 Bft) W-SW 240 0 min 0,000 mm 0,0 UV-I 84 W/m 4,0 C 7,3 C 16,1 km/h (3 Bft) 100,00 %
23.02.2017 08:34 10,4 C 65 % 1007,9 hPa 0,0 l/m 17,0 km/h (3 Bft) W-SW 249 0 min 0,000 mm 0,0 UV-I 84 W/m 4,1 C 4,8 C 25,7 km/h (4 Bft) 95,12 %
23.02.2017 08:36 10,4 C 66 % 1007,9 hPa 0,0 l/m 11,9 km/h (2 Bft) W 269 0 min 0,000 mm 0,0 UV-I 86 W/m 4,3 C 7,0 C 17,7 km/h (3 Bft) 100,00 %
23.02.2017 08:38 10,4 C 65 % 1007,9 hPa 0,0 l/m 15,0 km/h (3 Bft) W-SW 248 0 min 0,000 mm 0,0 UV-I 86 W/m 4,1 C 5,6 C 24,1 km/h (4 Bft) 96,23 %
23.02.2017 08:40 10,4 C 66 % 1008,0 hPa 0,0 l/m 14,6 km/h (3 Bft) W-SW 241 0 min 0,000 mm 0,0 UV-I 89 W/m 4,3 C 5,8 C 20,9 km/h (4 Bft) 97,56 %
23.02.2017 08:42 10,4 C 66 % 1007,8 hPa 0,0 l/m 13,7 km/h (3 Bft) W-SW 242 0 min 0,000 mm 0,0 UV-I 86 W/m 4,3 C 6,2 C 20,9 km/h (4 Bft) 92,00 %
23.02.2017 08:44 10,4 C 66 % 1007,9 hPa 0,0 l/m 13,2 km/h (3 Bft) W 265 0 min 0,000 mm 0,0 UV-I 82 W/m 4,3 C 6,4 C 22,5 km/h (4 Bft) 97,87 %
23.02.2017 08:46 10,4 C 65 % 1007,8 hPa 0,0 l/m 15,7 km/h (3 Bft) SW 227 0 min 0,000 mm 0,0 UV-I 84 W/m 4,1 C 5,3 C 27,4 km/h (4 Bft) 92,68 %
23.02.2017 08:48 10,5 C 65 % 1007,9 hPa 0,0 l/m 15,2 km/h (3 Bft) SW 232 0 min 0,000 mm 0,0 UV-I 84 W/m 4,2 C 5,7 C 27,4 km/h (4 Bft) 92,45 %
23.02.2017 08:50 10,5 C 66 % 1007,8 hPa 0,0 l/m 15,0 km/h (3 Bft) W 262 0 min 0,000 mm 0,0 UV-I 84 W/m 4,4 C 5,7 C 22,5 km/h (4 Bft) 97,62 %
23.02.2017 08:52 10,5 C 65 % 1007,8 hPa 0,0 l/m 21,8 km/h (4 Bft) W-SW 253 0 min 0,000 mm 0,0 UV-I 81 W/m 4,2 C 3,4 C 30,6 km/h (5 Bft) 88,64 %
23.02.2017 08:54 10,6 C 65 % 1007,9 hPa 0,0 l/m 18,0 km/h (3 Bft) W 260 0 min 0,000 mm 0,0 UV-I 78 W/m 4,3 C 4,7 C 32,2 km/h (5 Bft) 96,36 %
23.02.2017 08:56 10,6 C 65 % 1007,9 hPa 0,0 l/m 22,6 km/h (4 Bft) W-SW 250 0 min 0,000 mm 0,0 UV-I 83 W/m 4,3 C 3,3 C 33,8 km/h (5 Bft) 95,74 %
23.02.2017 08:58 10,6 C 65 % 1007,8 hPa 0,0 l/m 16,6 km/h (3 Bft) W 276 0 min 0,000 mm 0,0 UV-I 86 W/m 4,3 C 5,2 C 27,4 km/h (4 Bft) 94,29 %
23.02.2017 09:00 10,6 C 65 % 1007,8 hPa 0,0 l/m 23,2 km/h (4 Bft) W-SW 248 0 min 0,102 mm 0,0 UV-I 95 W/m 4,3 C 3,1 C 37,0 km/h (5 Bft) 98,11 %
23.02.2017 09:02 10,7 C 65 % 1007,7 hPa 0,0 l/m 16,8 km/h (3 Bft) W-SW 252 0 min 0,000 mm 0,0 UV-I 96 W/m 4,4 C 5,3 C 22,5 km/h (4 Bft) 97,56 %
23.02.2017 09:04 10,6 C 65 % 1007,8 hPa 0,0 l/m 17,2 km/h (3 Bft) W 261 0 min 0,000 mm 0,0 UV-I 94 W/m 4,3 C 5,0 C 30,6 km/h (5 Bft) 90,20 %
23.02.2017 09:06 10,6 C 64 % 1007,7 hPa 0,0 l/m 19,8 km/h (3 Bft) W 265 0 min 0,000 mm 0,0 UV-I 91 W/m 4,1 C 4,1 C 29,0 km/h (5 Bft) 95,45 %
23.02.2017 09:08 10,6 C 64 % 1007,7 hPa 0,0 l/m 18,6 km/h (3 Bft) W 259 0 min 0,000 mm 0,0 UV-I 90 W/m 4,1 C 4,5 C 24,1 km/h (4 Bft) 94,00 %
23.02.2017 09:10 10,6 C 64 % 1007,7 hPa 0,0 l/m 17,6 km/h (3 Bft) W-SW 252 0 min 0,000 mm 0,0 UV-I 89 W/m 4,1 C 4,9 C 29,0 km/h (5 Bft) 94,00 %
23.02.2017 09:12 10,6 C 64 % 1007,7 hPa 0,0 l/m 15,0 km/h (3 Bft) W-SW 254 0 min 0,000 mm 0,0 UV-I 89 W/m 4,1 C 5,9 C 22,5 km/h (4 Bft) 97,37 %
23.02.2017 09:14 10,6 C 64 % 1007,7 hPa 0,0 l/m 16,2 km/h (3 Bft) W-SW 238 0 min 0,000 mm 0,0 UV-I 99 W/m 4,1 C 5,4 C 25,7 km/h (4 Bft) 95,74 %
23.02.2017 09:16 10,6 C 65 % 1007,7 hPa 0,0 l/m 17,2 km/h (3 Bft) W 279 0 min 0,000 mm 0,0 UV-I 111 W/m 4,3 C 5,0 C 30,6 km/h (5 Bft) 94,64 %
23.02.2017 09:18 10,6 C 64 % 1007,7 hPa 0,0 l/m 16,0 km/h (3 Bft) W-SW 246 0 min 0,000 mm 0,0 UV-I 124 W/m 4,1 C 5,5 C 22,5 km/h (4 Bft) 97,73 %
23.02.2017 09:20 10,6 C 65 % 1007,6 hPa 0,0 l/m 15,7 km/h (3 Bft) SW 234 0 min 0,000 mm 0,0 UV-I 134 W/m 4,3 C 5,6 C 24,1 km/h (4 Bft) 98,00 %
23.02.2017 09:22 10,6 C 65 % 1007,6 hPa 0,0 l/m 12,7 km/h (3 Bft) W 259 0 min 0,000 mm 0,0 UV-I 131 W/m 4,3 C 6,9 C 17,7 km/h (3 Bft) 97,56 %
23.02.2017 09:24 10,6 C 65 % 1007,6 hPa 0,0 l/m 13,8 km/h (3 Bft) W-SW 255 0 min 0,000 mm 0,0 UV-I 134 W/m 4,3 C 6,4 C 19,3 km/h (3 Bft) 98,00 %
23.02.2017 09:26 10,6 C 65 % 1007,6 hPa 0,0 l/m 14,9 km/h (3 Bft) W-SW 254 0 min 0,000 mm 0,0 UV-I 139 W/m 4,3 C 5,9 C 19,3 km/h (3 Bft) 97,87 %
23.02.2017 09:28 10,6 C 65 % 1007,6 hPa 0,0 l/m 13,2 km/h (3 Bft) W 277 0 min 0,000 mm 0,1 UV-I 145 W/m 4,3 C 6,6 C 17,7 km/h (3 Bft) 95,24 %
23.02.2017 09:30 10,6 C 66 % 1007,6 hPa 0,0 l/m 9,8 km/h (2 Bft) W-SW 255 0 min 0,000 mm 0,5 UV-I 157 W/m 4,5 C 8,4 C 14,5 km/h (3 Bft) 100,00 %
23.02.2017 09:32 10,6 C 66 % 1007,5 hPa 0,0 l/m 9,9 km/h (2 Bft) W-SW 247 0 min 0,000 mm 0,5 UV-I 152 W/m 4,5 C 8,3 C 16,1 km/h (3 Bft) 100,00 %
23.02.2017 09:34 10,6 C 66 % 1007,6 hPa 0,0 l/m 9,1 km/h (2 Bft) W-SW 246 0 min 0,000 mm 0,5 UV-I 142 W/m 4,5 C 8,8 C 14,5 km/h (3 Bft) 100,00 %
23.02.2017 09:36 10,6 C 66 % 1007,4 hPa 0,0 l/m 9,3 km/h (2 Bft) W-SW 257 0 min 0,000 mm 0,5 UV-I 129 W/m 4,5 C 8,7 C 14,5 km/h (3 Bft) 95,12 %
23.02.2017 09:38 10,6 C 67 % 1007,4 hPa 0,0 l/m 8,8 km/h (2 Bft) SW 236 0 min 0,000 mm 0,5 UV-I 131 W/m 4,7 C 9,0 C 12,9 km/h (3 Bft) 100,00 %
23.02.2017 09:40 10,6 C 66 % 1007,4 hPa 0,0 l/m 11,2 km/h (2 Bft) W 259 0 min 0,000 mm 0,5 UV-I 136 W/m 4,5 C 7,6 C 16,1 km/h (3 Bft) 97,73 %
23.02.2017 09:42 10,6 C 67 % 1007,4 hPa 0,0 l/m 5,7 km/h (1 Bft) W 275 0 min 0,000 mm 0,5 UV-I 130 W/m 4,7 C 10,6 C 11,3 km/h (2 Bft) 94,64 %
23.02.2017 09:44 10,6 C 67 % 1007,4 hPa 0,0 l/m 4,0 km/h (1 Bft) W-SW 257 0 min 0,000 mm 0,5 UV-I 127 W/m 4,7 C 10,6 C 6,4 km/h (2 Bft) 94,29 %
23.02.2017 09:46 10,6 C 67 % 1007,4 hPa 0,0 l/m 3,9 km/h (1 Bft) SW 229 0 min 0,000 mm 0,6 UV-I 131 W/m 4,7 C 10,6 C 6,4 km/h (2 Bft) 100,00 %
23.02.2017 09:48 10,6 C 67 % 1007,4 hPa 0,0 l/m 3,8 km/h (1 Bft) W-SW 249 0 min 0,000 mm 0,6 UV-I 128 W/m 4,7 C 10,6 C 6,4 km/h (2 Bft) 98,39 %
23.02.2017 09:50 10,6 C 67 % 1007,4 hPa 0,0 l/m 5,4 km/h (1 Bft) W 263 0 min 0,000 mm 0,6 UV-I 135 W/m 4,7 C 10,6 C 9,7 km/h (2 Bft) 100,00 %
23.02.2017 09:52 10,6 C 66 % 1007,4 hPa 0,0 l/m 7,6 km/h (2 Bft) SW 236 0 min 0,000 mm 0,6 UV-I 145 W/m 4,5 C 9,8 C 11,3 km/h (2 Bft) 95,12 %
23.02.2017 09:54 10,6 C 66 % 1007,3 hPa 0,0 l/m 6,6 km/h (2 Bft) SW 221 0 min 0,000 mm 0,7 UV-I 165 W/m 4,5 C 10,5 C 11,3 km/h (2 Bft) 96,43 %
23.02.2017 09:56 10,6 C 66 % 1007,3 hPa 0,0 l/m 5,6 km/h (1 Bft) SW 231 0 min 0,000 mm 0,7 UV-I 191 W/m 4,5 C 10,6 C 8,0 km/h (2 Bft) 100,00 %
23.02.2017 09:58 10,7 C 66 % 1007,4 hPa 0,0 l/m 4,6 km/h (1 Bft) W-SW 250 0 min 0,000 mm 0,7 UV-I 213 W/m 4,6 C 10,7 C 6,4 km/h (2 Bft) 93,62 %
23.02.2017 10:00 10,7 C 65 % 1007,2 hPa 0,0 l/m 7,1 km/h (2 Bft) SW 225 0 min 0,000 mm 0,7 UV-I 217 W/m 4,4 C 10,2 C 11,3 km/h (2 Bft) 97,14 %
23.02.2017 10:02 10,8 C 66 % 1007,3 hPa 0,0 l/m 5,6 km/h (1 Bft) SW 232 0 min 0,102 mm 0,7 UV-I 210 W/m 4,7 C 10,8 C 8,0 km/h (2 Bft) 94,34 %
23.02.2017 10:04 10,8 C 65 % 1007,3 hPa 0,0 l/m 9,2 km/h (2 Bft) W-SW 244 0 min 0,000 mm 0,7 UV-I 203 W/m 4,5 C 8,9 C 14,5 km/h (3 Bft) 93,62 %
23.02.2017 10:06 10,8 C 65 % 1007,2 hPa 0,0 l/m 7,1 km/h (2 Bft) W-SW 238 0 min 0,000 mm 0,7 UV-I 222 W/m 4,5 C 10,3 C 11,3 km/h (2 Bft) 97,87 %
23.02.2017 10:08 10,8 C 66 % 1007,3 hPa 0,0 l/m 7,9 km/h (2 Bft) W-SW 256 2 min 0,000 mm 0,8 UV-I 254 W/m 4,7 C 9,8 C 12,9 km/h (3 Bft) 95,74 %
23.02.2017 10:10 10,9 C 65 % 1007,2 hPa 0,0 l/m 8,4 km/h (2 Bft) W 265 2 min 0,000 mm 0,8 UV-I 260 W/m 4,6 C 9,5 C 16,1 km/h (3 Bft) 97,92 %
23.02.2017 10:12 11,0 C 65 % 1007,2 hPa 0,0 l/m 5,7 km/h (1 Bft) S-SW 207 2 min 0,000 mm 0,9 UV-I 310 W/m 4,7 C 11,0 C 9,7 km/h (2 Bft) 100,00 %
23.02.2017 10:14 11,2 C 64 % 1007,2 hPa 0,0 l/m 6,9 km/h (2 Bft) W-SW 245 2 min 0,000 mm 1,0 UV-I 400 W/m 4,6 C 10,9 C 12,9 km/h (3 Bft) 100,00 %
23.02.2017 10:16 11,3 C 64 % 1007,2 hPa 0,0 l/m 7,9 km/h (2 Bft) W 262 2 min 0,000 mm 0,9 UV-I 418 W/m 4,7 C 10,3 C 14,5 km/h (3 Bft) 100,00 %
23.02.2017 10:18 11,4 C 64 % 1007,1 hPa 0,0 l/m 5,1 km/h (1 Bft) SW 225 2 min 0,000 mm 0,9 UV-I 309 W/m 4,8 C 11,4 C 8,0 km/h (2 Bft) 100,00 %
23.02.2017 10:20 11,4 C 62 % 1007,1 hPa 0,0 l/m 5,6 km/h (1 Bft) W-SW 253 2 min 0,000 mm 1,0 UV-I 319 W/m 4,4 C 11,4 C 12,9 km/h (3 Bft) 98,00 %
23.02.2017 10:22 11,5 C 64 % 1007,1 hPa 0,0 l/m 3,7 km/h (1 Bft) W-SW 246 2 min 0,000 mm 1,0 UV-I 346 W/m 4,9 C 11,5 C 8,0 km/h (2 Bft) 97,87 %
23.02.2017 10:24 11,6 C 61 % 1007,0 hPa 0,0 l/m 6,9 km/h (2 Bft) W-NW 284 2 min 0,000 mm 1,1 UV-I 454 W/m 4,3 C 11,3 C 11,3 km/h (2 Bft) 95,74 %
23.02.2017 10:26 11,7 C 62 % 1007,0 hPa 0,0 l/m 6,6 km/h (2 Bft) W 263 2 min 0,000 mm 1,2 UV-I 511 W/m 4,7 C 11,6 C 16,1 km/h (3 Bft) 95,74 %
23.02.2017 10:28 11,7 C 61 % 1007,0 hPa 0,0 l/m 8,3 km/h (2 Bft) W-NW 296 2 min 0,000 mm 1,2 UV-I 472 W/m 4,4 C 10,5 C 14,5 km/h (3 Bft) 97,87 %
23.02.2017 10:30 11,8 C 60 % 1007,0 hPa 0,0 l/m 8,0 km/h (2 Bft) SW 236 2 min 0,000 mm 1,1 UV-I 355 W/m 4,3 C 10,7 C 12,9 km/h (3 Bft) 100,00 %
23.02.2017 10:32 11,8 C 60 % 1007,0 hPa 0,0 l/m 7,6 km/h (2 Bft) W-SW 244 2 min 0,000 mm 1,1 UV-I 365 W/m 4,3 C 11,0 C 12,9 km/h (3 Bft) 97,87 %
23.02.2017 10:34 11,8 C 60 % 1006,9 hPa 0,0 l/m 6,6 km/h (2 Bft) W-NW 285 2 min 0,000 mm 1,1 UV-I 319 W/m 4,3 C 11,7 C 12,9 km/h (3 Bft) 95,74 %
23.02.2017 10:36 11,8 C 61 % 1006,9 hPa 0,0 l/m 2,2 km/h (1 Bft) W-NW 284 2 min 0,000 mm 1,1 UV-I 287 W/m 4,5 C 11,8 C 6,4 km/h (2 Bft) 97,37 %
23.02.2017 10:38 11,8 C 61 % 1006,8 hPa 0,0 l/m 5,4 km/h (1 Bft) W-NW 287 2 min 0,000 mm 1,1 UV-I 304 W/m 4,5 C 11,8 C 12,9 km/h (3 Bft) 95,74 %
23.02.2017 10:40 11,8 C 60 % 1006,8 hPa 0,0 l/m 5,1 km/h (1 Bft) W 267 2 min 0,000 mm 1,2 UV-I 399 W/m 4,3 C 11,8 C 11,3 km/h (2 Bft) 96,00 %
23.02.2017 10:42 11,9 C 60 % 1006,8 hPa 0,0 l/m 4,3 km/h (1 Bft) W 264 2 min 0,000 mm 1,3 UV-I 464 W/m 4,4 C 11,9 C 9,7 km/h (2 Bft) 94,34 %
23.02.2017 10:44 12,1 C 58 % 1006,7 hPa 0,0 l/m 9,1 km/h (2 Bft) W-SW 256 2 min 0,000 mm 1,4 UV-I 527 W/m 4,1 C 10,4 C 12,9 km/h (3 Bft) 97,44 %
23.02.2017 10:46 12,2 C 59 % 1006,6 hPa 0,0 l/m 9,3 km/h (2 Bft) W 279 2 min 0,000 mm 1,4 UV-I 537 W/m 4,4 C 10,4 C 14,5 km/h (3 Bft) 96,36 %
23.02.2017 10:48 12,2 C 58 % 1006,6 hPa 0,0 l/m 6,4 km/h (2 Bft) W-NW 284 2 min 0,000 mm 1,4 UV-I 539 W/m 4,2 C 12,2 C 11,3 km/h (2 Bft) 81,48 %
23.02.2017 10:50 12,3 C 59 % 1006,6 hPa 0,0 l/m 6,9 km/h (2 Bft) W-SW 247 2 min 0,000 mm 1,4 UV-I 531 W/m 4,5 C 12,0 C 16,1 km/h (3 Bft) 92,54 %
23.02.2017 10:52 12,4 C 57 % 1006,5 hPa 0,0 l/m 7,6 km/h (2 Bft) W 259 2 min 0,000 mm 1,4 UV-I 525 W/m 4,1 C 11,6 C 12,9 km/h (3 Bft) 97,44 %
23.02.2017 10:54 12,6 C 57 % 1006,5 hPa 0,0 l/m 4,5 km/h (1 Bft) W 270 2 min 0,000 mm 1,4 UV-I 526 W/m 4,3 C 12,6 C 9,7 km/h (2 Bft) 98,11 %
23.02.2017 10:56 12,7 C 55 % 1006,5 hPa 0,0 l/m 9,8 km/h (2 Bft) W 272 2 min 0,000 mm 1,4 UV-I 524 W/m 3,9 C 10,7 C 14,5 km/h (3 Bft) 97,73 %
23.02.2017 10:58 12,7 C 55 % 1006,5 hPa 0,0 l/m 7,8 km/h (2 Bft) W-SW 250 2 min 0,000 mm 1,4 UV-I 522 W/m 3,9 C 11,8 C 12,9 km/h (3 Bft) 94,00 %
23.02.2017 11:00 12,7 C 57 % 1006,5 hPa 0,0 l/m 7,2 km/h (2 Bft) W 267 2 min 0,228 mm 1,5 UV-I 520 W/m 4,4 C 12,2 C 11,3 km/h (2 Bft) 97,56 %
23.02.2017 11:02 12,8 C 56 % 1006,5 hPa 0,0 l/m 4,9 km/h (1 Bft) SW 221 2 min 0,000 mm 1,5 UV-I 511 W/m 4,2 C 12,8 C 9,7 km/h (2 Bft) 94,34 %
23.02.2017 11:04 13,0 C 59 % 1006,5 hPa 0,0 l/m 5,9 km/h (2 Bft) W-SW 251 2 min 0,000 mm 1,4 UV-I 477 W/m 5,2 C 13,0 C 11,3 km/h (2 Bft) 95,12 %
23.02.2017 11:06 13,1 C 57 % 1006,5 hPa 0,0 l/m 5,6 km/h (1 Bft) W-SW 244 2 min 0,000 mm 1,5 UV-I 523 W/m 4,8 C 13,1 C 14,5 km/h (3 Bft) 93,62 %
23.02.2017 11:08 13,1 C 54 % 1006,5 hPa 0,0 l/m 8,0 km/h (2 Bft) W-NW 298 2 min 0,000 mm 1,5 UV-I 520 W/m 4,0 C 12,1 C 16,1 km/h (3 Bft) 97,87 %
23.02.2017 11:10 13,1 C 57 % 1006,4 hPa 0,0 l/m 3,6 km/h (1 Bft) W 267 2 min 0,000 mm 1,5 UV-I 494 W/m 4,8 C 13,1 C 6,4 km/h (2 Bft) 93,62 %
23.02.2017 11:12 13,1 C 54 % 1006,4 hPa 0,0 l/m 7,3 km/h (2 Bft) W-NW 292 2 min 0,000 mm 1,5 UV-I 488 W/m 4,0 C 12,5 C 12,9 km/h (3 Bft) 93,62 %
23.02.2017 11:14 13,0 C 55 % 1006,3 hPa 0,0 l/m 3,6 km/h (1 Bft) W 272 2 min 0,000 mm 1,5 UV-I 501 W/m 4,2 C 13,0 C 6,4 km/h (2 Bft) 100,00 %
23.02.2017 11:16 13,1 C 56 % 1006,3 hPa 0,0 l/m 1,6 km/h (1 Bft) W 267 2 min 0,000 mm 1,5 UV-I 516 W/m 4,5 C 13,1 C 3,2 km/h (1 Bft) 94,34 %
23.02.2017 11:18 13,1 C 56 % 1006,2 hPa 0,0 l/m 3,6 km/h (1 Bft) W 262 2 min 0,000 mm 1,6 UV-I 515 W/m 4,5 C 13,1 C 6,4 km/h (2 Bft) 94,92 %
23.02.2017 11:20 13,2 C 56 % 1006,2 hPa 0,0 l/m 5,5 km/h (1 Bft) W 261 2 min 0,000 mm 1,6 UV-I 526 W/m 4,6 C 13,2 C 12,9 km/h (3 Bft) 97,37 %
23.02.2017 11:22 13,3 C 54 % 1006,2 hPa 0,0 l/m 6,0 km/h (2 Bft) S-SW 205 2 min 0,000 mm 1,6 UV-I 535 W/m 4,2 C 13,3 C 14,5 km/h (3 Bft) 96,23 %
23.02.2017 11:24 13,3 C 53 % 1006,1 hPa 0,0 l/m 12,3 km/h (3 Bft) W-SW 252 2 min 0,000 mm 1,6 UV-I 534 W/m 3,9 C 10,2 C 17,7 km/h (3 Bft) 97,87 %
23.02.2017 11:26 13,3 C 54 % 1006,1 hPa 0,0 l/m 5,8 km/h (2 Bft) W-NW 285 2 min 0,000 mm 1,6 UV-I 533 W/m 4,2 C 13,3 C 11,3 km/h (2 Bft) 97,87 %
23.02.2017 11:28 13,3 C 53 % 1006,1 hPa 0,0 l/m 5,7 km/h (1 Bft) W 277 2 min 0,000 mm 1,6 UV-I 508 W/m 3,9 C 13,3 C 11,3 km/h (2 Bft) 97,62 %
23.02.2017 11:30 13,4 C 52 % 1006,1 hPa 0,0 l/m 3,5 km/h (1 Bft) SW 230 2 min 0,000 mm 1,6 UV-I 517 W/m 3,7 C 13,4 C 6,4 km/h (2 Bft) 94,00 %
23.02.2017 11:32 13,4 C 53 % 1006,0 hPa 0,0 l/m 3,5 km/h (1 Bft) SW 230 2 min 0,000 mm 1,6 UV-I 514 W/m 4,0 C 13,4 C 8,0 km/h (2 Bft) 94,74 %
23.02.2017 11:34 13,5 C 53 % 1005,8 hPa 0,0 l/m 5,3 km/h (1 Bft) NW 318 2 min 0,000 mm 1,6 UV-I 504 W/m 4,1 C 13,5 C 9,7 km/h (2 Bft) 94,34 %
23.02.2017 11:36 13,6 C 55 % 1005,8 hPa 0,0 l/m 3,3 km/h (1 Bft) W-NW 294 2 min 0,000 mm 1,6 UV-I 502 W/m 4,7 C 13,6 C 6,4 km/h (2 Bft) 98,00 %
23.02.2017 11:38 13,7 C 55 % 1005,8 hPa 0,0 l/m 4,3 km/h (1 Bft) N-NW 331 2 min 0,000 mm 1,6 UV-I 519 W/m 4,8 C 13,7 C 9,7 km/h (2 Bft) 97,87 %
23.02.2017 11:40 13,6 C 56 % 1005,8 hPa 0,0 l/m 2,9 km/h (1 Bft) NW 306 2 min 0,000 mm 1,6 UV-I 542 W/m 5,0 C 13,6 C 6,4 km/h (2 Bft) 97,87 %
23.02.2017 11:42 13,7 C 58 % 1005,8 hPa 0,0 l/m 0,5 km/h (0 Bft) NW 309 2 min 0,000 mm 1,6 UV-I 512 W/m 5,6 C 13,7 C 1,6 km/h (1 Bft) 97,37 %
23.02.2017 11:44 13,7 C 58 % 1005,8 hPa 0,0 l/m 0,8 km/h (0 Bft) NW 309 2 min 0,000 mm 1,6 UV-I 479 W/m 5,6 C 13,7 C 3,2 km/h (1 Bft) 98,00 %
23.02.2017 11:46 13,6 C 57 % 1005,8 hPa 0,0 l/m 2,9 km/h (1 Bft) W-NW 284 2 min 0,000 mm 1,5 UV-I 412 W/m 5,2 C 13,6 C 9,7 km/h (2 Bft) 100,00 %
23.02.2017 11:48 13,7 C 57 % 1005,7 hPa 0,0 l/m 1,9 km/h (1 Bft) N-NW 328 2 min 0,000 mm 1,5 UV-I 428 W/m 5,3 C 13,7 C 6,4 km/h (2 Bft) 94,34 %
23.02.2017 11:50 13,6 C 56 % 1005,7 hPa 0,0 l/m 1,2 km/h (1 Bft) NW 326 2 min 0,000 mm 1,5 UV-I 477 W/m 5,0 C 13,6 C 3,2 km/h (1 Bft) 100,00 %
23.02.2017 11:52 13,6 C 56 % 1005,7 hPa 0,0 l/m 3,3 km/h (1 Bft) W-NW 282 2 min 0,000 mm 1,6 UV-I 517 W/m 5,0 C 13,6 C 9,7 km/h (2 Bft) 97,37 %
23.02.2017 11:54 13,6 C 56 % 1005,6 hPa 0,0 l/m 2,8 km/h (1 Bft) N-NW 334 2 min 0,000 mm 1,4 UV-I 437 W/m 5,0 C 13,6 C 6,4 km/h (2 Bft) 100,00 %
23.02.2017 11:56 13,5 C 56 % 1005,5 hPa 0,0 l/m 1,3 km/h (1 Bft) NW 319 2 min 0,000 mm 1,5 UV-I 429 W/m 4,9 C 13,5 C 3,2 km/h (1 Bft) 97,37 %
23.02.2017 11:58 13,5 C 56 % 1005,5 hPa 0,0 l/m 3,2 km/h (1 Bft) NW 324 2 min 0,000 mm 1,5 UV-I 432 W/m 4,9 C 13,5 C 6,4 km/h (2 Bft) 94,34 %
23.02.2017 12:00 13,6 C 57 % 1005,4 hPa 0,0 l/m 0,7 km/h (0 Bft) N-NW 327 2 min 0,000 mm 1,6 UV-I 453 W/m 5,2 C 13,6 C 3,2 km/h (1 Bft) 97,73 %
23.02.2017 12:02 13,7 C 55 % 1005,4 hPa 0,0 l/m 0,1 km/h (0 Bft) N-NW 327 2 min 0,280 mm 1,6 UV-I 487 W/m 4,8 C 13,7 C 1,6 km/h (1 Bft) 100,00 %
23.02.2017 12:04 13,9 C 61 % 1005,4 hPa 0,0 l/m 2,2 km/h (1 Bft) N 9 2 min 0,000 mm 1,8 UV-I 545 W/m 6,5 C 13,9 C 6,4 km/h (2 Bft) 98,18 %
23.02.2017 12:06 13,9 C 56 % 1005,4 hPa 0,0 l/m 2,5 km/h (1 Bft) NW 311 2 min 0,000 mm 1,8 UV-I 553 W/m 5,3 C 13,9 C 4,8 km/h (1 Bft) 100,00 %
23.02.2017 12:08 13,9 C 55 % 1005,3 hPa 0,0 l/m 0,6 km/h (0 Bft) N-NW 338 2 min 0,000 mm 1,8 UV-I 558 W/m 5,0 C 13,9 C 1,6 km/h (1 Bft) 100,00 %
23.02.2017 12:10 13,9 C 56 % 1005,2 hPa 0,0 l/m 4,6 km/h (1 Bft) N 11 2 min 0,000 mm 1,8 UV-I 560 W/m 5,3 C 13,9 C 12,9 km/h (3 Bft) 100,00 %
23.02.2017 12:12 13,9 C 58 % 1005,1 hPa 0,0 l/m 3,0 km/h (1 Bft) N-NW 340 2 min 0,000 mm 1,8 UV-I 562 W/m 5,8 C 13,9 C 6,4 km/h (2 Bft) 95,45 %
23.02.2017 12:14 13,9 C 57 % 1005,1 hPa 0,0 l/m 1,1 km/h (1 Bft) N-NW 329 2 min 0,000 mm 1,8 UV-I 562 W/m 5,5 C 13,9 C 3,2 km/h (1 Bft) 100,00 %
23.02.2017 12:16 14,1 C 58 % 1005,0 hPa 0,0 l/m 2,4 km/h (1 Bft) N 10 2 min 0,000 mm 1,8 UV-I 563 W/m 6,0 C 14,1 C 6,4 km/h (2 Bft) 98,11 %
23.02.2017 12:18 14,0 C 59 % 1005,0 hPa 0,0 l/m 5,1 km/h (1 Bft) NO 55 2 min 0,000 mm 1,8 UV-I 551 W/m 6,1 C 14,0 C 9,7 km/h (2 Bft) 93,62 %
23.02.2017 12:20 14,1 C 59 % 1004,9 hPa 0,0 l/m 5,5 km/h (1 Bft) NO 40 2 min 0,000 mm 1,8 UV-I 541 W/m 6,2 C 14,1 C 9,7 km/h (2 Bft) 95,74 %
23.02.2017 12:22 14,1 C 58 % 1004,9 hPa 0,0 l/m 4,2 km/h (1 Bft) NO 36 2 min 0,000 mm 1,8 UV-I 564 W/m 6,0 C 14,1 C 9,7 km/h (2 Bft) 95,74 %
23.02.2017 12:24 14,1 C 56 % 1004,9 hPa 0,0 l/m 1,7 km/h (1 Bft) W-SW 246 2 min 0,000 mm 1,8 UV-I 525 W/m 5,5 C 14,1 C 6,4 km/h (2 Bft) 93,62 %
23.02.2017 12:26 13,9 C 56 % 1004,8 hPa 0,0 l/m 2,1 km/h (1 Bft) NW 319 2 min 0,000 mm 1,8 UV-I 513 W/m 5,3 C 13,9 C 4,8 km/h (1 Bft) 97,56 %
23.02.2017 12:28 14,1 C 58 % 1004,7 hPa 0,0 l/m 3,6 km/h (1 Bft) NO 56 2 min 0,000 mm 1,8 UV-I 538 W/m 6,0 C 14,1 C 6,4 km/h (2 Bft) 94,34 %
23.02.2017 12:30 14,2 C 57 % 1004,7 hPa 0,0 l/m 4,4 km/h (1 Bft) NO 35 2 min 0,000 mm 1,9 UV-I 574 W/m 5,8 C 14,2 C 6,4 km/h (2 Bft) 97,56 %
23.02.2017 12:32 14,4 C 58 % 1004,6 hPa 0,0 l/m 6,4 km/h (2 Bft) N-NO 19 2 min 0,000 mm 1,8 UV-I 564 W/m 6,2 C 14,4 C 11,3 km/h (2 Bft) 94,34 %
23.02.2017 12:34 14,3 C 56 % 1004,6 hPa 0,0 l/m 3,4 km/h (1 Bft) NO 50 2 min 0,000 mm 1,8 UV-I 546 W/m 5,6 C 14,3 C 8,0 km/h (2 Bft) 94,74 %
23.02.2017 12:36 14,3 C 56 % 1004,6 hPa 0,0 l/m 6,0 km/h (2 Bft) O-NO 61 2 min 0,000 mm 1,8 UV-I 536 W/m 5,6 C 14,3 C 9,7 km/h (2 Bft) 98,00 %
23.02.2017 12:38 14,3 C 55 % 1004,6 hPa 0,0 l/m 5,4 km/h (1 Bft) O-NO 70 2 min 0,000 mm 1,7 UV-I 511 W/m 5,4 C 14,3 C 8,0 km/h (2 Bft) 94,00 %
23.02.2017 12:40 14,2 C 56 % 1004,5 hPa 0,0 l/m 4,7 km/h (1 Bft) O-NO 78 2 min 0,000 mm 1,7 UV-I 507 W/m 5,6 C 14,2 C 6,4 km/h (2 Bft) 97,56 %
23.02.2017 12:42 14,3 C 57 % 1004,5 hPa 0,0 l/m 5,4 km/h (1 Bft) NO 38 2 min 0,000 mm 1,7 UV-I 512 W/m 5,9 C 14,3 C 9,7 km/h (2 Bft) 98,11 %
23.02.2017 12:44 14,2 C 57 % 1004,4 hPa 0,0 l/m 4,2 km/h (1 Bft) O-NO 70 2 min 0,000 mm 1,7 UV-I 477 W/m 5,8 C 14,2 C 6,4 km/h (2 Bft) 94,87 %
23.02.2017 12:46 14,2 C 56 % 1004,4 hPa 0,0 l/m 7,7 km/h (2 Bft) O-NO 78 2 min 0,000 mm 1,7 UV-I 505 W/m 5,6 C 13,4 C 12,9 km/h (3 Bft) 100,00 %
23.02.2017 12:48 14,3 C 55 % 1004,3 hPa 0,0 l/m 8,2 km/h (2 Bft) O 82 2 min 0,000 mm 1,6 UV-I 486 W/m 5,4 C 13,3 C 12,9 km/h (3 Bft) 97,96 %
23.02.2017 12:50 14,3 C 56 % 1004,4 hPa 0,0 l/m 6,4 km/h (2 Bft) O-NO 74 2 min 0,000 mm 1,6 UV-I 470 W/m 5,6 C 14,3 C 11,3 km/h (2 Bft) 100,00 %
23.02.2017 12:52 14,3 C 55 % 1004,3 hPa 0,0 l/m 6,7 km/h (2 Bft) O-NO 78 2 min 0,000 mm 1,6 UV-I 506 W/m 5,4 C 14,1 C 9,7 km/h (2 Bft) 97,87 %
23.02.2017 12:54 14,4 C 55 % 1004,2 hPa 0,0 l/m 8,5 km/h (2 Bft) O-NO 67 2 min 0,000 mm 1,7 UV-I 533 W/m 5,5 C 13,2 C 12,9 km/h (3 Bft) 98,11 %
23.02.2017 12:56 14,4 C 55 % 1004,2 hPa 0,0 l/m 5,4 km/h (1 Bft) O-NO 63 2 min 0,000 mm 1,6 UV-I 527 W/m 5,5 C 14,4 C 9,7 km/h (2 Bft) 100,00 %
23.02.2017 12:58 14,4 C 55 % 1004,1 hPa 0,0 l/m 4,2 km/h (1 Bft) O-NO 67 2 min 0,000 mm 1,6 UV-I 531 W/m 5,5 C 14,4 C 9,7 km/h (2 Bft) 97,87 %
23.02.2017 13:00 14,3 C 57 % 1004,1 hPa 0,0 l/m 2,9 km/h (1 Bft) O 98 2 min 0,304 mm 1,6 UV-I 525 W/m 5,9 C 14,3 C 4,8 km/h (1 Bft) 100,00 %
23.02.2017 13:02 14,6 C 60 % 1004,0 hPa 0,0 l/m 4,1 km/h (1 Bft) NO 55 2 min 0,000 mm 1,6 UV-I 535 W/m 6,9 C 14,6 C 8,0 km/h (2 Bft) 95,12 %
23.02.2017 13:04 14,8 C 59 % 1003,9 hPa 0,0 l/m 3,8 km/h (1 Bft) N-NO 15 2 min 0,000 mm 1,6 UV-I 514 W/m 6,9 C 14,8 C 6,4 km/h (2 Bft) 98,21 %
23.02.2017 13:06 14,9 C 57 % 1004,0 hPa 0,0 l/m 3,4 km/h (1 Bft) O-NO 57 2 min 0,000 mm 1,6 UV-I 528 W/m 6,5 C 14,9 C 6,4 km/h (2 Bft) 97,37 %
23.02.2017 13:08 14,9 C 55 % 1003,9 hPa 0,0 l/m 3,5 km/h (1 Bft) O-NO 69 2 min 0,000 mm 1,6 UV-I 513 W/m 5,9 C 14,9 C 6,4 km/h (2 Bft) 100,00 %
23.02.2017 13:10 14,7 C 55 % 1003,8 hPa 0,0 l/m 4,3 km/h (1 Bft) O-SO 107 2 min 0,000 mm 1,6 UV-I 475 W/m 5,8 C 14,7 C 6,4 km/h (2 Bft) 98,00 %
23.02.2017 13:12 14,4 C 55 % 1003,7 hPa 0,0 l/m 3,7 km/h (1 Bft) O 91 2 min 0,000 mm 1,6 UV-I 534 W/m 5,5 C 14,4 C 6,4 km/h (2 Bft) 100,00 %
23.02.2017 13:14 14,4 C 55 % 1003,7 hPa 0,0 l/m 2,4 km/h (1 Bft) NO 43 2 min 0,000 mm 1,6 UV-I 539 W/m 5,5 C 14,4 C 6,4 km/h (2 Bft) 100,00 %
23.02.2017 13:16 14,8 C 59 % 1003,6 hPa 0,0 l/m 5,3 km/h (1 Bft) NO 46 2 min 0,000 mm 1,6 UV-I 527 W/m 6,9 C 14,8 C 8,0 km/h (2 Bft) 100,00 %
23.02.2017 13:18 15,0 C 53 % 1003,6 hPa 0,0 l/m 2,0 km/h (1 Bft) NO 46 2 min 0,000 mm 1,6 UV-I 531 W/m 5,5 C 15,0 C 4,8 km/h (1 Bft) 98,57 %
23.02.2017 13:20 15,0 C 53 % 1003,6 hPa 0,0 l/m 2,3 km/h (1 Bft) NO 44 2 min 0,000 mm 1,6 UV-I 519 W/m 5,5 C 15,0 C 6,4 km/h (2 Bft) 98,00 %
23.02.2017 13:22 15,0 C 54 % 1003,5 hPa 0,0 l/m 1,2 km/h (1 Bft) NO 44 2 min 0,000 mm 1,6 UV-I 530 W/m 5,8 C 15,0 C 3,2 km/h (1 Bft) 100,00 %
23.02.2017 13:24 15,2 C 56 % 1003,5 hPa 0,0 l/m 3,6 km/h (1 Bft) NO 51 2 min 0,000 mm 1,6 UV-I 539 W/m 6,5 C 15,2 C 4,8 km/h (1 Bft) 97,22 %
23.02.2017 13:26 15,3 C 53 % 1003,4 hPa 0,0 l/m 5,6 km/h (1 Bft) NO 47 2 min 0,000 mm 1,6 UV-I 544 W/m 5,8 C 15,3 C 8,0 km/h (2 Bft) 98,11 %
23.02.2017 13:28 15,5 C 52 % 1003,4 hPa 0,0 l/m 3,8 km/h (1 Bft) NO 49 2 min 0,000 mm 1,6 UV-I 544 W/m 5,7 C 15,5 C 6,4 km/h (2 Bft) 98,11 %
23.02.2017 13:30 15,5 C 52 % 1003,3 hPa 0,0 l/m 4,1 km/h (1 Bft) O-NO 78 2 min 0,000 mm 1,6 UV-I 522 W/m 5,7 C 15,5 C 6,4 km/h (2 Bft) 97,56 %
23.02.2017 13:32 15,3 C 50 % 1003,3 hPa 0,0 l/m 4,7 km/h (1 Bft) O 91 2 min 0,000 mm 1,6 UV-I 509 W/m 4,9 C 15,3 C 6,4 km/h (2 Bft) 98,00 %
23.02.2017 13:34 15,1 C 52 % 1003,1 hPa 0,0 l/m 3,8 km/h (1 Bft) O-NO 65 2 min 0,000 mm 1,6 UV-I 514 W/m 5,3 C 15,1 C 6,4 km/h (2 Bft) 97,87 %
23.02.2017 13:36 15,2 C 52 % 1003,1 hPa 0,0 l/m 4,8 km/h (1 Bft) O-NO 68 2 min 0,000 mm 1,6 UV-I 541 W/m 5,4 C 15,2 C 6,4 km/h (2 Bft) 95,74 %
23.02.2017 13:38 15,3 C 52 % 1003,0 hPa 0,0 l/m 4,9 km/h (1 Bft) O-NO 69 2 min 0,000 mm 1,5 UV-I 515 W/m 5,5 C 15,3 C 6,4 km/h (2 Bft) 97,56 %
23.02.2017 13:40 15,4 C 52 % 1002,9 hPa 0,0 l/m 4,9 km/h (1 Bft) O-NO 76 2 min 0,000 mm 1,5 UV-I 498 W/m 5,6 C 15,4 C 6,4 km/h (2 Bft) 96,23 %
23.02.2017 13:42 15,4 C 51 % 1002,9 hPa 0,0 l/m 2,3 km/h (1 Bft) NO 36 2 min 0,000 mm 1,5 UV-I 509 W/m 5,3 C 15,4 C 6,4 km/h (2 Bft) 95,12 %
23.02.2017 13:44 15,4 C 54 % 1002,8 hPa 0,0 l/m 2,3 km/h (1 Bft) N-NO 33 2 min 0,000 mm 1,5 UV-I 510 W/m 6,1 C 15,4 C 4,8 km/h (1 Bft) 96,00 %
23.02.2017 13:46 15,6 C 55 % 1002,7 hPa 0,0 l/m 5,4 km/h (1 Bft) NO 36 2 min 0,000 mm 1,4 UV-I 503 W/m 6,6 C 15,6 C 9,7 km/h (2 Bft) 94,29 %
23.02.2017 13:48 15,7 C 52 % 1002,6 hPa 0,0 l/m 5,0 km/h (1 Bft) NO 34 2 min 0,000 mm 1,4 UV-I 465 W/m 5,9 C 15,7 C 8,0 km/h (2 Bft) 98,31 %
23.02.2017 13:50 15,7 C 51 % 1002,7 hPa 0,0 l/m 2,8 km/h (1 Bft) NO 34 2 min 0,000 mm 1,3 UV-I 448 W/m 5,6 C 15,7 C 4,8 km/h (1 Bft) 94,00 %
23.02.2017 13:52 15,8 C 51 % 1002,6 hPa 0,0 l/m 1,9 km/h (1 Bft) NO 34 2 min 0,000 mm 1,3 UV-I 460 W/m 5,7 C 15,8 C 4,8 km/h (1 Bft) 91,49 %
23.02.2017 13:54 15,8 C 53 % 1002,6 hPa 0,0 l/m 5,5 km/h (1 Bft) NO 41 2 min 0,000 mm 1,3 UV-I 445 W/m 6,2 C 15,8 C 8,0 km/h (2 Bft) 95,45 %
23.02.2017 13:56 15,8 C 54 % 1002,4 hPa 0,0 l/m 7,0 km/h (2 Bft) O-NO 65 2 min 0,000 mm 1,3 UV-I 476 W/m 6,5 C 15,5 C 9,7 km/h (2 Bft) 95,74 %
23.02.2017 13:58 15,9 C 50 % 1002,4 hPa 0,0 l/m 8,4 km/h (2 Bft) O-NO 65 2 min 0,000 mm 1,3 UV-I 459 W/m 5,5 C 14,8 C 12,9 km/h (3 Bft) 94,00 %
23.02.2017 14:00 15,8 C 50 % 1002,3 hPa 0,0 l/m 6,6 km/h (2 Bft) O-NO 69 2 min 0,305 mm 1,3 UV-I 477 W/m 5,4 C 15,7 C 9,7 km/h (2 Bft) 88,64 %
23.02.2017 14:02 15,8 C 48 % 1002,3 hPa 0,0 l/m 5,4 km/h (1 Bft) O-NO 61 2 min 0,000 mm 1,3 UV-I 474 W/m 4,8 C 15,8 C 8,0 km/h (2 Bft) 97,92 %
23.02.2017 14:04 15,8 C 50 % 1002,2 hPa 0,0 l/m 2,9 km/h (1 Bft) O-NO 75 2 min 0,000 mm 1,2 UV-I 420 W/m 5,4 C 15,8 C 4,8 km/h (1 Bft) 94,29 %
23.02.2017 14:06 15,8 C 50 % 1002,1 hPa 0,0 l/m 3,4 km/h (1 Bft) O-NO 66 2 min 0,000 mm 1,2 UV-I 435 W/m 5,4 C 15,8 C 4,8 km/h (1 Bft) 94,34 %
23.02.2017 14:08 15,9 C 48 % 1002,1 hPa 0,0 l/m 2,6 km/h (1 Bft) O-NO 66 2 min 0,000 mm 1,2 UV-I 412 W/m 4,9 C 15,9 C 4,8 km/h (1 Bft) 94,00 %
23.02.2017 14:10 15,8 C 50 % 1002,1 hPa 0,0 l/m 3,2 km/h (1 Bft) O-NO 66 2 min 0,000 mm 1,1 UV-I 397 W/m 5,4 C 15,8 C 4,8 km/h (1 Bft) 94,00 %
23.02.2017 14:12 15,8 C 49 % 1002,0 hPa 0,0 l/m 4,5 km/h (1 Bft) NO 52 2 min 0,000 mm 1,1 UV-I 394 W/m 5,1 C 15,8 C 8,0 km/h (2 Bft) 90,00 %
23.02.2017 14:14 15,8 C 50 % 1001,9 hPa 0,0 l/m 6,5 km/h (2 Bft) NO 38 2 min 0,000 mm 1,1 UV-I 365 W/m 5,4 C 15,8 C 8,0 km/h (2 Bft) 92,11 %
23.02.2017 14:16 15,8 C 50 % 1001,9 hPa 0,0 l/m 4,2 km/h (1 Bft) NO 38 2 min 0,000 mm 1,1 UV-I 324 W/m 5,4 C 15,8 C 6,4 km/h (2 Bft) 96,23 %
23.02.2017 14:18 15,8 C 50 % 1001,8 hPa 0,0 l/m 3,7 km/h (1 Bft) N-NO 30 2 min 0,000 mm 1,1 UV-I 432 W/m 5,4 C 15,8 C 8,0 km/h (2 Bft) 95,12 %
23.02.2017 14:20 16,0 C 53 % 1001,8 hPa 0,0 l/m 1,8 km/h (1 Bft) N-NO 30 2 min 0,000 mm 1,1 UV-I 422 W/m 6,4 C 16,0 C 4,8 km/h (1 Bft) 98,00 %
23.02.2017 14:22 16,1 C 47 % 1001,8 hPa 0,0 l/m 4,1 km/h (1 Bft) O-NO 70 2 min 0,000 mm 1,0 UV-I 348 W/m 4,8 C 16,1 C 6,4 km/h (2 Bft) 88,57 %
23.02.2017 14:24 16,1 C 48 % 1001,8 hPa 0,0 l/m 3,7 km/h (1 Bft) O-NO 61 2 min 0,000 mm 0,9 UV-I 345 W/m 5,1 C 16,1 C 6,4 km/h (2 Bft) 96,61 %
23.02.2017 14:26 16,1 C 49 % 1001,7 hPa 0,0 l/m 3,8 km/h (1 Bft) O-NO 60 2 min 0,000 mm 0,9 UV-I 318 W/m 5,4 C 16,1 C 4,8 km/h (1 Bft) 94,00 %
23.02.2017 14:28 16,1 C 49 % 1001,6 hPa 0,0 l/m 4,5 km/h (1 Bft) O-NO 57 2 min 0,000 mm 0,9 UV-I 323 W/m 5,4 C 16,1 C 8,0 km/h (2 Bft) 89,36 %
23.02.2017 14:30 16,1 C 49 % 1001,6 hPa 0,0 l/m 4,6 km/h (1 Bft) NO 53 2 min 0,000 mm 0,9 UV-I 338 W/m 5,4 C 16,1 C 6,4 km/h (2 Bft) 95,12 %
23.02.2017 14:32 16,2 C 49 % 1001,6 hPa 0,0 l/m 4,7 km/h (1 Bft) O-NO 66 2 min 0,000 mm 0,9 UV-I 275 W/m 5,5 C 16,2 C 6,4 km/h (2 Bft) 97,87 %
23.02.2017 14:34 16,2 C 51 % 1001,5 hPa 0,0 l/m 5,4 km/h (1 Bft) O 93 2 min 0,000 mm 0,8 UV-I 276 W/m 6,1 C 16,2 C 8,0 km/h (2 Bft) 97,87 %
23.02.2017 14:36 16,2 C 50 % 1001,5 hPa 0,0 l/m 5,0 km/h (1 Bft) O-NO 65 2 min 0,000 mm 0,8 UV-I 304 W/m 5,8 C 16,2 C 6,4 km/h (2 Bft) 100,00 %
23.02.2017 14:38 16,2 C 50 % 1001,4 hPa 0,0 l/m 5,0 km/h (1 Bft) O-NO 70 2 min 0,000 mm 0,8 UV-I 282 W/m 5,8 C 16,2 C 6,4 km/h (2 Bft) 100,00 %
23.02.2017 14:40 16,1 C 54 % 1001,4 hPa 0,0 l/m 2,6 km/h (1 Bft) O-NO 70 2 min 0,000 mm 0,8 UV-I 268 W/m 6,8 C 16,1 C 4,8 km/h (1 Bft) 98,11 %
23.02.2017 14:42 16,1 C 52 % 1001,3 hPa 0,0 l/m 3,6 km/h (1 Bft) O-NO 57 2 min 0,000 mm 0,8 UV-I 318 W/m 6,2 C 16,1 C 4,8 km/h (1 Bft) 100,00 %
23.02.2017 14:44 16,2 C 55 % 1001,2 hPa 0,0 l/m 6,0 km/h (2 Bft) O-NO 57 2 min 0,000 mm 0,9 UV-I 374 W/m 7,2 C 16,2 C 8,0 km/h (2 Bft) 100,00 %
23.02.2017 14:46 16,3 C 54 % 1001,2 hPa 0,0 l/m 4,7 km/h (1 Bft) O-NO 59 2 min 0,000 mm 0,9 UV-I 398 W/m 7,0 C 16,3 C 6,4 km/h (2 Bft) 98,21 %
23.02.2017 14:48 16,3 C 51 % 1001,0 hPa 0,0 l/m 6,1 km/h (2 Bft) NO 45 2 min 0,000 mm 0,9 UV-I 366 W/m 6,1 C 16,3 C 8,0 km/h (2 Bft) 100,00 %
23.02.2017 14:50 16,4 C 52 % 1001,0 hPa 0,0 l/m 5,0 km/h (1 Bft) NO 46 2 min 0,000 mm 0,8 UV-I 341 W/m 6,5 C 16,4 C 8,0 km/h (2 Bft) 97,87 %
23.02.2017 14:52 16,3 C 52 % 1001,0 hPa 0,0 l/m 4,4 km/h (1 Bft) N-NO 31 2 min 0,000 mm 0,8 UV-I 361 W/m 6,4 C 16,3 C 8,0 km/h (2 Bft) 100,00 %
23.02.2017 14:54 16,2 C 54 % 1001,0 hPa 0,0 l/m 3,6 km/h (1 Bft) N-NO 27 2 min 0,000 mm 0,8 UV-I 355 W/m 6,9 C 16,2 C 6,4 km/h (2 Bft) 98,00 %
23.02.2017 14:56 16,2 C 53 % 1001,0 hPa 0,0 l/m 3,0 km/h (1 Bft) N-NO 23 2 min 0,000 mm 0,8 UV-I 355 W/m 6,6 C 16,2 C 4,8 km/h (1 Bft) 100,00 %
23.02.2017 14:58 16,3 C 51 % 1000,8 hPa 0,0 l/m 5,2 km/h (1 Bft) O-NO 61 2 min 0,000 mm 0,8 UV-I 384 W/m 6,1 C 16,3 C 9,7 km/h (2 Bft) 96,43 %
23.02.2017 15:00 16,5 C 51 % 1000,8 hPa 0,0 l/m 6,4 km/h (2 Bft) O-NO 57 2 min 0,229 mm 0,8 UV-I 366 W/m 6,3 C 16,5 C 9,7 km/h (2 Bft) 95,12 %
23.02.2017 15:02 16,6 C 52 % 1000,8 hPa 0,0 l/m 6,7 km/h (2 Bft) O-NO 62 2 min 0,000 mm 0,8 UV-I 344 W/m 6,7 C 16,5 C 9,7 km/h (2 Bft) 100,00 %
23.02.2017 15:04 16,6 C 51 % 1000,8 hPa 0,0 l/m 6,4 km/h (2 Bft) NO 53 2 min 0,000 mm 0,7 UV-I 334 W/m 6,4 C 16,6 C 9,7 km/h (2 Bft) 95,74 %
23.02.2017 15:06 16,5 C 53 % 1000,7 hPa 0,0 l/m 9,6 km/h (2 Bft) O-NO 64 2 min 0,000 mm 0,7 UV-I 351 W/m 6,9 C 14,9 C 12,9 km/h (3 Bft) 97,73 %
23.02.2017 15:08 16,4 C 54 % 1000,6 hPa 0,0 l/m 10,2 km/h (2 Bft) O-NO 69 2 min 0,000 mm 0,7 UV-I 332 W/m 7,1 C 14,6 C 14,5 km/h (3 Bft) 98,00 %
23.02.2017 15:10 16,4 C 55 % 1000,6 hPa 0,0 l/m 9,7 km/h (2 Bft) O-NO 63 2 min 0,000 mm 0,7 UV-I 310 W/m 7,3 C 14,8 C 14,5 km/h (3 Bft) 97,56 %
23.02.2017 15:12 16,4 C 55 % 1000,6 hPa 0,0 l/m 7,3 km/h (2 Bft) NO 44 2 min 0,000 mm 0,7 UV-I 294 W/m 7,3 C 15,9 C 9,7 km/h (2 Bft) 100,00 %
23.02.2017 15:14 16,4 C 56 % 1000,5 hPa 0,0 l/m 7,9 km/h (2 Bft) N-NO 32 2 min 0,000 mm 0,6 UV-I 296 W/m 7,6 C 15,6 C 11,3 km/h (2 Bft) 100,00 %
23.02.2017 15:16 16,3 C 57 % 1000,5 hPa 0,0 l/m 7,3 km/h (2 Bft) O-NO 63 2 min 0,000 mm 0,6 UV-I 304 W/m 7,8 C 15,8 C 9,7 km/h (2 Bft) 100,00 %
23.02.2017 15:18 16,3 C 56 % 1000,5 hPa 0,0 l/m 6,7 km/h (2 Bft) O-NO 65 2 min 0,000 mm 0,6 UV-I 313 W/m 7,5 C 16,2 C 14,5 km/h (3 Bft) 100,00 %
23.02.2017 15:20 16,4 C 56 % 1000,4 hPa 0,0 l/m 6,9 km/h (2 Bft) O-NO 58 2 min 0,000 mm 0,6 UV-I 327 W/m 7,6 C 16,1 C 9,7 km/h (2 Bft) 98,18 %
23.02.2017 15:22 16,3 C 58 % 1000,5 hPa 0,0 l/m 7,7 km/h (2 Bft) NO 46 2 min 0,000 mm 0,6 UV-I 329 W/m 8,0 C 15,6 C 11,3 km/h (2 Bft) 97,44 %
23.02.2017 15:24 16,3 C 58 % 1000,5 hPa 0,0 l/m 8,7 km/h (2 Bft) NO 44 2 min 0,000 mm 0,6 UV-I 310 W/m 8,0 C 15,1 C 11,3 km/h (2 Bft) 100,00 %
23.02.2017 15:26 16,3 C 57 % 1000,4 hPa 0,0 l/m 7,8 km/h (2 Bft) N-NO 24 2 min 0,000 mm 0,5 UV-I 304 W/m 7,8 C 15,6 C 14,5 km/h (3 Bft) 95,12 %
23.02.2017 15:28 16,2 C 56 % 1000,3 hPa 0,0 l/m 10,2 km/h (2 Bft) O-NO 58 2 min 0,000 mm 0,5 UV-I 297 W/m 7,4 C 14,4 C 14,5 km/h (3 Bft) 96,00 %
23.02.2017 15:30 16,3 C 54 % 1000,3 hPa 0,0 l/m 8,6 km/h (2 Bft) NO 46 2 min 0,000 mm 0,5 UV-I 261 W/m 7,0 C 15,2 C 12,9 km/h (3 Bft) 96,00 %
23.02.2017 15:32 16,3 C 56 % 1000,3 hPa 0,0 l/m 5,4 km/h (1 Bft) NO 36 2 min 0,000 mm 0,5 UV-I 234 W/m 7,5 C 16,3 C 8,0 km/h (2 Bft) 100,00 %
23.02.2017 15:34 16,3 C 59 % 1000,2 hPa 0,0 l/m 4,7 km/h (1 Bft) NO 38 2 min 0,000 mm 0,5 UV-I 260 W/m 8,3 C 16,3 C 6,4 km/h (2 Bft) 98,21 %
23.02.2017 15:36 16,3 C 56 % 1000,1 hPa 0,0 l/m 5,1 km/h (1 Bft) NO 53 2 min 0,000 mm 0,0 UV-I 195 W/m 7,5 C 16,3 C 6,4 km/h (2 Bft) 93,18 %
23.02.2017 15:38 16,2 C 56 % 1000,1 hPa 0,0 l/m 4,0 km/h (1 Bft) NO 44 2 min 0,000 mm 0,0 UV-I 200 W/m 7,4 C 16,2 C 9,7 km/h (2 Bft) 100,00 %
23.02.2017 15:40 16,2 C 56 % 1000,1 hPa 0,0 l/m 5,7 km/h (1 Bft) NO 53 2 min 0,000 mm 0,0 UV-I 222 W/m 7,4 C 16,2 C 9,7 km/h (2 Bft) 97,56 %
23.02.2017 15:43 16,3 C 56 % 1000,0 hPa 0,0 l/m 5,1 km/h (1 Bft) NO 42 3 min 0,000 mm 0,0 UV-I 248 W/m 7,5 C 16,3 C 8,0 km/h (2 Bft) 98,46 %
23.02.2017 15:44 16,3 C 56 % 1000,0 hPa 0,0 l/m 5,5 km/h (1 Bft) NO 37 1 min 0,000 mm 0,0 UV-I 158 W/m 7,5 C 16,3 C 8,0 km/h (2 Bft) 100,00 %
23.02.2017 15:46 16,2 C 55 % 1000,0 hPa 0,0 l/m 4,9 km/h (1 Bft) NO 45 0 min 0,000 mm 0,0 UV-I 129 W/m 7,2 C 16,2 C 6,4 km/h (2 Bft) 95,74 %
23.02.2017 15:48 16,1 C 57 % 999,9 hPa 0,0 l/m 3,7 km/h (1 Bft) NO 42 0 min 0,000 mm 0,0 UV-I 122 W/m 7,6 C 16,1 C 8,0 km/h (2 Bft) 100,00 %
23.02.2017 15:50 16,0 C 56 % 999,9 hPa 0,0 l/m 4,4 km/h (1 Bft) NO 49 0 min 0,000 mm 0,0 UV-I 114 W/m 7,2 C 16,0 C 6,4 km/h (2 Bft) 98,00 %
23.02.2017 15:52 16,1 C 55 % 999,8 hPa 0,0 l/m 4,5 km/h (1 Bft) NO 53 0 min 0,000 mm 0,0 UV-I 123 W/m 7,1 C 16,1 C 6,4 km/h (2 Bft) 98,11 %
23.02.2017 15:54 16,1 C 57 % 999,8 hPa 0,0 l/m 3,0 km/h (1 Bft) NO 53 2 min 0,000 mm 0,0 UV-I 167 W/m 7,6 C 16,1 C 4,8 km/h (1 Bft) 97,37 %
23.02.2017 15:56 15,9 C 61 % 999,8 hPa 0,0 l/m 2,6 km/h (1 Bft) NO 34 2 min 0,000 mm 0,0 UV-I 167 W/m 8,4 C 15,9 C 6,4 km/h (2 Bft) 98,00 %
23.02.2017 15:58 15,6 C 66 % 999,7 hPa 0,0 l/m 0,4 km/h (0 Bft) NO 34 0 min 0,000 mm 0,0 UV-I 138 W/m 9,3 C 15,6 C 3,2 km/h (1 Bft) 93,62 %
23.02.2017 16:00 15,3 C 66 % 999,8 hPa 0,0 l/m 0,7 km/h (0 Bft) N-NO 24 2 min 0,178 mm 0,0 UV-I 148 W/m 9,0 C 15,3 C 1,6 km/h (1 Bft) 97,92 %
23.02.2017 16:02 15,3 C 62 % 999,7 hPa 0,0 l/m 1,8 km/h (1 Bft) N 11 2 min 0,000 mm 0,0 UV-I 140 W/m 8,1 C 15,3 C 4,8 km/h (1 Bft) 93,62 %
23.02.2017 16:04 15,3 C 61 % 999,6 hPa 0,0 l/m 4,6 km/h (1 Bft) N-NO 32 0 min 0,000 mm 0,0 UV-I 131 W/m 7,8 C 15,3 C 6,4 km/h (2 Bft) 96,00 %
23.02.2017 16:06 15,4 C 58 % 999,5 hPa 0,0 l/m 5,1 km/h (1 Bft) NO 48 0 min 0,000 mm 0,0 UV-I 108 W/m 7,2 C 15,4 C 6,4 km/h (2 Bft) 95,12 %
23.02.2017 16:08 15,6 C 60 % 999,5 hPa 0,0 l/m 4,2 km/h (1 Bft) NO 38 0 min 0,000 mm 0,0 UV-I 109 W/m 7,9 C 15,6 C 6,4 km/h (2 Bft) 94,34 %
23.02.2017 16:10 15,4 C 61 % 999,4 hPa 0,0 l/m 3,6 km/h (1 Bft) NO 38 0 min 0,000 mm 0,0 UV-I 103 W/m 7,9 C 15,4 C 4,8 km/h (1 Bft) 95,74 %
23.02.2017 16:12 15,3 C 63 % 999,4 hPa 0,0 l/m 4,1 km/h (1 Bft) NO 38 0 min 0,000 mm 0,0 UV-I 102 W/m 8,3 C 15,3 C 6,4 km/h (2 Bft) 92,68 %
23.02.2017 16:14 15,2 C 63 % 999,3 hPa 0,0 l/m 5,1 km/h (1 Bft) NO 37 0 min 0,000 mm 0,0 UV-I 99 W/m 8,2 C 15,2 C 8,0 km/h (2 Bft) 95,45 %
23.02.2017 16:16 15,1 C 62 % 999,2 hPa 0,0 l/m 6,4 km/h (2 Bft) N-NO 28 0 min 0,000 mm 0,0 UV-I 88 W/m 7,9 C 15,1 C 8,0 km/h (2 Bft) 93,62 %
23.02.2017 16:18 14,9 C 63 % 999,1 hPa 0,0 l/m 6,1 km/h (2 Bft) NO 34 0 min 0,000 mm 0,0 UV-I 87 W/m 7,9 C 14,9 C 8,0 km/h (2 Bft) 94,34 %
23.02.2017 16:20 15,0 C 63 % 999,1 hPa 0,0 l/m 5,2 km/h (1 Bft) NO 56 0 min 0,000 mm 0,0 UV-I 80 W/m 8,0 C 15,0 C 8,0 km/h (2 Bft) 93,62 %
23.02.2017 16:22 15,1 C 61 % 999,0 hPa 0,0 l/m 6,8 km/h (2 Bft) NO 54 0 min 0,000 mm 0,0 UV-I 76 W/m 7,6 C 14,9 C 8,0 km/h (2 Bft) 92,00 %
23.02.2017 16:24 15,2 C 59 % 998,9 hPa 0,0 l/m 5,9 km/h (2 Bft) NO 55 0 min 0,000 mm 0,0 UV-I 62 W/m 7,2 C 15,2 C 8,0 km/h (2 Bft) 97,14 %
23.02.2017 16:26 15,2 C 59 % 999,0 hPa 0,0 l/m 6,2 km/h (2 Bft) O-NO 64 0 min 0,000 mm 0,0 UV-I 60 W/m 7,2 C 15,2 C 8,0 km/h (2 Bft) 93,22 %
23.02.2017 16:28 15,2 C 59 % 998,9 hPa 0,0 l/m 7,2 km/h (2 Bft) O-NO 63 0 min 0,000 mm 0,0 UV-I 85 W/m 7,2 C 14,8 C 9,7 km/h (2 Bft) 92,11 %
23.02.2017 16:30 15,2 C 60 % 998,8 hPa 0,0 l/m 7,9 km/h (2 Bft) O-NO 67 2 min 0,000 mm 0,0 UV-I 103 W/m 7,5 C 14,4 C 11,3 km/h (2 Bft) 93,62 %
23.02.2017 16:32 15,1 C 61 % 998,8 hPa 0,0 l/m 6,7 km/h (2 Bft) O-NO 74 0 min 0,000 mm 0,0 UV-I 67 W/m 7,6 C 14,9 C 8,0 km/h (2 Bft) 94,00 %
23.02.2017 16:34 15,0 C 61 % 998,7 hPa 0,0 l/m 4,2 km/h (1 Bft) O-NO 68 0 min 0,000 mm 0,0 UV-I 52 W/m 7,5 C 15,0 C 6,4 km/h (2 Bft) 96,00 %
23.02.2017 16:36 14,9 C 62 % 998,7 hPa 0,0 l/m 4,1 km/h (1 Bft) O-NO 59 0 min 0,000 mm 0,0 UV-I 53 W/m 7,7 C 14,9 C 4,8 km/h (1 Bft) 95,74 %
23.02.2017 16:38 14,7 C 61 % 998,7 hPa 0,0 l/m 5,6 km/h (1 Bft) O-NO 62 0 min 0,000 mm 0,0 UV-I 48 W/m 7,3 C 14,7 C 6,4 km/h (2 Bft) 92,31 %
23.02.2017 16:40 14,8 C 60 % 998,6 hPa 0,0 l/m 5,2 km/h (1 Bft) NO 56 0 min 0,000 mm 0,0 UV-I 43 W/m 7,1 C 14,8 C 6,4 km/h (2 Bft) 98,11 %
23.02.2017 16:42 14,7 C 62 % 998,6 hPa 0,0 l/m 4,4 km/h (1 Bft) NO 54 0 min 0,000 mm 0,0 UV-I 43 W/m 7,5 C 14,7 C 6,4 km/h (2 Bft) 95,74 %
23.02.2017 16:44 14,4 C 63 % 998,6 hPa 0,0 l/m 3,8 km/h (1 Bft) NO 54 0 min 0,000 mm 0,0 UV-I 41 W/m 7,4 C 14,4 C 4,8 km/h (1 Bft) 96,00 %
23.02.2017 16:46 14,3 C 63 % 998,6 hPa 0,0 l/m 5,1 km/h (1 Bft) NO 55 0 min 0,000 mm 0,0 UV-I 39 W/m 7,4 C 14,3 C 6,4 km/h (2 Bft) 97,87 %
23.02.2017 16:48 14,3 C 62 % 998,5 hPa 0,0 l/m 6,1 km/h (2 Bft) NO 56 0 min 0,000 mm 0,0 UV-I 36 W/m 7,1 C 14,3 C 8,0 km/h (2 Bft) 100,00 %
23.02.2017 16:50 14,4 C 62 % 998,4 hPa 0,0 l/m 5,7 km/h (1 Bft) NO 55 0 min 0,000 mm 0,0 UV-I 34 W/m 7,2 C 14,4 C 8,0 km/h (2 Bft) 94,00 %
23.02.2017 16:52 14,5 C 62 % 998,4 hPa 0,0 l/m 5,3 km/h (1 Bft) O-NO 58 0 min 0,000 mm 0,0 UV-I 32 W/m 7,3 C 14,5 C 8,0 km/h (2 Bft) 95,12 %
23.02.2017 16:54 14,5 C 61 % 998,3 hPa 0,0 l/m 6,8 km/h (2 Bft) NO 56 0 min 0,000 mm 0,0 UV-I 32 W/m 7,1 C 14,3 C 8,0 km/h (2 Bft) 96,23 %
23.02.2017 16:56 14,6 C 62 % 998,3 hPa 0,0 l/m 5,7 km/h (1 Bft) O-NO 68 0 min 0,000 mm 0,0 UV-I 30 W/m 7,4 C 14,6 C 6,4 km/h (2 Bft) 92,45 %
23.02.2017 16:58 14,5 C 61 % 998,3 hPa 0,0 l/m 5,7 km/h (1 Bft) O-NO 78 0 min 0,000 mm 0,0 UV-I 28 W/m 7,1 C 14,5 C 8,0 km/h (2 Bft) 97,87 %
23.02.2017 17:00 14,4 C 62 % 998,3 hPa 0,0 l/m 5,7 km/h (1 Bft) O-NO 71 0 min 0,000 mm 0,0 UV-I 28 W/m 7,2 C 14,4 C 8,0 km/h (2 Bft) 97,14 %
23.02.2017 17:02 14,2 C 63 % 998,3 hPa 0,0 l/m 5,6 km/h (1 Bft) O-NO 75 0 min 0,076 mm 0,0 UV-I 28 W/m 7,3 C 14,2 C 8,0 km/h (2 Bft) 98,00 %
23.02.2017 17:04 13,8 C 64 % 998,2 hPa 0,0 l/m 5,3 km/h (1 Bft) O-NO 73 0 min 0,000 mm 0,0 UV-I 28 W/m 7,1 C 13,8 C 8,0 km/h (2 Bft) 98,00 %
23.02.2017 17:06 13,8 C 64 % 998,2 hPa 0,0 l/m 4,6 km/h (1 Bft) O-NO 67 0 min 0,000 mm 0,0 UV-I 29 W/m 7,1 C 13,8 C 8,0 km/h (2 Bft) 98,00 %
23.02.2017 17:08 13,8 C 63 % 998,2 hPa 0,0 l/m 3,6 km/h (1 Bft) O-NO 65 0 min 0,000 mm 0,0 UV-I 26 W/m 6,9 C 13,8 C 4,8 km/h (1 Bft) 97,37 %
23.02.2017 17:10 13,8 C 64 % 998,2 hPa 0,0 l/m 5,3 km/h (1 Bft) O-NO 57 0 min 0,000 mm 0,0 UV-I 25 W/m 7,1 C 13,8 C 6,4 km/h (2 Bft) 96,00 %
23.02.2017 17:12 13,8 C 63 % 998,2 hPa 0,0 l/m 5,1 km/h (1 Bft) O-NO 68 0 min 0,000 mm 0,0 UV-I 22 W/m 6,9 C 13,8 C 8,0 km/h (2 Bft) 96,23 %
23.02.2017 17:14 13,9 C 63 % 998,2 hPa 0,0 l/m 4,0 km/h (1 Bft) O-NO 71 0 min 0,000 mm 0,0 UV-I 21 W/m 7,0 C 13,9 C 4,8 km/h (1 Bft) 97,22 %
23.02.2017 17:16 13,8 C 64 % 998,2 hPa 0,0 l/m 2,8 km/h (1 Bft) O-NO 70 0 min 0,000 mm 0,0 UV-I 19 W/m 7,1 C 13,8 C 4,8 km/h (1 Bft) 92,00 %
23.02.2017 17:18 13,6 C 65 % 998,2 hPa 0,0 l/m 1,5 km/h (1 Bft) O-NO 70 0 min 0,000 mm 0,0 UV-I 19 W/m 7,1 C 13,6 C 3,2 km/h (1 Bft) 91,49 %
23.02.2017 17:20 13,3 C 66 % 998,2 hPa 0,0 l/m 1,9 km/h (1 Bft) O-NO 70 0 min 0,000 mm 0,0 UV-I 18 W/m 7,1 C 13,3 C 3,2 km/h (1 Bft) 91,49 %
23.02.2017 17:22 13,2 C 67 % 998,2 hPa 0,0 l/m 1,7 km/h (1 Bft) O-NO 70 0 min 0,000 mm 0,0 UV-I 17 W/m 7,2 C 13,2 C 4,8 km/h (1 Bft) 94,34 %
23.02.2017 17:24 13,1 C 67 % 998,0 hPa 0,0 l/m 2,1 km/h (1 Bft) O-NO 70 2 min 0,000 mm 0,0 UV-I 16 W/m 7,1 C 13,1 C 4,8 km/h (1 Bft) 94,74 %
23.02.2017 17:26 13,1 C 67 % 998,0 hPa 0,0 l/m 2,0 km/h (1 Bft) O-NO 70 2 min 0,000 mm 0,0 UV-I 14 W/m 7,1 C 13,1 C 4,8 km/h (1 Bft) 97,73 %
23.02.2017 17:28 13,1 C 67 % 998,0 hPa 0,0 l/m 2,3 km/h (1 Bft) O-NO 70 2 min 0,000 mm 0,0 UV-I 13 W/m 7,1 C 13,1 C 4,8 km/h (1 Bft) 90,00 %
23.02.2017 17:30 13,0 C 68 % 998,0 hPa 0,0 l/m 0,8 km/h (0 Bft) O-NO 70 0 min 0,000 mm 0,0 UV-I 12 W/m 7,2 C 13,0 C 4,8 km/h (1 Bft) 98,00 %
23.02.2017 17:32 12,8 C 68 % 997,9 hPa 0,0 l/m 1,4 km/h (1 Bft) O-NO 70 0 min 0,000 mm 0,0 UV-I 11 W/m 7,0 C 12,8 C 1,6 km/h (1 Bft) 93,62 %
23.02.2017 17:34 12,4 C 70 % 997,9 hPa 0,0 l/m 2,0 km/h (1 Bft) O-NO 70 0 min 0,000 mm 0,0 UV-I 9 W/m 7,1 C 12,4 C 4,8 km/h (1 Bft) 96,23 %
23.02.2017 17:36 12,2 C 72 % 997,9 hPa 0,0 l/m 1,2 km/h (1 Bft) O-NO 70 0 min 0,000 mm 0,0 UV-I 7 W/m 7,3 C 12,2 C 3,2 km/h (1 Bft) 97,56 %
23.02.2017 17:38 12,2 C 72 % 997,9 hPa 0,0 l/m 0,7 km/h (0 Bft) O-NO 70 0 min 0,000 mm 0,0 UV-I 7 W/m 7,3 C 12,2 C 3,2 km/h (1 Bft) 98,00 %
23.02.2017 17:40 12,1 C 72 % 997,9 hPa 0,0 l/m 0,6 km/h (0 Bft) O-NO 70 0 min 0,000 mm 0,0 UV-I 7 W/m 7,2 C 12,1 C 1,6 km/h (1 Bft) 96,00 %
23.02.2017 17:42 12,2 C 71 % 997,9 hPa 0,0 l/m 0,2 km/h (0 Bft) O-NO 70 0 min 0,000 mm 0,0 UV-I 7 W/m 7,1 C 12,2 C 1,6 km/h (1 Bft) 89,36 %
23.02.2017 17:44 12,2 C 72 % 997,9 hPa 0,0 l/m 0,3 km/h (0 Bft) O-NO 70 0 min 0,000 mm 0,0 UV-I 7 W/m 7,3 C 12,2 C 1,6 km/h (1 Bft) 93,62 %
23.02.2017 17:46 12,3 C 70 % 997,9 hPa 0,0 l/m 0,0 km/h (0 Bft) O-NO 70 0 min 0,000 mm 0,0 UV-I 6 W/m 7,0 C 12,3 C 0,0 km/h (0 Bft) 95,74 %
23.02.2017 17:48 12,3 C 70 % 997,9 hPa 0,0 l/m 0,7 km/h (0 Bft) O-NO 70 0 min 0,000 mm 0,0 UV-I 5 W/m 7,0 C 12,3 C 1,6 km/h (1 Bft) 97,37 %
23.02.2017 17:50 12,4 C 70 % 997,8 hPa 0,0 l/m 0,1 km/h (0 Bft) O-NO 70 0 min 0,000 mm 0,0 UV-I 0 W/m 7,1 C 12,4 C 1,6 km/h (1 Bft) 93,62 %
23.02.2017 17:52 12,4 C 70 % 997,8 hPa 0,0 l/m 0,0 km/h (0 Bft) O-NO 70 0 min 0,000 mm 0,0 UV-I 0 W/m 7,1 C 12,4 C 0,0 km/h (0 Bft) 96,00 %
23.02.2017 17:54 12,3 C 70 % 997,7 hPa 0,0 l/m 0,0 km/h (0 Bft) O-NO 70 0 min 0,000 mm 0,0 UV-I 0 W/m 7,0 C 12,3 C 0,0 km/h (0 Bft) 91,49 %
23.02.2017 17:56 12,2 C 70 % 997,7 hPa 0,0 l/m 0,0 km/h (0 Bft) O-NO 70 0 min 0,000 mm 0,0 UV-I 0 W/m 6,9 C 12,2 C 1,6 km/h (1 Bft) 97,87 %
23.02.2017 17:58 11,9 C 71 % 997,7 hPa 0,0 l/m 0,0 km/h (0 Bft) O-NO 70 0 min 0,000 mm 0,0 UV-I 0 W/m 6,8 C 11,9 C 0,0 km/h (0 Bft) 91,67 %
23.02.2017 18:00 11,7 C 72 % 997,8 hPa 0,0 l/m 0,0 km/h (0 Bft) O-NO 70 0 min 0,000 mm 0,0 UV-I 0 W/m 6,8 C 11,7 C 0,0 km/h (0 Bft) 93,62 %
23.02.2017 18:02 11,6 C 73 % 997,8 hPa 0,0 l/m 0,1 km/h (0 Bft) O-NO 70 0 min 0,025 mm 0,0 UV-I 0 W/m 6,9 C 11,6 C 1,6 km/h (1 Bft) 96,00 %
23.02.2017 18:04 11,4 C 74 % 997,8 hPa 0,0 l/m 0,5 km/h (0 Bft) O-NO 70 0 min 0,000 mm 0,0 UV-I 0 W/m 6,9 C 11,4 C 1,6 km/h (1 Bft) 92,11 %
23.02.2017 18:06 11,4 C 74 % 997,7 hPa 0,0 l/m 0,1 km/h (0 Bft) O-NO 70 0 min 0,000 mm 0,0 UV-I 0 W/m 6,9 C 11,4 C 1,6 km/h (1 Bft) 96,00 %
23.02.2017 18:08 11,1 C 75 % 997,7 hPa 0,0 l/m 1,4 km/h (1 Bft) NO 54 0 min 0,000 mm 0,0 UV-I 0 W/m 6,8 C 11,1 C 3,2 km/h (1 Bft) 96,00 %
23.02.2017 18:10 10,9 C 76 % 997,7 hPa 0,0 l/m 0,4 km/h (0 Bft) NO 54 0 min 0,000 mm 0,0 UV-I 0 W/m 6,8 C 10,9 C 3,2 km/h (1 Bft) 97,87 %
23.02.2017 18:12 10,8 C 77 % 997,7 hPa 0,0 l/m 3,0 km/h (1 Bft) NO 54 0 min 0,000 mm 0,0 UV-I 0 W/m 6,9 C 10,8 C 4,8 km/h (1 Bft) 95,74 %
23.02.2017 18:14 10,8 C 77 % 997,8 hPa 0,0 l/m 1,4 km/h (1 Bft) NO 54 0 min 0,000 mm 0,0 UV-I 0 W/m 6,9 C 10,8 C 3,2 km/h (1 Bft) 90,00 %
23.02.2017 18:16 10,9 C 76 % 997,8 hPa 0,0 l/m 3,1 km/h (1 Bft) O 88 0 min 0,000 mm 0,0 UV-I 0 W/m 6,8 C 10,9 C 6,4 km/h (2 Bft) 94,74 %
23.02.2017 18:18 10,6 C 77 % 997,6 hPa 0,0 l/m 6,4 km/h (2 Bft) O 101 0 min 0,000 mm 0,0 UV-I 0 W/m 6,7 C 10,6 C 9,7 km/h (2 Bft) 92,00 %
23.02.2017 18:20 10,2 C 79 % 997,5 hPa 0,0 l/m 5,4 km/h (1 Bft) O 101 0 min 0,000 mm 0,0 UV-I 0 W/m 6,7 C 10,2 C 9,7 km/h (2 Bft) 91,49 %
23.02.2017 18:22 10,0 C 80 % 997,5 hPa 0,0 l/m 2,1 km/h (1 Bft) O 101 0 min 0,000 mm 0,0 UV-I 0 W/m 6,7 C 10,0 C 3,2 km/h (1 Bft) 96,00 %
23.02.2017 18:24 10,0 C 80 % 997,5 hPa 0,0 l/m 3,8 km/h (1 Bft) O 101 0 min 0,000 mm 0,0 UV-I 0 W/m 6,7 C 10,0 C 6,4 km/h (2 Bft) 94,74 %
23.02.2017 18:26 10,1 C 80 % 997,5 hPa 0,0 l/m 2,9 km/h (1 Bft) O 100 0 min 0,000 mm 0,0 UV-I 0 W/m 6,8 C 10,1 C 4,8 km/h (1 Bft) 93,62 %
23.02.2017 18:28 10,0 C 80 % 997,5 hPa 0,0 l/m 0,1 km/h (0 Bft) O 100 0 min 0,000 mm 0,0 UV-I 0 W/m 6,7 C 10,0 C 1,6 km/h (1 Bft) 96,00 %
23.02.2017 18:30 9,9 C 80 % 997,5 hPa 0,0 l/m 0,0 km/h (0 Bft) O 100 0 min 0,000 mm 0,0 UV-I 0 W/m 6,6 C 9,9 C 0,0 km/h (0 Bft) 95,74 %
23.02.2017 18:32 10,0 C 80 % 997,5 hPa 0,0 l/m 0,9 km/h (0 Bft) O 100 0 min 0,000 mm 0,0 UV-I 0 W/m 6,7 C 10,0 C 3,2 km/h (1 Bft) 88,00 %
23.02.2017 18:34 10,1 C 80 % 997,5 hPa 0,0 l/m 0,3 km/h (0 Bft) O 100 0 min 0,000 mm 0,0 UV-I 0 W/m 6,8 C 10,1 C 3,2 km/h (1 Bft) 94,87 %
23.02.2017 18:36 10,0 C 80 % 997,6 hPa 0,0 l/m 0,9 km/h (0 Bft) O 100 0 min 0,000 mm 0,0 UV-I 0 W/m 6,7 C 10,0 C 3,2 km/h (1 Bft) 92,98 %
23.02.2017 18:38 9,9 C 81 % 997,5 hPa 0,0 l/m 2,7 km/h (1 Bft) O-SO 102 0 min 0,000 mm 0,0 UV-I 0 W/m 6,8 C 9,9 C 4,8 km/h (1 Bft) 92,86 %
23.02.2017 18:40 9,8 C 81 % 997,5 hPa 0,0 l/m 2,3 km/h (1 Bft) O-SO 108 0 min 0,000 mm 0,0 UV-I 0 W/m 6,7 C 9,8 C 4,8 km/h (1 Bft) 93,62 %
23.02.2017 18:42 9,7 C 81 % 997,6 hPa 0,0 l/m 0,5 km/h (0 Bft) O-SO 108 0 min 0,000 mm 0,0 UV-I 0 W/m 6,6 C 9,7 C 3,2 km/h (1 Bft) 96,00 %
23.02.2017 18:44 9,8 C 81 % 997,5 hPa 0,0 l/m 1,1 km/h (1 Bft) O-SO 110 0 min 0,000 mm 0,0 UV-I 0 W/m 6,7 C 9,8 C 3,2 km/h (1 Bft) 93,62 %
23.02.2017 18:46 10,0 C 80 % 997,6 hPa 0,0 l/m 2,5 km/h (1 Bft) SO 140 0 min 0,000 mm 0,0 UV-I 0 W/m 6,7 C 10,0 C 4,8 km/h (1 Bft) 95,74 %
23.02.2017 18:48 10,1 C 79 % 997,5 hPa 0,0 l/m 3,8 km/h (1 Bft) SO 146 0 min 0,000 mm 0,0 UV-I 0 W/m 6,6 C 10,1 C 6,4 km/h (2 Bft) 95,12 %
23.02.2017 18:50 10,3 C 78 % 997,6 hPa 0,0 l/m 0,5 km/h (0 Bft) SO 146 0 min 0,000 mm 0,0 UV-I 0 W/m 6,6 C 10,3 C 3,2 km/h (1 Bft) 94,00 %
23.02.2017 18:52 10,4 C 77 % 997,6 hPa 0,0 l/m 3,3 km/h (1 Bft) S-SO 147 0 min 0,000 mm 0,0 UV-I 0 W/m 6,5 C 10,4 C 4,8 km/h (1 Bft) 88,64 %
23.02.2017 18:54 10,4 C 77 % 997,6 hPa 0,0 l/m 2,3 km/h (1 Bft) S-SO 147 0 min 0,000 mm 0,0 UV-I 0 W/m 6,5 C 10,4 C 3,2 km/h (1 Bft) 94,00 %
23.02.2017 18:56 10,4 C 77 % 997,6 hPa 0,0 l/m 2,5 km/h (1 Bft) S-SO 147 0 min 0,000 mm 0,0 UV-I 0 W/m 6,5 C 10,4 C 4,8 km/h (1 Bft) 97,96 %
23.02.2017 18:58 10,2 C 78 % 997,6 hPa 0,0 l/m 1,5 km/h (1 Bft) S-SO 147 0 min 0,000 mm 0,0 UV-I 0 W/m 6,5 C 10,2 C 3,2 km/h (1 Bft) 95,74 %
23.02.2017 19:00 9,9 C 79 % 997,6 hPa 0,0 l/m 1,7 km/h (1 Bft) S-SO 147 0 min 0,000 mm 0,0 UV-I 0 W/m 6,4 C 9,9 C 3,2 km/h (1 Bft) 96,00 %
23.02.2017 19:02 9,7 C 80 % 997,6 hPa 0,0 l/m 0,1 km/h (0 Bft) S-SO 147 0 min 0,000 mm 0,0 UV-I 0 W/m 6,4 C 9,7 C 1,6 km/h (1 Bft) 94,29 %
23.02.2017 19:04 9,6 C 80 % 997,6 hPa 0,0 l/m 1,2 km/h (1 Bft) S-SO 147 0 min 0,000 mm 0,0 UV-I 0 W/m 6,3 C 9,6 C 3,2 km/h (1 Bft) 92,45 %
23.02.2017 19:06 9,5 C 81 % 997,6 hPa 0,0 l/m 0,5 km/h (0 Bft) S-SO 147 0 min 0,000 mm 0,0 UV-I 0 W/m 6,4 C 9,5 C 1,6 km/h (1 Bft) 97,56 %
23.02.2017 19:08 9,5 C 81 % 997,7 hPa 0,0 l/m 3,6 km/h (1 Bft) S-SW 197 0 min 0,000 mm 0,0 UV-I 0 W/m 6,4 C 9,5 C 6,4 km/h (2 Bft) 98,00 %
23.02.2017 19:10 9,5 C 81 % 997,8 hPa 0,0 l/m 3,0 km/h (1 Bft) S-SW 197 0 min 0,000 mm 0,0 UV-I 0 W/m 6,4 C 9,5 C 4,8 km/h (1 Bft) 91,49 %
23.02.2017 19:12 9,4 C 81 % 997,7 hPa 0,0 l/m 1,5 km/h (1 Bft) S-SW 197 0 min 0,000 mm 0,0 UV-I 0 W/m 6,3 C 9,4 C 3,2 km/h (1 Bft) 94,34 %
23.02.2017 19:14 9,3 C 82 % 997,7 hPa 0,0 l/m 3,4 km/h (1 Bft) S-SW 197 0 min 0,000 mm 0,0 UV-I 0 W/m 6,4 C 9,3 C 4,8 km/h (1 Bft) 95,12 %
23.02.2017 19:16 9,3 C 82 % 997,7 hPa 0,0 l/m 2,5 km/h (1 Bft) S-SW 197 0 min 0,000 mm 0,0 UV-I 0 W/m 6,4 C 9,3 C 3,2 km/h (1 Bft) 95,74 %
23.02.2017 19:18 9,3 C 82 % 997,6 hPa 0,0 l/m 3,7 km/h (1 Bft) S 173 0 min 0,000 mm 0,0 UV-I 0 W/m 6,4 C 9,3 C 6,4 km/h (2 Bft) 97,87 %
23.02.2017 19:20 9,4 C 82 % 997,7 hPa 0,0 l/m 3,3 km/h (1 Bft) SW 222 0 min 0,000 mm 0,0 UV-I 0 W/m 6,5 C 9,4 C 8,0 km/h (2 Bft) 92,45 %
23.02.2017 19:22 9,5 C 81 % 997,6 hPa 0,0 l/m 4,6 km/h (1 Bft) S 191 0 min 0,000 mm 0,0 UV-I 0 W/m 6,4 C 9,5 C 8,0 km/h (2 Bft) 88,57 %
23.02.2017 19:24 9,6 C 81 % 997,6 hPa 0,0 l/m 4,9 km/h (1 Bft) S-SW 206 0 min 0,000 mm 0,0 UV-I 0 W/m 6,5 C 9,6 C 8,0 km/h (2 Bft) 92,59 %
23.02.2017 19:26 9,8 C 79 % 997,7 hPa 0,0 l/m 4,7 km/h (1 Bft) S 183 0 min 0,000 mm 0,0 UV-I 0 W/m 6,3 C 9,8 C 6,4 km/h (2 Bft) 95,74 %
23.02.2017 19:28 10,1 C 78 % 997,6 hPa 0,0 l/m 4,9 km/h (1 Bft) S 178 0 min 0,000 mm 0,0 UV-I 0 W/m 6,4 C 10,1 C 9,7 km/h (2 Bft) 95,12 %
23.02.2017 19:30 10,1 C 77 % 997,6 hPa 0,0 l/m 3,1 km/h (1 Bft) S 185 0 min 0,000 mm 0,0 UV-I 0 W/m 6,3 C 10,1 C 6,4 km/h (2 Bft) 98,11 %
23.02.2017 19:33 9,8 C 78 % 997,5 hPa 0,0 l/m 4,3 km/h (1 Bft) S-SW 196 0 min 0,000 mm 0,0 UV-I 0 W/m 6,1 C 9,8 C 8,0 km/h (2 Bft) 94,74 %
23.02.2017 19:34 9,7 C 78 % 997,5 hPa 0,0 l/m 4,3 km/h (1 Bft) S-SW 196 0 min 0,000 mm 0,0 UV-I 0 W/m 6,1 C 9,7 C 6,4 km/h (2 Bft) 100,00 %
23.02.2017 19:36 9,7 C 78 % 997,5 hPa 0,0 l/m 4,8 km/h (1 Bft) S-SW 195 0 min 0,000 mm 0,0 UV-I 0 W/m 6,1 C 9,7 C 6,4 km/h (2 Bft) 93,62 %
23.02.2017 19:38 9,7 C 77 % 997,6 hPa 0,0 l/m 5,3 km/h (1 Bft) S-SW 196 0 min 0,000 mm 0,0 UV-I 0 W/m 5,9 C 9,7 C 8,0 km/h (2 Bft) 96,00 %
23.02.2017 19:40 9,8 C 76 % 997,5 hPa 0,0 l/m 4,4 km/h (1 Bft) S-SW 195 0 min 0,000 mm 0,0 UV-I 0 W/m 5,8 C 9,8 C 6,4 km/h (2 Bft) 96,00 %
23.02.2017 19:42 9,8 C 76 % 997,5 hPa 0,0 l/m 5,3 km/h (1 Bft) S-SW 195 0 min 0,000 mm 0,0 UV-I 0 W/m 5,8 C 9,8 C 6,4 km/h (2 Bft) 96,00 %
23.02.2017 19:44 9,7 C 76 % 997,5 hPa 0,0 l/m 6,0 km/h (2 Bft) S-SW 196 0 min 0,000 mm 0,0 UV-I 0 W/m 5,7 C 9,7 C 8,0 km/h (2 Bft) 93,62 %
23.02.2017 19:46 9,6 C 76 % 997,5 hPa 0,0 l/m 5,4 km/h (1 Bft) S-SW 196 0 min 0,000 mm 0,0 UV-I 0 W/m 5,6 C 9,6 C 6,4 km/h (2 Bft) 93,18 %
23.02.2017 19:48 9,6 C 77 % 997,5 hPa 0,0 l/m 3,7 km/h (1 Bft) S 189 0 min 0,000 mm 0,0 UV-I 0 W/m 5,8 C 9,6 C 6,4 km/h (2 Bft) 93,18 %
23.02.2017 19:50 9,7 C 76 % 997,4 hPa 0,0 l/m 5,2 km/h (1 Bft) S 189 0 min 0,000 mm 0,0 UV-I 0 W/m 5,7 C 9,7 C 8,0 km/h (2 Bft) 97,87 %
23.02.2017 19:52 9,7 C 76 % 997,4 hPa 0,0 l/m 4,1 km/h (1 Bft) S 185 0 min 0,000 mm 0,0 UV-I 0 W/m 5,7 C 9,7 C 6,4 km/h (2 Bft) 96,00 %
23.02.2017 19:54 9,8 C 76 % 997,4 hPa 0,0 l/m 5,3 km/h (1 Bft) S 182 0 min 0,000 mm 0,0 UV-I 0 W/m 5,8 C 9,8 C 8,0 km/h (2 Bft) 95,74 %
23.02.2017 19:56 10,0 C 75 % 997,4 hPa 0,0 l/m 3,6 km/h (1 Bft) S 171 0 min 0,000 mm 0,0 UV-I 0 W/m 5,8 C 10,0 C 6,4 km/h (2 Bft) 95,74 %
23.02.2017 19:58 10,1 C 76 % 997,4 hPa 0,0 l/m 6,4 km/h (2 Bft) S-SW 196 0 min 0,000 mm 0,0 UV-I 0 W/m 6,1 C 10,1 C 12,9 km/h (3 Bft) 97,92 %
23.02.2017 20:00 10,2 C 76 % 997,4 hPa 0,0 l/m 6,0 km/h (2 Bft) S 186 0 min 0,000 mm 0,0 UV-I 0 W/m 6,2 C 10,2 C 9,7 km/h (2 Bft) 100,00 %
23.02.2017 20:02 10,2 C 76 % 997,5 hPa 0,0 l/m 7,2 km/h (2 Bft) S-SW 198 0 min 0,026 mm 0,0 UV-I 0 W/m 6,2 C 9,6 C 11,3 km/h (2 Bft) 100,00 %
23.02.2017 20:04 10,2 C 77 % 997,6 hPa 0,0 l/m 6,8 km/h (2 Bft) S 189 0 min 0,000 mm 0,0 UV-I 0 W/m 6,4 C 9,9 C 11,3 km/h (2 Bft) 94,64 %
23.02.2017 20:06 10,2 C 77 % 997,5 hPa 0,0 l/m 5,7 km/h (1 Bft) S-SO 162 0 min 0,000 mm 0,0 UV-I 0 W/m 6,4 C 10,2 C 9,7 km/h (2 Bft) 91,43 %
23.02.2017 20:08 10,2 C 77 % 997,6 hPa 0,0 l/m 6,2 km/h (2 Bft) S-SW 208 0 min 0,000 mm 0,0 UV-I 0 W/m 6,4 C 10,2 C 11,3 km/h (2 Bft) 90,57 %
23.02.2017 20:10 10,3 C 76 % 997,5 hPa 0,0 l/m 6,3 km/h (2 Bft) S 181 0 min 0,000 mm 0,0 UV-I 0 W/m 6,3 C 10,3 C 11,3 km/h (2 Bft) 93,62 %
23.02.2017 20:12 10,3 C 74 % 997,5 hPa 0,0 l/m 6,1 km/h (2 Bft) S 184 0 min 0,000 mm 0,0 UV-I 0 W/m 5,9 C 10,3 C 9,7 km/h (2 Bft) 97,87 %
23.02.2017 20:14 10,4 C 72 % 997,6 hPa 0,0 l/m 7,2 km/h (2 Bft) S 180 0 min 0,000 mm 0,0 UV-I 0 W/m 5,6 C 9,8 C 11,3 km/h (2 Bft) 97,87 %
23.02.2017 20:16 10,6 C 70 % 997,6 hPa 0,0 l/m 7,2 km/h (2 Bft) S 175 0 min 0,000 mm 0,0 UV-I 0 W/m 5,4 C 10,0 C 11,3 km/h (2 Bft) 91,49 %
23.02.2017 20:18 10,6 C 69 % 997,6 hPa 0,0 l/m 7,8 km/h (2 Bft) S 186 0 min 0,000 mm 0,0 UV-I 0 W/m 5,2 C 9,6 C 11,3 km/h (2 Bft) 100,00 %
23.02.2017 20:20 10,6 C 68 % 997,6 hPa 0,0 l/m 8,3 km/h (2 Bft) S 174 0 min 0,000 mm 0,0 UV-I 0 W/m 4,9 C 9,3 C 11,3 km/h (2 Bft) 92,00 %
23.02.2017 20:22 10,6 C 68 % 997,6 hPa 0,0 l/m 8,5 km/h (2 Bft) S-SW 200 0 min 0,000 mm 0,0 UV-I 0 W/m 4,9 C 9,2 C 12,9 km/h (3 Bft) 96,00 %
23.02.2017 20:24 10,6 C 66 % 997,6 hPa 0,0 l/m 7,5 km/h (2 Bft) S 190 0 min 0,000 mm 0,0 UV-I 0 W/m 4,5 C 9,8 C 12,9 km/h (3 Bft) 97,87 %
23.02.2017 20:26 10,7 C 65 % 997,5 hPa 0,0 l/m 7,8 km/h (2 Bft) S 178 0 min 0,000 mm 0,0 UV-I 0 W/m 4,4 C 9,7 C 14,5 km/h (3 Bft) 97,87 %
23.02.2017 20:28 10,7 C 65 % 997,5 hPa 0,0 l/m 7,0 km/h (2 Bft) S-SO 166 0 min 0,000 mm 0,0 UV-I 0 W/m 4,4 C 10,3 C 11,3 km/h (2 Bft) 94,29 %
23.02.2017 20:30 10,8 C 63 % 997,5 hPa 0,0 l/m 9,0 km/h (2 Bft) S-SW 198 0 min 0,000 mm 0,0 UV-I 0 W/m 4,0 C 9,1 C 14,5 km/h (3 Bft) 97,92 %
23.02.2017 20:32 10,8 C 63 % 997,4 hPa 0,0 l/m 6,9 km/h (2 Bft) S-SO 168 0 min 0,000 mm 0,0 UV-I 0 W/m 4,0 C 10,5 C 14,5 km/h (3 Bft) 94,00 %
23.02.2017 20:34 10,7 C 63 % 997,3 hPa 0,0 l/m 7,9 km/h (2 Bft) S-SW 213 0 min 0,000 mm 0,0 UV-I 0 W/m 3,9 C 9,7 C 11,3 km/h (2 Bft) 90,74 %
23.02.2017 20:36 10,7 C 62 % 997,4 hPa 0,0 l/m 8,2 km/h (2 Bft) S 182 0 min 0,000 mm 0,0 UV-I 0 W/m 3,7 C 9,5 C 11,3 km/h (2 Bft) 97,44 %
23.02.2017 20:38 10,6 C 61 % 997,4 hPa 0,0 l/m 9,9 km/h (2 Bft) S-SW 209 0 min 0,000 mm 0,0 UV-I 0 W/m 3,4 C 8,3 C 17,7 km/h (3 Bft) 91,49 %
23.02.2017 20:40 10,7 C 61 % 997,4 hPa 0,0 l/m 9,3 km/h (2 Bft) S-SW 209 0 min 0,000 mm 0,0 UV-I 0 W/m 3,5 C 8,8 C 14,5 km/h (3 Bft) 94,74 %
23.02.2017 20:42 10,7 C 60 % 997,4 hPa 0,0 l/m 10,2 km/h (2 Bft) SW 215 0 min 0,000 mm 0,0 UV-I 0 W/m 3,3 C 8,3 C 16,1 km/h (3 Bft) 100,00 %
23.02.2017 20:44 10,8 C 59 % 997,4 hPa 0,0 l/m 12,0 km/h (2 Bft) SW 215 0 min 0,000 mm 0,0 UV-I 0 W/m 3,1 C 7,4 C 17,7 km/h (3 Bft) 97,56 %
23.02.2017 20:46 10,8 C 58 % 997,4 hPa 0,0 l/m 10,6 km/h (2 Bft) SW 218 0 min 0,000 mm 0,0 UV-I 0 W/m 2,9 C 8,2 C 16,1 km/h (3 Bft) 89,36 %
23.02.2017 20:48 10,9 C 57 % 997,4 hPa 0,0 l/m 9,9 km/h (2 Bft) SW 225 0 min 0,000 mm 0,0 UV-I 0 W/m 2,7 C 8,6 C 16,1 km/h (3 Bft) 96,23 %
23.02.2017 20:50 11,1 C 56 % 997,4 hPa 0,0 l/m 11,3 km/h (2 Bft) SW 225 0 min 0,000 mm 0,0 UV-I 0 W/m 2,7 C 8,1 C 16,1 km/h (3 Bft) 95,12 %
23.02.2017 20:52 11,3 C 54 % 997,4 hPa 0,0 l/m 11,0 km/h (2 Bft) SW 225 0 min 0,000 mm 0,0 UV-I 0 W/m 2,3 C 8,5 C 19,3 km/h (3 Bft) 92,45 %
23.02.2017 20:54 11,4 C 53 % 997,4 hPa 0,0 l/m 9,9 km/h (2 Bft) SW 234 0 min 0,000 mm 0,0 UV-I 0 W/m 2,2 C 9,2 C 16,1 km/h (3 Bft) 94,00 %
23.02.2017 20:56 11,8 C 51 % 997,5 hPa 0,0 l/m 13,0 km/h (3 Bft) S-SW 195 0 min 0,000 mm 0,0 UV-I 0 W/m 2,0 C 8,1 C 20,9 km/h (4 Bft) 95,12 %
23.02.2017 20:58 12,0 C 51 % 997,5 hPa 0,0 l/m 11,1 km/h (2 Bft) SW 227 0 min 0,000 mm 0,0 UV-I 0 W/m 2,2 C 9,2 C 16,1 km/h (3 Bft) 89,36 %
23.02.2017 21:00 12,1 C 49 % 997,5 hPa 0,0 l/m 15,2 km/h (3 Bft) SW 221 0 min 0,000 mm 0,0 UV-I 0 W/m 1,7 C 7,6 C 24,1 km/h (4 Bft) 90,24 %
23.02.2017 21:02 12,3 C 48 % 997,5 hPa 0,0 l/m 13,0 km/h (3 Bft) W-SW 242 0 min 0,050 mm 0,0 UV-I 0 W/m 1,6 C 8,7 C 17,7 km/h (3 Bft) 92,45 %
23.02.2017 21:04 12,4 C 48 % 997,5 hPa 0,0 l/m 12,7 km/h (3 Bft) SW 236 0 min 0,000 mm 0,0 UV-I 0 W/m 1,7 C 9,0 C 22,5 km/h (4 Bft) 89,36 %
23.02.2017 21:06 12,6 C 47 % 997,6 hPa 0,0 l/m 14,0 km/h (3 Bft) S-SW 201 0 min 0,000 mm 0,0 UV-I 0 W/m 1,6 C 8,7 C 24,1 km/h (4 Bft) 93,62 %
23.02.2017 21:08 12,5 C 47 % 997,5 hPa 0,0 l/m 14,8 km/h (3 Bft) W-SW 246 0 min 0,000 mm 0,0 UV-I 0 W/m 1,5 C 8,2 C 25,7 km/h (4 Bft) 93,62 %
23.02.2017 21:10 12,6 C 46 % 997,5 hPa 0,0 l/m 17,7 km/h (3 Bft) SW 229 0 min 0,000 mm 0,0 UV-I 0 W/m 1,3 C 7,3 C 25,7 km/h (4 Bft) 95,74 %
23.02.2017 21:12 12,7 C 47 % 997,5 hPa 0,0 l/m 14,7 km/h (3 Bft) SW 215 0 min 0,000 mm 0,0 UV-I 0 W/m 1,7 C 8,5 C 20,9 km/h (4 Bft) 100,00 %
23.02.2017 21:14 12,6 C 48 % 997,5 hPa 0,0 l/m 15,5 km/h (3 Bft) W-SW 248 0 min 0,000 mm 0,0 UV-I 0 W/m 1,9 C 8,1 C 27,4 km/h (4 Bft) 100,00 %
23.02.2017 21:16 12,5 C 47 % 997,5 hPa 0,0 l/m 15,5 km/h (3 Bft) S-SW 213 0 min 0,000 mm 0,0 UV-I 0 W/m 1,5 C 8,0 C 24,1 km/h (4 Bft) 90,48 %
23.02.2017 21:18 12,5 C 47 % 997,5 hPa 0,0 l/m 15,4 km/h (3 Bft) SW 214 0 min 0,000 mm 0,0 UV-I 0 W/m 1,5 C 8,0 C 22,5 km/h (4 Bft) 97,87 %
23.02.2017 21:20 12,6 C 46 % 997,5 hPa 0,0 l/m 15,2 km/h (3 Bft) W-SW 238 0 min 0,000 mm 0,0 UV-I 0 W/m 1,3 C 8,2 C 24,1 km/h (4 Bft) 100,00 %
23.02.2017 21:22 12,7 C 46 % 997,5 hPa 0,0 l/m 15,2 km/h (3 Bft) SW 217 0 min 0,000 mm 0,0 UV-I 0 W/m 1,4 C 8,3 C 22,5 km/h (4 Bft) 100,00 %
23.02.2017 21:24 12,7 C 46 % 997,5 hPa 0,0 l/m 17,5 km/h (3 Bft) S-SW 212 0 min 0,000 mm 0,0 UV-I 0 W/m 1,4 C 7,5 C 27,4 km/h (4 Bft) 97,37 %
23.02.2017 21:26 12,8 C 45 % 997,5 hPa 0,0 l/m 17,9 km/h (3 Bft) W-SW 241 0 min 0,000 mm 0,0 UV-I 0 W/m 1,2 C 7,5 C 33,8 km/h (5 Bft) 100,00 %
23.02.2017 21:28 13,0 C 45 % 997,5 hPa 0,0 l/m 21,4 km/h (4 Bft) W 263 0 min 0,000 mm 0,0 UV-I 0 W/m 1,4 C 6,8 C 29,0 km/h (5 Bft) 93,62 %
23.02.2017 21:30 13,1 C 44 % 997,6 hPa 0,0 l/m 20,0 km/h (4 Bft) W-SW 249 0 min 0,000 mm 0,0 UV-I 0 W/m 1,1 C 7,3 C 27,4 km/h (4 Bft) 97,56 %
23.02.2017 21:32 13,2 C 44 % 997,5 hPa 0,0 l/m 22,1 km/h (4 Bft) W-SW 245 0 min 0,000 mm 0,0 UV-I 0 W/m 1,2 C 6,9 C 40,2 km/h (6 Bft) 96,23 %
23.02.2017 21:34 13,3 C 43 % 997,6 hPa 0,0 l/m 19,1 km/h (3 Bft) SW 221 0 min 0,000 mm 0,0 UV-I 0 W/m 1,0 C 7,8 C 30,6 km/h (5 Bft) 92,00 %
23.02.2017 21:36 13,4 C 43 % 997,6 hPa 0,0 l/m 18,6 km/h (3 Bft) S-SW 213 0 min 0,000 mm 0,0 UV-I 0 W/m 1,1 C 8,1 C 25,7 km/h (4 Bft) 93,62 %
23.02.2017 21:38 13,4 C 43 % 997,7 hPa 0,0 l/m 19,7 km/h (3 Bft) W-SW 253 0 min 0,000 mm 0,0 UV-I 0 W/m 1,1 C 7,8 C 30,6 km/h (5 Bft) 93,62 %
23.02.2017 21:40 13,4 C 43 % 997,6 hPa 0,0 l/m 16,4 km/h (3 Bft) W-SW 246 0 min 0,000 mm 0,0 UV-I 0 W/m 1,1 C 8,8 C 27,4 km/h (4 Bft) 97,73 %
23.02.2017 21:42 13,5 C 43 % 997,6 hPa 0,0 l/m 17,1 km/h (3 Bft) SW 231 0 min 0,000 mm 0,0 UV-I 0 W/m 1,2 C 8,7 C 25,7 km/h (4 Bft) 100,00 %
23.02.2017 21:44 13,4 C 43 % 997,6 hPa 0,0 l/m 18,5 km/h (3 Bft) W-SW 240 0 min 0,000 mm 0,0 UV-I 0 W/m 1,1 C 8,1 C 24,1 km/h (4 Bft) 94,64 %
23.02.2017 21:46 13,3 C 44 % 997,6 hPa 0,0 l/m 21,2 km/h (4 Bft) W-SW 248 0 min 0,000 mm 0,0 UV-I 0 W/m 1,3 C 7,2 C 29,0 km/h (5 Bft) 98,00 %
23.02.2017 21:48 13,3 C 44 % 997,7 hPa 0,0 l/m 19,4 km/h (3 Bft) W-SW 250 0 min 0,000 mm 0,0 UV-I 0 W/m 1,3 C 7,7 C 29,0 km/h (5 Bft) 97,73 %
23.02.2017 21:50 13,2 C 44 % 997,7 hPa 0,0 l/m 20,8 km/h (4 Bft) W-SW 244 0 min 0,000 mm 0,0 UV-I 0 W/m 1,2 C 7,2 C 27,4 km/h (4 Bft) 97,62 %
23.02.2017 21:52 13,2 C 45 % 997,7 hPa 0,0 l/m 19,9 km/h (4 Bft) W-SW 237 0 min 0,000 mm 0,0 UV-I 0 W/m 1,5 C 7,4 C 27,4 km/h (4 Bft) 98,11 %
23.02.2017 21:54 13,1 C 45 % 997,7 hPa 0,0 l/m 18,6 km/h (3 Bft) SW 225 0 min 0,000 mm 0,0 UV-I 0 W/m 1,4 C 7,7 C 27,4 km/h (4 Bft) 92,31 %
23.02.2017 21:56 13,1 C 45 % 997,7 hPa 0,0 l/m 20,0 km/h (4 Bft) SW 231 0 min 0,000 mm 0,0 UV-I 0 W/m 1,4 C 7,3 C 29,0 km/h (5 Bft) 98,11 %
23.02.2017 21:58 13,1 C 45 % 997,7 hPa 0,0 l/m 18,0 km/h (3 Bft) SW 229 0 min 0,000 mm 0,0 UV-I 0 W/m 1,4 C 7,9 C 25,7 km/h (4 Bft) 95,74 %
23.02.2017 22:00 13,1 C 45 % 997,7 hPa 0,0 l/m 17,7 km/h (3 Bft) SW 234 0 min 0,000 mm 0,0 UV-I 0 W/m 1,4 C 8,0 C 22,5 km/h (4 Bft) 96,00 %
23.02.2017 22:02 13,0 C 46 % 997,7 hPa 0,0 l/m 17,2 km/h (3 Bft) S-SW 205 0 min 0,127 mm 0,0 UV-I 0 W/m 1,7 C 8,0 C 24,1 km/h (4 Bft) 92,68 %
23.02.2017 22:04 12,9 C 46 % 997,6 hPa 0,0 l/m 18,5 km/h (3 Bft) SW 232 0 min 0,000 mm 0,0 UV-I 0 W/m 1,6 C 7,5 C 24,1 km/h (4 Bft) 90,00 %
23.02.2017 22:06 12,9 C 46 % 997,7 hPa 0,0 l/m 16,4 km/h (3 Bft) W 277 0 min 0,000 mm 0,0 UV-I 0 W/m 1,6 C 8,2 C 24,1 km/h (4 Bft) 96,00 %
23.02.2017 22:08 12,9 C 46 % 997,7 hPa 0,0 l/m 17,5 km/h (3 Bft) SW 217 0 min 0,000 mm 0,0 UV-I 0 W/m 1,6 C 7,8 C 25,7 km/h (4 Bft) 97,14 %
23.02.2017 22:10 12,9 C 46 % 997,7 hPa 0,0 l/m 15,6 km/h (3 Bft) W-SW 248 0 min 0,000 mm 0,0 UV-I 0 W/m 1,6 C 8,4 C 22,5 km/h (4 Bft) 92,11 %
23.02.2017 22:12 12,9 C 46 % 997,7 hPa 0,0 l/m 16,7 km/h (3 Bft) S-SW 201 0 min 0,000 mm 0,0 UV-I 0 W/m 1,6 C 8,1 C 25,7 km/h (4 Bft) 97,06 %
23.02.2017 22:14 12,9 C 46 % 997,8 hPa 0,0 l/m 13,3 km/h (3 Bft) SW 228 0 min 0,000 mm 0,0 UV-I 0 W/m 1,6 C 9,3 C 17,7 km/h (3 Bft) 97,73 %
23.02.2017 22:16 12,9 C 46 % 997,8 hPa 0,0 l/m 13,2 km/h (3 Bft) S-SW 194 0 min 0,000 mm 0,0 UV-I 0 W/m 1,6 C 9,3 C 17,7 km/h (3 Bft) 97,56 %
23.02.2017 22:18 12,9 C 45 % 997,7 hPa 0,0 l/m 15,9 km/h (3 Bft) SW 236 0 min 0,000 mm 0,0 UV-I 0 W/m 1,3 C 8,3 C 29,0 km/h (5 Bft) 97,87 %
23.02.2017 22:20 12,9 C 45 % 997,7 hPa 0,0 l/m 12,5 km/h (3 Bft) SW 223 0 min 0,000 mm 0,0 UV-I 0 W/m 1,3 C 9,6 C 24,1 km/h (4 Bft) 95,74 %
23.02.2017 22:22 12,9 C 45 % 997,7 hPa 0,0 l/m 13,4 km/h (3 Bft) SW 222 0 min 0,000 mm 0,0 UV-I 0 W/m 1,3 C 9,3 C 19,3 km/h (3 Bft) 96,00 %
23.02.2017 22:24 12,9 C 46 % 997,7 hPa 0,0 l/m 12,2 km/h (2 Bft) SW 215 0 min 0,000 mm 0,0 UV-I 0 W/m 1,6 C 9,8 C 22,5 km/h (4 Bft) 92,68 %
23.02.2017 22:26 12,9 C 45 % 997,7 hPa 0,0 l/m 13,3 km/h (3 Bft) SW 216 0 min 0,000 mm 0,0 UV-I 0 W/m 1,3 C 9,3 C 19,3 km/h (3 Bft) 92,00 %
23.02.2017 22:28 12,9 C 45 % 997,6 hPa 0,0 l/m 15,0 km/h (3 Bft) SW 215 0 min 0,000 mm 0,0 UV-I 0 W/m 1,3 C 8,6 C 20,9 km/h (4 Bft) 98,11 %
23.02.2017 22:30 12,9 C 45 % 997,7 hPa 0,0 l/m 14,0 km/h (3 Bft) S-SW 193 0 min 0,000 mm 0,0 UV-I 0 W/m 1,3 C 9,0 C 20,9 km/h (4 Bft) 92,31 %
23.02.2017 22:32 12,8 C 46 % 997,6 hPa 0,0 l/m 13,6 km/h (3 Bft) SW 236 0 min 0,000 mm 0,0 UV-I 0 W/m 1,5 C 9,1 C 20,9 km/h (4 Bft) 94,55 %
23.02.2017 22:34 12,8 C 46 % 997,7 hPa 0,0 l/m 14,7 km/h (3 Bft) SW 223 0 min 0,000 mm 0,0 UV-I 0 W/m 1,5 C 8,6 C 24,1 km/h (4 Bft) 97,87 %
23.02.2017 22:36 12,7 C 46 % 997,6 hPa 0,0 l/m 14,1 km/h (3 Bft) SW 214 0 min 0,000 mm 0,0 UV-I 0 W/m 1,4 C 8,7 C 20,9 km/h (4 Bft) 93,75 %
23.02.2017 22:38 12,7 C 46 % 997,6 hPa 0,0 l/m 13,5 km/h (3 Bft) S-SW 207 0 min 0,000 mm 0,0 UV-I 0 W/m 1,4 C 9,0 C 20,9 km/h (4 Bft) 97,87 %
23.02.2017 22:40 12,7 C 46 % 997,6 hPa 0,0 l/m 15,3 km/h (3 Bft) SW 215 0 min 0,000 mm 0,0 UV-I 0 W/m 1,4 C 8,3 C 20,9 km/h (4 Bft) 94,29 %
23.02.2017 22:42 12,7 C 46 % 997,7 hPa 0,0 l/m 15,2 km/h (3 Bft) SW 219 0 min 0,000 mm 0,0 UV-I 0 W/m 1,4 C 8,3 C 24,1 km/h (4 Bft) 94,34 %
23.02.2017 22:44 12,7 C 47 % 997,7 hPa 0,0 l/m 14,6 km/h (3 Bft) SW 227 0 min 0,000 mm 0,0 UV-I 0 W/m 1,7 C 8,6 C 20,9 km/h (4 Bft) 89,66 %
23.02.2017 22:46 12,7 C 47 % 997,6 hPa 0,0 l/m 15,8 km/h (3 Bft) S-SW 202 0 min 0,000 mm 0,0 UV-I 0 W/m 1,7 C 8,1 C 22,5 km/h (4 Bft) 96,43 %
23.02.2017 22:48 12,7 C 47 % 997,6 hPa 0,0 l/m 14,0 km/h (3 Bft) S-SW 193 0 min 0,000 mm 0,0 UV-I 0 W/m 1,7 C 8,8 C 19,3 km/h (3 Bft) 92,86 %
23.02.2017 22:50 12,6 C 47 % 997,7 hPa 0,0 l/m 14,1 km/h (3 Bft) S-SW 211 0 min 0,000 mm 0,0 UV-I 0 W/m 1,6 C 8,6 C 20,9 km/h (4 Bft) 94,00 %
23.02.2017 22:52 12,6 C 47 % 997,7 hPa 0,0 l/m 12,9 km/h (3 Bft) S-SW 196 0 min 0,000 mm 0,0 UV-I 0 W/m 1,6 C 9,1 C 19,3 km/h (3 Bft) 89,36 %
23.02.2017 22:54 12,6 C 47 % 997,6 hPa 0,0 l/m 15,7 km/h (3 Bft) S-SW 209 0 min 0,000 mm 0,0 UV-I 0 W/m 1,6 C 8,0 C 24,1 km/h (4 Bft) 84,21 %
23.02.2017 22:56 12,7 C 46 % 997,6 hPa 0,0 l/m 15,3 km/h (3 Bft) SW 220 0 min 0,000 mm 0,0 UV-I 0 W/m 1,4 C 8,3 C 24,1 km/h (4 Bft) 96,23 %
23.02.2017 22:58 12,8 C 45 % 997,5 hPa 0,0 l/m 15,8 km/h (3 Bft) W-SW 238 0 min 0,000 mm 0,0 UV-I 0 W/m 1,2 C 8,2 C 24,1 km/h (4 Bft) 96,00 %
23.02.2017 23:00 12,8 C 44 % 997,5 hPa 0,0 l/m 14,9 km/h (3 Bft) S 188 0 min 0,000 mm 0,0 UV-I 0 W/m 0,9 C 8,6 C 25,7 km/h (4 Bft) 94,74 %
23.02.2017 23:02 13,0 C 44 % 997,5 hPa 0,0 l/m 16,4 km/h (3 Bft) SW 224 0 min 0,102 mm 0,0 UV-I 0 W/m 1,0 C 8,3 C 30,6 km/h (5 Bft) 93,62 %
23.02.2017 23:04 13,1 C 43 % 997,5 hPa 0,0 l/m 16,3 km/h (3 Bft) SW 220 0 min 0,000 mm 0,0 UV-I 0 W/m 0,8 C 8,4 C 27,4 km/h (4 Bft) 96,00 %
23.02.2017 23:06 13,2 C 43 % 997,5 hPa 0,0 l/m 13,9 km/h (3 Bft) SW 234 0 min 0,000 mm 0,0 UV-I 0 W/m 0,9 C 9,4 C 22,5 km/h (4 Bft) 95,74 %
23.02.2017 23:08 13,3 C 42 % 997,5 hPa 0,0 l/m 16,6 km/h (3 Bft) SW 231 0 min 0,000 mm 0,0 UV-I 0 W/m 0,7 C 8,6 C 24,1 km/h (4 Bft) 97,87 %
23.02.2017 23:10 13,3 C 43 % 997,6 hPa 0,0 l/m 14,7 km/h (3 Bft) S 174 0 min 0,000 mm 0,0 UV-I 0 W/m 1,0 C 9,2 C 22,5 km/h (4 Bft) 91,49 %
23.02.2017 23:11 13,3 C 43 % 997,5 hPa 0,0 l/m 15,8 km/h (3 Bft) S-SW 198 0 min 0,000 mm 0,0 UV-I 0 W/m 1,0 C 8,9 C 27,4 km/h (4 Bft) 100,00 %
23.02.2017 23:12 13,3 C 43 % 997,5 hPa 0,0 l/m 16,8 km/h (3 Bft) W-SW 254 0 min 0,000 mm 0,0 UV-I 0 W/m 1,0 C 8,5 C 29,0 km/h (5 Bft) 95,83 %
23.02.2017 23:13 13,3 C 42 % 997,5 hPa 0,0 l/m 17,2 km/h (3 Bft) W 259 0 min 0,000 mm 0,0 UV-I 0 W/m 0,7 C 8,4 C 22,5 km/h (4 Bft) 91,30 %
23.02.2017 23:14 13,3 C 42 % 997,5 hPa 0,0 l/m 18,4 km/h (3 Bft) W 265 0 min 0,000 mm 0,0 UV-I 0 W/m 0,7 C 8,0 C 24,1 km/h (4 Bft) 91,67 %
23.02.2017 23:15 13,3 C 43 % 997,5 hPa 0,0 l/m 14,2 km/h (3 Bft) W-SW 242 0 min 0,000 mm 0,0 UV-I 0 W/m 1,0 C 9,4 C 22,5 km/h (4 Bft) 95,65 %
23.02.2017 23:16 13,3 C 43 % 997,5 hPa 0,0 l/m 17,1 km/h (3 Bft) SW 234 0 min 0,000 mm 0,0 UV-I 0 W/m 1,0 C 8,4 C 22,5 km/h (4 Bft) 95,83 %
23.02.2017 23:17 13,3 C 43 % 997,5 hPa 0,0 l/m 15,6 km/h (3 Bft) S-SW 211 0 min 0,000 mm 0,0 UV-I 0 W/m 1,0 C 8,9 C 20,9 km/h (4 Bft) 100,00 %
23.02.2017 23:18 13,3 C 43 % 997,5 hPa 0,0 l/m 19,0 km/h (3 Bft) SW 233 0 min 0,000 mm 0,0 UV-I 0 W/m 1,0 C 7,8 C 22,5 km/h (4 Bft) 95,83 %
23.02.2017 23:19 13,2 C 44 % 997,5 hPa 0,0 l/m 13,4 km/h (3 Bft) W 276 0 min 0,000 mm 0,0 UV-I 0 W/m 1,2 C 9,6 C 19,3 km/h (3 Bft) 91,30 %
23.02.2017 23:20 13,2 C 44 % 997,5 hPa 0,0 l/m 12,9 km/h (3 Bft) S-SW 206 0 min 0,000 mm 0,0 UV-I 0 W/m 1,2 C 9,8 C 20,9 km/h (4 Bft) 93,33 %
23.02.2017 23:21 13,2 C 44 % 997,6 hPa 0,0 l/m 15,3 km/h (3 Bft) W-SW 239 0 min 0,000 mm 0,0 UV-I 0 W/m 1,2 C 8,9 C 24,1 km/h (4 Bft) 96,15 %
23.02.2017 23:22 13,2 C 44 % 997,6 hPa 0,0 l/m 10,9 km/h (2 Bft) W-SW 241 0 min 0,000 mm 0,0 UV-I 0 W/m 1,2 C 10,7 C 19,3 km/h (3 Bft) 96,30 %
23.02.2017 23:24 13,1 C 44 % 997,6 hPa 0,0 l/m 15,9 km/h (3 Bft) SW 228 0 min 0,000 mm 0,0 UV-I 0 W/m 1,1 C 8,6 C 25,7 km/h (4 Bft) 100,00 %
23.02.2017 23:26 13,0 C 45 % 997,6 hPa 0,0 l/m 13,5 km/h (3 Bft) SW 232 0 min 0,000 mm 0,0 UV-I 0 W/m 1,4 C 9,3 C 20,9 km/h (4 Bft) 100,00 %
23.02.2017 23:27 12,9 C 45 % 997,7 hPa 0,0 l/m 12,8 km/h (3 Bft) S-SW 210 0 min 0,000 mm 0,0 UV-I 0 W/m 1,3 C 9,5 C 17,7 km/h (3 Bft) 93,10 %
23.02.2017 23:28 12,9 C 45 % 997,6 hPa 0,0 l/m 14,0 km/h (3 Bft) SW 221 0 min 0,000 mm 0,0 UV-I 0 W/m 1,3 C 9,0 C 19,3 km/h (3 Bft) 100,00 %
23.02.2017 23:29 12,9 C 45 % 997,6 hPa 0,0 l/m 19,0 km/h (3 Bft) S-SW 208 0 min 0,000 mm 0,0 UV-I 0 W/m 1,3 C 7,3 C 24,1 km/h (4 Bft) 100,00 %
23.02.2017 23:30 12,9 C 45 % 997,7 hPa 0,0 l/m 15,4 km/h (3 Bft) SW 220 0 min 0,000 mm 0,0 UV-I 0 W/m 1,3 C 8,5 C 19,3 km/h (3 Bft) 96,15 %
23.02.2017 23:31 12,9 C 45 % 997,7 hPa 0,0 l/m 16,4 km/h (3 Bft) W 267 0 min 0,000 mm 0,0 UV-I 0 W/m 1,3 C 8,2 C 22,5 km/h (4 Bft) 100,00 %
23.02.2017 23:32 12,9 C 45 % 997,7 hPa 0,0 l/m 16,2 km/h (3 Bft) W-SW 247 0 min 0,000 mm 0,0 UV-I 0 W/m 1,3 C 8,2 C 19,3 km/h (3 Bft) 91,30 %
23.02.2017 23:33 12,8 C 45 % 997,8 hPa 0,0 l/m 15,4 km/h (3 Bft) W-SW 246 0 min 0,000 mm 0,0 UV-I 0 W/m 1,2 C 8,4 C 19,3 km/h (3 Bft) 100,00 %
23.02.2017 23:34 12,8 C 45 % 997,8 hPa 0,0 l/m 17,8 km/h (3 Bft) W-SW 239 0 min 0,000 mm 0,0 UV-I 0 W/m 1,2 C 7,6 C 24,1 km/h (4 Bft) 100,00 %
23.02.2017 23:35 12,8 C 45 % 997,7 hPa 0,0 l/m 16,9 km/h (3 Bft) SW 235 0 min 0,000 mm 0,0 UV-I 0 W/m 1,2 C 7,9 C 24,1 km/h (4 Bft) 100,00 %
23.02.2017 23:36 12,8 C 46 % 997,7 hPa 0,0 l/m 13,0 km/h (3 Bft) SW 234 0 min 0,000 mm 0,0 UV-I 0 W/m 1,5 C 9,3 C 16,1 km/h (3 Bft) 96,15 %
23.02.2017 23:37 12,8 C 46 % 997,7 hPa 0,0 l/m 12,9 km/h (3 Bft) SW 229 0 min 0,000 mm 0,0 UV-I 0 W/m 1,5 C 9,4 C 17,7 km/h (3 Bft) 100,00 %
23.02.2017 23:38 12,8 C 46 % 997,7 hPa 0,0 l/m 14,3 km/h (3 Bft) SW 217 0 min 0,000 mm 0,0 UV-I 0 W/m 1,5 C 8,8 C 19,3 km/h (3 Bft) 100,00 %
23.02.2017 23:39 12,8 C 46 % 997,7 hPa 0,0 l/m 13,9 km/h (3 Bft) W-SW 244 0 min 0,000 mm 0,0 UV-I 0 W/m 1,5 C 8,9 C 19,3 km/h (3 Bft) 95,83 %
23.02.2017 23:40 12,8 C 46 % 997,8 hPa 0,0 l/m 18,2 km/h (3 Bft) SW 226 0 min 0,000 mm 0,0 UV-I 0 W/m 1,5 C 7,4 C 25,7 km/h (4 Bft) 100,00 %
23.02.2017 23:41 12,8 C 46 % 997,8 hPa 0,0 l/m 17,2 km/h (3 Bft) W-SW 246 0 min 0,000 mm 0,0 UV-I 0 W/m 1,5 C 7,8 C 24,1 km/h (4 Bft) 100,00 %
23.02.2017 23:42 12,8 C 46 % 997,8 hPa 0,0 l/m 15,1 km/h (3 Bft) W-SW 244 0 min 0,000 mm 0,0 UV-I 0 W/m 1,5 C 8,5 C 22,5 km/h (4 Bft) 91,67 %
23.02.2017 23:43 12,8 C 45 % 997,8 hPa 0,0 l/m 16,4 km/h (3 Bft) W-SW 245 0 min 0,000 mm 0,0 UV-I 0 W/m 1,2 C 8,0 C 22,5 km/h (4 Bft) 96,15 %
23.02.2017 23:44 12,8 C 45 % 997,8 hPa 0,0 l/m 13,2 km/h (3 Bft) SW 229 0 min 0,000 mm 0,0 UV-I 0 W/m 1,2 C 9,2 C 19,3 km/h (3 Bft) 100,00 %
23.02.2017 23:45 12,8 C 45 % 997,9 hPa 0,0 l/m 16,3 km/h (3 Bft) W 265 0 min 0,000 mm 0,0 UV-I 0 W/m 1,2 C 8,1 C 20,9 km/h (4 Bft) 100,00 %
23.02.2017 23:46 12,8 C 45 % 997,9 hPa 0,0 l/m 12,7 km/h (3 Bft) S-SW 196 0 min 0,000 mm 0,0 UV-I 0 W/m 1,2 C 9,4 C 20,9 km/h (4 Bft) 100,00 %
23.02.2017 23:47 12,8 C 45 % 997,9 hPa 0,0 l/m 12,2 km/h (2 Bft) SW 227 0 min 0,000 mm 0,0 UV-I 0 W/m 1,2 C 9,7 C 17,7 km/h (3 Bft) 100,00 %
23.02.2017 23:48 12,8 C 45 % 997,9 hPa 0,0 l/m 13,1 km/h (3 Bft) SW 236 0 min 0,000 mm 0,0 UV-I 0 W/m 1,2 C 9,3 C 19,3 km/h (3 Bft) 95,65 %
23.02.2017 23:49 12,8 C 45 % 997,9 hPa 0,0 l/m 16,9 km/h (3 Bft) SW 229 0 min 0,000 mm 0,0 UV-I 0 W/m 1,2 C 7,9 C 24,1 km/h (4 Bft) 100,00 %
23.02.2017 23:50 12,8 C 45 % 997,9 hPa 0,0 l/m 15,6 km/h (3 Bft) SW 232 0 min 0,000 mm 0,0 UV-I 0 W/m 1,2 C 8,3 C 20,9 km/h (4 Bft) 100,00 %
23.02.2017 23:51 12,8 C 45 % 997,9 hPa 0,0 l/m 13,4 km/h (3 Bft) W-SW 250 0 min 0,000 mm 0,0 UV-I 0 W/m 1,2 C 9,1 C 19,3 km/h (3 Bft) 100,00 %
23.02.2017 23:52 12,8 C 45 % 997,9 hPa 0,0 l/m 12,4 km/h (3 Bft) W-SW 244 0 min 0,000 mm 0,0 UV-I 0 W/m 1,2 C 9,6 C 16,1 km/h (3 Bft) 100,00 %
23.02.2017 23:53 12,8 C 45 % 997,8 hPa 0,0 l/m 10,6 km/h (2 Bft) W 279 0 min 0,000 mm 0,0 UV-I 0 W/m 1,2 C 10,4 C 12,9 km/h (3 Bft) 100,00 %
23.02.2017 23:54 12,8 C 46 % 997,8 hPa 0,0 l/m 10,4 km/h (2 Bft) SW 215 0 min 0,000 mm 0,0 UV-I 0 W/m 1,5 C 10,5 C 14,5 km/h (3 Bft) 100,00 %
23.02.2017 23:55 12,8 C 46 % 997,8 hPa 0,0 l/m 12,3 km/h (3 Bft) SW 232 0 min 0,000 mm 0,0 UV-I 0 W/m 1,5 C 9,6 C 16,1 km/h (3 Bft) 95,65 %
23.02.2017 23:56 12,8 C 46 % 997,9 hPa 0,0 l/m 14,7 km/h (3 Bft) SW 234 0 min 0,000 mm 0,0 UV-I 0 W/m 1,5 C 8,6 C 20,9 km/h (4 Bft) 96,30 %
23.02.2017 23:57 12,8 C 46 % 997,9 hPa 0,0 l/m 17,8 km/h (3 Bft) SW 234 0 min 0,000 mm 0,0 UV-I 0 W/m 1,5 C 7,6 C 20,9 km/h (4 Bft) 100,00 %
23.02.2017 23:58 12,8 C 45 % 997,9 hPa 0,0 l/m 15,9 km/h (3 Bft) SW 229 0 min 0,000 mm 0,0 UV-I 0 W/m 1,2 C 8,2 C 22,5 km/h (4 Bft) 100,00 %
23.02.2017 23:59 12,8 C 45 % 997,9 hPa 0,0 l/m 13,1 km/h (3 Bft) W-SW 238 0 min 0,000 mm 0,0 UV-I 0 W/m 1,2 C 9,3 C 16,1 km/h (3 Bft) 95,65 %
_ Min-Zeit 19:14 23:08 20:34 - 17:46 - - - - - - 23:08 07:44 17:46 10:48
Minimum _ 9,3 C 42 % 997,3 hPa - 0,0 km/h (0 Bft) - - - - - - 0,7 C 2,7 C 0,0 km/h (0 Bft) 81,48 %
_ Max-Zeit 15:02 19:14 00:24 00:00 03:32 - - 15:43 14:00 12:30 12:30 15:58 15:04 21:32 00:00
Maximum _ 16,6 C 82 % 1008,9 hPa 0,0 l/m 24,3 km/h
W (4 Bft)
- - 3 min 0,305 mm 1,9 UV-I 574 W/m 9,3 C 16,6 C 40,2 km/h
W-SW (6 Bft)
100,00 %
Durchschnitt _ 12,0 C 63 % 1003,6 hPa #0,0 l/m 10,3 km/h (2 Bft) W-SW - #6:08 h #2,540 mm 1,2 UV-I 263 W/m 5,1 C 9,4 C 16,0 km/h (3 Bft) 96,35 %